<?xml version="1.0" encoding="UTF-8" standalone="no" ?>
<gpx xmlns="http://www.topografix.com/GPX/1/1" xmlns:xsi="http://www.w3.org/2001/XMLSchema-instance" xsi:schemaLocation="http://www.topografix.com/GPX/1/1 http://www.topografix.com/GPX/1/1/gpx.xsd" version="1.1" creator="VisuGPX - https://www.visugpx.com">
  <metadata>
    <name>Rando VTT 2012 J2</name>
    <desc><![CDATA[Etape 2 rando VTT Ascension 2012
Mourjou-Brommat]]></desc>
  </metadata>
  <trk>
    <name><![CDATA[ACTIVE LOG]]></name>
    <trkseg>
      <trkpt lat="44.69198" lon="2.32972">
        <ele>490.40979</ele>
        <time>2012-05-18T07:55:35Z</time>
      </trkpt>
      <trkpt lat="44.69193" lon="2.3301">
        <ele>480.796631</ele>
        <time>2012-05-18T07:59:47Z</time>
      </trkpt>
      <trkpt lat="44.69213" lon="2.33027">
        <ele>479.835083</ele>
        <time>2012-05-18T08:00:06Z</time>
      </trkpt>
      <trkpt lat="44.6922" lon="2.33032">
        <ele>479.354492</ele>
        <time>2012-05-18T08:00:14Z</time>
      </trkpt>
      <trkpt lat="44.6922" lon="2.3303">
        <ele>476.470581</ele>
        <time>2012-05-18T08:00:41Z</time>
      </trkpt>
      <trkpt lat="44.69223" lon="2.33044">
        <ele>476.470581</ele>
        <time>2012-05-18T08:00:54Z</time>
      </trkpt>
      <trkpt lat="44.69258" lon="2.33104">
        <ele>477.431885</ele>
        <time>2012-05-18T08:01:11Z</time>
      </trkpt>
      <trkpt lat="44.69307" lon="2.33138">
        <ele>478.873901</ele>
        <time>2012-05-18T08:01:29Z</time>
      </trkpt>
      <trkpt lat="44.69374" lon="2.33178">
        <ele>480.315918</ele>
        <time>2012-05-18T08:01:55Z</time>
      </trkpt>
      <trkpt lat="44.69425" lon="2.33229">
        <ele>481.277222</ele>
        <time>2012-05-18T08:02:19Z</time>
      </trkpt>
      <trkpt lat="44.69411" lon="2.33308">
        <ele>477.912476</ele>
        <time>2012-05-18T08:02:31Z</time>
      </trkpt>
      <trkpt lat="44.69404" lon="2.33348">
        <ele>475.989868</ele>
        <time>2012-05-18T08:02:38Z</time>
      </trkpt>
      <trkpt lat="44.69446" lon="2.33364">
        <ele>473.58667</ele>
        <time>2012-05-18T08:02:46Z</time>
      </trkpt>
      <trkpt lat="44.69459" lon="2.33386">
        <ele>471.18335</ele>
        <time>2012-05-18T08:02:51Z</time>
      </trkpt>
      <trkpt lat="44.69446" lon="2.33408">
        <ele>469.260742</ele>
        <time>2012-05-18T08:02:54Z</time>
      </trkpt>
      <trkpt lat="44.69385" lon="2.33449">
        <ele>463.973389</ele>
        <time>2012-05-18T08:03:03Z</time>
      </trkpt>
      <trkpt lat="44.69377" lon="2.33495">
        <ele>457.724976</ele>
        <time>2012-05-18T08:03:08Z</time>
      </trkpt>
      <trkpt lat="44.69389" lon="2.33555">
        <ele>451.957031</ele>
        <time>2012-05-18T08:03:15Z</time>
      </trkpt>
      <trkpt lat="44.69382" lon="2.33571">
        <ele>452.918213</ele>
        <time>2012-05-18T08:03:18Z</time>
      </trkpt>
      <trkpt lat="44.69353" lon="2.33608">
        <ele>452.918213</ele>
        <time>2012-05-18T08:03:27Z</time>
      </trkpt>
      <trkpt lat="44.69337" lon="2.33608">
        <ele>453.398926</ele>
        <time>2012-05-18T08:03:31Z</time>
      </trkpt>
      <trkpt lat="44.69292" lon="2.3361">
        <ele>455.321533</ele>
        <time>2012-05-18T08:03:47Z</time>
      </trkpt>
      <trkpt lat="44.6928" lon="2.33643">
        <ele>456.282959</ele>
        <time>2012-05-18T08:04:01Z</time>
      </trkpt>
      <trkpt lat="44.69278" lon="2.33691">
        <ele>457.724976</ele>
        <time>2012-05-18T08:04:21Z</time>
      </trkpt>
      <trkpt lat="44.69303" lon="2.3374">
        <ele>460.128174</ele>
        <time>2012-05-18T08:04:44Z</time>
      </trkpt>
      <trkpt lat="44.69338" lon="2.33804">
        <ele>465.896118</ele>
        <time>2012-05-18T08:05:14Z</time>
      </trkpt>
      <trkpt lat="44.69347" lon="2.33862">
        <ele>468.780029</ele>
        <time>2012-05-18T08:05:36Z</time>
      </trkpt>
      <trkpt lat="44.69347" lon="2.33901">
        <ele>476.470581</ele>
        <time>2012-05-18T08:06:01Z</time>
      </trkpt>
      <trkpt lat="44.6935" lon="2.33946">
        <ele>479.354492</ele>
        <time>2012-05-18T08:06:23Z</time>
      </trkpt>
      <trkpt lat="44.69371" lon="2.34004">
        <ele>486.564453</ele>
        <time>2012-05-18T08:06:54Z</time>
      </trkpt>
      <trkpt lat="44.69389" lon="2.34069">
        <ele>490.40979</ele>
        <time>2012-05-18T08:07:25Z</time>
      </trkpt>
      <trkpt lat="44.69365" lon="2.3409">
        <ele>493.293579</ele>
        <time>2012-05-18T08:07:42Z</time>
      </trkpt>
      <trkpt lat="44.69342" lon="2.34098">
        <ele>492.812988</ele>
        <time>2012-05-18T08:08:01Z</time>
      </trkpt>
      <trkpt lat="44.69346" lon="2.34082">
        <ele>493.293579</ele>
        <time>2012-05-18T08:08:13Z</time>
      </trkpt>
      <trkpt lat="44.69341" lon="2.34095">
        <ele>493.774292</ele>
        <time>2012-05-18T08:08:19Z</time>
      </trkpt>
      <trkpt lat="44.69353" lon="2.34143">
        <ele>497.138916</ele>
        <time>2012-05-18T08:08:39Z</time>
      </trkpt>
      <trkpt lat="44.69366" lon="2.34194">
        <ele>500.50354</ele>
        <time>2012-05-18T08:09:04Z</time>
      </trkpt>
      <trkpt lat="44.69383" lon="2.34242">
        <ele>502.426147</ele>
        <time>2012-05-18T08:09:29Z</time>
      </trkpt>
      <trkpt lat="44.69409" lon="2.34301">
        <ele>505.790894</ele>
        <time>2012-05-18T08:09:58Z</time>
      </trkpt>
      <trkpt lat="44.69434" lon="2.34338">
        <ele>508.194092</ele>
        <time>2012-05-18T08:10:19Z</time>
      </trkpt>
      <trkpt lat="44.69463" lon="2.34374">
        <ele>512.52002</ele>
        <time>2012-05-18T08:10:41Z</time>
      </trkpt>
      <trkpt lat="44.69471" lon="2.34384">
        <ele>519.249268</ele>
        <time>2012-05-18T08:11:00Z</time>
      </trkpt>
      <trkpt lat="44.6948" lon="2.34389">
        <ele>520.210571</ele>
        <time>2012-05-18T08:11:13Z</time>
      </trkpt>
      <trkpt lat="44.69505" lon="2.34405">
        <ele>512.52002</ele>
        <time>2012-05-18T08:11:38Z</time>
      </trkpt>
      <trkpt lat="44.69512" lon="2.34408">
        <ele>514.92334</ele>
        <time>2012-05-18T08:12:05Z</time>
      </trkpt>
      <trkpt lat="44.69522" lon="2.34411">
        <ele>510.116699</ele>
        <time>2012-05-18T08:12:45Z</time>
      </trkpt>
      <trkpt lat="44.69549" lon="2.34403">
        <ele>508.194092</ele>
        <time>2012-05-18T08:12:53Z</time>
      </trkpt>
      <trkpt lat="44.69584" lon="2.34395">
        <ele>509.155396</ele>
        <time>2012-05-18T08:13:04Z</time>
      </trkpt>
      <trkpt lat="44.69644" lon="2.34384">
        <ele>505.310181</ele>
        <time>2012-05-18T08:13:27Z</time>
      </trkpt>
      <trkpt lat="44.69799" lon="2.34358">
        <ele>506.271484</ele>
        <time>2012-05-18T08:14:11Z</time>
      </trkpt>
      <trkpt lat="44.69912" lon="2.34381">
        <ele>506.752075</ele>
        <time>2012-05-18T08:14:42Z</time>
      </trkpt>
      <trkpt lat="44.69976" lon="2.34412">
        <ele>505.790894</ele>
        <time>2012-05-18T08:15:04Z</time>
      </trkpt>
      <trkpt lat="44.70019" lon="2.34484">
        <ele>505.790894</ele>
        <time>2012-05-18T08:15:21Z</time>
      </trkpt>
      <trkpt lat="44.70064" lon="2.34529">
        <ele>505.310181</ele>
        <time>2012-05-18T08:15:35Z</time>
      </trkpt>
      <trkpt lat="44.70115" lon="2.34538">
        <ele>506.271484</ele>
        <time>2012-05-18T08:15:50Z</time>
      </trkpt>
      <trkpt lat="44.70142" lon="2.34583">
        <ele>509.636108</ele>
        <time>2012-05-18T08:16:03Z</time>
      </trkpt>
      <trkpt lat="44.70174" lon="2.34598">
        <ele>509.636108</ele>
        <time>2012-05-18T08:16:20Z</time>
      </trkpt>
      <trkpt lat="44.70187" lon="2.34603">
        <ele>509.636108</ele>
        <time>2012-05-18T08:16:26Z</time>
      </trkpt>
      <trkpt lat="44.70189" lon="2.34618">
        <ele>510.116699</ele>
        <time>2012-05-18T08:16:31Z</time>
      </trkpt>
      <trkpt lat="44.70179" lon="2.3469">
        <ele>513.000732</ele>
        <time>2012-05-18T08:17:00Z</time>
      </trkpt>
      <trkpt lat="44.70188" lon="2.34772">
        <ele>517.32666</ele>
        <time>2012-05-18T08:17:31Z</time>
      </trkpt>
      <trkpt lat="44.70203" lon="2.34842">
        <ele>519.729858</ele>
        <time>2012-05-18T08:17:57Z</time>
      </trkpt>
      <trkpt lat="44.70199" lon="2.34922">
        <ele>523.575195</ele>
        <time>2012-05-18T08:18:23Z</time>
      </trkpt>
      <trkpt lat="44.70209" lon="2.34998">
        <ele>525.017212</ele>
        <time>2012-05-18T08:18:49Z</time>
      </trkpt>
      <trkpt lat="44.70227" lon="2.35058">
        <ele>526.939819</ele>
        <time>2012-05-18T08:19:13Z</time>
      </trkpt>
      <trkpt lat="44.70246" lon="2.3509">
        <ele>527.42041</ele>
        <time>2012-05-18T08:19:34Z</time>
      </trkpt>
      <trkpt lat="44.70274" lon="2.35132">
        <ele>527.42041</ele>
        <time>2012-05-18T08:20:02Z</time>
      </trkpt>
      <trkpt lat="44.70277" lon="2.35134">
        <ele>529.34314</ele>
        <time>2012-05-18T08:20:23Z</time>
      </trkpt>
      <trkpt lat="44.70279" lon="2.35142">
        <ele>530.785156</ele>
        <time>2012-05-18T08:21:00Z</time>
      </trkpt>
      <trkpt lat="44.70274" lon="2.35195">
        <ele>528.381836</ele>
        <time>2012-05-18T08:21:12Z</time>
      </trkpt>
      <trkpt lat="44.70271" lon="2.35223">
        <ele>525.497803</ele>
        <time>2012-05-18T08:21:30Z</time>
      </trkpt>
      <trkpt lat="44.7027" lon="2.35229">
        <ele>523.094604</ele>
        <time>2012-05-18T08:22:02Z</time>
      </trkpt>
      <trkpt lat="44.70266" lon="2.35256">
        <ele>520.691284</ele>
        <time>2012-05-18T08:23:12Z</time>
      </trkpt>
      <trkpt lat="44.70263" lon="2.35272">
        <ele>518.287842</ele>
        <time>2012-05-18T08:25:47Z</time>
      </trkpt>
      <trkpt lat="44.70262" lon="2.35308">
        <ele>517.807251</ele>
        <time>2012-05-18T08:26:03Z</time>
      </trkpt>
      <trkpt lat="44.70264" lon="2.35321">
        <ele>518.287842</ele>
        <time>2012-05-18T08:26:14Z</time>
      </trkpt>
      <trkpt lat="44.70265" lon="2.35325">
        <ele>514.442627</ele>
        <time>2012-05-18T08:26:35Z</time>
      </trkpt>
      <trkpt lat="44.70271" lon="2.35328">
        <ele>514.92334</ele>
        <time>2012-05-18T08:26:54Z</time>
      </trkpt>
      <trkpt lat="44.70272" lon="2.35334">
        <ele>515.404053</ele>
        <time>2012-05-18T08:27:02Z</time>
      </trkpt>
      <trkpt lat="44.70276" lon="2.35351">
        <ele>516.845947</ele>
        <time>2012-05-18T08:27:14Z</time>
      </trkpt>
      <trkpt lat="44.70278" lon="2.35364">
        <ele>519.729858</ele>
        <time>2012-05-18T08:27:22Z</time>
      </trkpt>
      <trkpt lat="44.70283" lon="2.3537">
        <ele>520.210571</ele>
        <time>2012-05-18T08:27:27Z</time>
      </trkpt>
      <trkpt lat="44.70278" lon="2.35385">
        <ele>520.691284</ele>
        <time>2012-05-18T08:27:39Z</time>
      </trkpt>
      <trkpt lat="44.70278" lon="2.35388">
        <ele>518.768555</ele>
        <time>2012-05-18T08:27:51Z</time>
      </trkpt>
      <trkpt lat="44.70281" lon="2.3539">
        <ele>521.652588</ele>
        <time>2012-05-18T08:28:23Z</time>
      </trkpt>
      <trkpt lat="44.70279" lon="2.35394">
        <ele>519.249268</ele>
        <time>2012-05-18T08:28:33Z</time>
      </trkpt>
      <trkpt lat="44.70281" lon="2.35397">
        <ele>521.171997</ele>
        <time>2012-05-18T08:28:56Z</time>
      </trkpt>
      <trkpt lat="44.70283" lon="2.35409">
        <ele>525.017212</ele>
        <time>2012-05-18T08:29:52Z</time>
      </trkpt>
      <trkpt lat="44.70279" lon="2.35419">
        <ele>524.055786</ele>
        <time>2012-05-18T08:30:04Z</time>
      </trkpt>
      <trkpt lat="44.70277" lon="2.35456">
        <ele>524.055786</ele>
        <time>2012-05-18T08:30:18Z</time>
      </trkpt>
      <trkpt lat="44.70277" lon="2.35498">
        <ele>523.094604</ele>
        <time>2012-05-18T08:30:30Z</time>
      </trkpt>
      <trkpt lat="44.70274" lon="2.35556">
        <ele>522.613892</ele>
        <time>2012-05-18T08:30:47Z</time>
      </trkpt>
      <trkpt lat="44.70273" lon="2.35568">
        <ele>523.575195</ele>
        <time>2012-05-18T08:30:58Z</time>
      </trkpt>
      <trkpt lat="44.70274" lon="2.35568">
        <ele>523.575195</ele>
        <time>2012-05-18T08:31:01Z</time>
      </trkpt>
      <trkpt lat="44.70293" lon="2.35566">
        <ele>523.094604</ele>
        <time>2012-05-18T08:31:13Z</time>
      </trkpt>
      <trkpt lat="44.70292" lon="2.35571">
        <ele>522.133179</ele>
        <time>2012-05-18T08:31:33Z</time>
      </trkpt>
      <trkpt lat="44.70301" lon="2.35609">
        <ele>521.652588</ele>
        <time>2012-05-18T08:31:47Z</time>
      </trkpt>
      <trkpt lat="44.70311" lon="2.35661">
        <ele>521.652588</ele>
        <time>2012-05-18T08:32:01Z</time>
      </trkpt>
      <trkpt lat="44.70311" lon="2.35701">
        <ele>522.613892</ele>
        <time>2012-05-18T08:32:12Z</time>
      </trkpt>
      <trkpt lat="44.70329" lon="2.35744">
        <ele>522.133179</ele>
        <time>2012-05-18T08:32:25Z</time>
      </trkpt>
      <trkpt lat="44.70339" lon="2.35759">
        <ele>521.171997</ele>
        <time>2012-05-18T08:32:30Z</time>
      </trkpt>
      <trkpt lat="44.70328" lon="2.35791">
        <ele>521.171997</ele>
        <time>2012-05-18T08:32:41Z</time>
      </trkpt>
      <trkpt lat="44.70317" lon="2.35819">
        <ele>521.652588</ele>
        <time>2012-05-18T08:32:52Z</time>
      </trkpt>
      <trkpt lat="44.70312" lon="2.3585">
        <ele>523.094604</ele>
        <time>2012-05-18T08:33:02Z</time>
      </trkpt>
      <trkpt lat="44.70321" lon="2.35887">
        <ele>525.978394</ele>
        <time>2012-05-18T08:33:13Z</time>
      </trkpt>
      <trkpt lat="44.70325" lon="2.35924">
        <ele>528.862549</ele>
        <time>2012-05-18T08:33:23Z</time>
      </trkpt>
      <trkpt lat="44.70338" lon="2.35975">
        <ele>531.746338</ele>
        <time>2012-05-18T08:33:37Z</time>
      </trkpt>
      <trkpt lat="44.70341" lon="2.35997">
        <ele>533.188354</ele>
        <time>2012-05-18T08:33:43Z</time>
      </trkpt>
      <trkpt lat="44.70346" lon="2.36001">
        <ele>533.188354</ele>
        <time>2012-05-18T08:33:52Z</time>
      </trkpt>
      <trkpt lat="44.70349" lon="2.36">
        <ele>536.072388</ele>
        <time>2012-05-18T08:34:31Z</time>
      </trkpt>
      <trkpt lat="44.70351" lon="2.36">
        <ele>535.591553</ele>
        <time>2012-05-18T08:34:49Z</time>
      </trkpt>
      <trkpt lat="44.70351" lon="2.35999">
        <ele>534.149658</ele>
        <time>2012-05-18T08:35:47Z</time>
      </trkpt>
      <trkpt lat="44.70349" lon="2.35999">
        <ele>534.149658</ele>
        <time>2012-05-18T08:35:53Z</time>
      </trkpt>
      <trkpt lat="44.70344" lon="2.35994">
        <ele>533.668945</ele>
        <time>2012-05-18T08:36:00Z</time>
      </trkpt>
      <trkpt lat="44.70343" lon="2.35995">
        <ele>531.746338</ele>
        <time>2012-05-18T08:36:11Z</time>
      </trkpt>
      <trkpt lat="44.70344" lon="2.35995">
        <ele>533.188354</ele>
        <time>2012-05-18T08:36:58Z</time>
      </trkpt>
      <trkpt lat="44.70356" lon="2.35994">
        <ele>533.668945</ele>
        <time>2012-05-18T08:37:04Z</time>
      </trkpt>
      <trkpt lat="44.70389" lon="2.35974">
        <ele>535.110962</ele>
        <time>2012-05-18T08:37:17Z</time>
      </trkpt>
      <trkpt lat="44.70414" lon="2.35958">
        <ele>536.072388</ele>
        <time>2012-05-18T08:37:27Z</time>
      </trkpt>
      <trkpt lat="44.70448" lon="2.35945">
        <ele>536.072388</ele>
        <time>2012-05-18T08:37:38Z</time>
      </trkpt>
      <trkpt lat="44.70504" lon="2.35943">
        <ele>537.033691</ele>
        <time>2012-05-18T08:37:51Z</time>
      </trkpt>
      <trkpt lat="44.70555" lon="2.35953">
        <ele>537.994995</ele>
        <time>2012-05-18T08:38:03Z</time>
      </trkpt>
      <trkpt lat="44.70595" lon="2.35963">
        <ele>539.43689</ele>
        <time>2012-05-18T08:38:14Z</time>
      </trkpt>
      <trkpt lat="44.70617" lon="2.35968">
        <ele>540.398315</ele>
        <time>2012-05-18T08:38:21Z</time>
      </trkpt>
      <trkpt lat="44.70625" lon="2.35968">
        <ele>540.878906</ele>
        <time>2012-05-18T08:38:25Z</time>
      </trkpt>
      <trkpt lat="44.7066" lon="2.35976">
        <ele>543.762817</ele>
        <time>2012-05-18T08:38:39Z</time>
      </trkpt>
      <trkpt lat="44.70685" lon="2.35991">
        <ele>544.724243</ele>
        <time>2012-05-18T08:38:50Z</time>
      </trkpt>
      <trkpt lat="44.70703" lon="2.36008">
        <ele>545.685547</ele>
        <time>2012-05-18T08:39:00Z</time>
      </trkpt>
      <trkpt lat="44.70735" lon="2.36041">
        <ele>545.685547</ele>
        <time>2012-05-18T08:39:12Z</time>
      </trkpt>
      <trkpt lat="44.7078" lon="2.3608">
        <ele>546.16626</ele>
        <time>2012-05-18T08:39:28Z</time>
      </trkpt>
      <trkpt lat="44.70816" lon="2.36107">
        <ele>548.569336</ele>
        <time>2012-05-18T08:39:40Z</time>
      </trkpt>
      <trkpt lat="44.7087" lon="2.36148">
        <ele>553.375977</ele>
        <time>2012-05-18T08:39:58Z</time>
      </trkpt>
      <trkpt lat="44.70917" lon="2.36182">
        <ele>557.221436</ele>
        <time>2012-05-18T08:40:13Z</time>
      </trkpt>
      <trkpt lat="44.70954" lon="2.36204">
        <ele>560.105225</ele>
        <time>2012-05-18T08:40:25Z</time>
      </trkpt>
      <trkpt lat="44.71" lon="2.36222">
        <ele>561.547363</ele>
        <time>2012-05-18T08:40:39Z</time>
      </trkpt>
      <trkpt lat="44.71048" lon="2.36232">
        <ele>563.469971</ele>
        <time>2012-05-18T08:40:53Z</time>
      </trkpt>
      <trkpt lat="44.71078" lon="2.36226">
        <ele>564.911865</ele>
        <time>2012-05-18T08:41:05Z</time>
      </trkpt>
      <trkpt lat="44.71079" lon="2.36243">
        <ele>563.469971</ele>
        <time>2012-05-18T08:41:10Z</time>
      </trkpt>
      <trkpt lat="44.71081" lon="2.36243">
        <ele>562.508545</ele>
        <time>2012-05-18T08:41:15Z</time>
      </trkpt>
      <trkpt lat="44.7108" lon="2.36242">
        <ele>558.66333</ele>
        <time>2012-05-18T08:41:37Z</time>
      </trkpt>
      <trkpt lat="44.71084" lon="2.36233">
        <ele>558.182861</ele>
        <time>2012-05-18T08:41:41Z</time>
      </trkpt>
      <trkpt lat="44.71078" lon="2.3623">
        <ele>559.624756</ele>
        <time>2012-05-18T08:41:48Z</time>
      </trkpt>
      <trkpt lat="44.71076" lon="2.36243">
        <ele>569.237793</ele>
        <time>2012-05-18T08:43:13Z</time>
      </trkpt>
      <trkpt lat="44.71073" lon="2.36254">
        <ele>567.795654</ele>
        <time>2012-05-18T08:43:18Z</time>
      </trkpt>
      <trkpt lat="44.71052" lon="2.36301">
        <ele>567.315186</ele>
        <time>2012-05-18T08:43:31Z</time>
      </trkpt>
      <trkpt lat="44.71042" lon="2.36328">
        <ele>566.834473</ele>
        <time>2012-05-18T08:43:41Z</time>
      </trkpt>
      <trkpt lat="44.71038" lon="2.36334">
        <ele>566.35376</ele>
        <time>2012-05-18T08:43:54Z</time>
      </trkpt>
      <trkpt lat="44.71036" lon="2.36337">
        <ele>566.834473</ele>
        <time>2012-05-18T08:44:14Z</time>
      </trkpt>
      <trkpt lat="44.71026" lon="2.36354">
        <ele>566.35376</ele>
        <time>2012-05-18T08:45:53Z</time>
      </trkpt>
      <trkpt lat="44.71003" lon="2.36402">
        <ele>566.35376</ele>
        <time>2012-05-18T08:46:05Z</time>
      </trkpt>
      <trkpt lat="44.70975" lon="2.36432">
        <ele>567.315186</ele>
        <time>2012-05-18T08:46:17Z</time>
      </trkpt>
      <trkpt lat="44.70972" lon="2.36435">
        <ele>567.315186</ele>
        <time>2012-05-18T08:46:26Z</time>
      </trkpt>
      <trkpt lat="44.7097" lon="2.36435">
        <ele>567.315186</ele>
        <time>2012-05-18T08:46:27Z</time>
      </trkpt>
      <trkpt lat="44.70949" lon="2.36458">
        <ele>567.315186</ele>
        <time>2012-05-18T08:46:38Z</time>
      </trkpt>
      <trkpt lat="44.70926" lon="2.36476">
        <ele>567.315186</ele>
        <time>2012-05-18T08:46:51Z</time>
      </trkpt>
      <trkpt lat="44.70901" lon="2.36495">
        <ele>568.276367</ele>
        <time>2012-05-18T08:47:04Z</time>
      </trkpt>
      <trkpt lat="44.70866" lon="2.36518">
        <ele>568.276367</ele>
        <time>2012-05-18T08:47:18Z</time>
      </trkpt>
      <trkpt lat="44.7083" lon="2.36547">
        <ele>568.75708</ele>
        <time>2012-05-18T08:47:34Z</time>
      </trkpt>
      <trkpt lat="44.70793" lon="2.36566">
        <ele>569.718506</ele>
        <time>2012-05-18T08:47:51Z</time>
      </trkpt>
      <trkpt lat="44.70778" lon="2.36578">
        <ele>569.718506</ele>
        <time>2012-05-18T08:48:00Z</time>
      </trkpt>
      <trkpt lat="44.70749" lon="2.36602">
        <ele>569.718506</ele>
        <time>2012-05-18T08:48:15Z</time>
      </trkpt>
      <trkpt lat="44.70725" lon="2.36629">
        <ele>569.718506</ele>
        <time>2012-05-18T08:48:28Z</time>
      </trkpt>
      <trkpt lat="44.70703" lon="2.3666">
        <ele>569.718506</ele>
        <time>2012-05-18T08:48:40Z</time>
      </trkpt>
      <trkpt lat="44.70677" lon="2.36689">
        <ele>570.679688</ele>
        <time>2012-05-18T08:48:52Z</time>
      </trkpt>
      <trkpt lat="44.7066" lon="2.36717">
        <ele>570.198975</ele>
        <time>2012-05-18T08:49:02Z</time>
      </trkpt>
      <trkpt lat="44.70657" lon="2.36724">
        <ele>570.198975</ele>
        <time>2012-05-18T08:49:04Z</time>
      </trkpt>
      <trkpt lat="44.70661" lon="2.36761">
        <ele>570.679688</ele>
        <time>2012-05-18T08:49:15Z</time>
      </trkpt>
      <trkpt lat="44.70674" lon="2.36813">
        <ele>571.1604</ele>
        <time>2012-05-18T08:49:29Z</time>
      </trkpt>
      <trkpt lat="44.70687" lon="2.36854">
        <ele>571.1604</ele>
        <time>2012-05-18T08:49:42Z</time>
      </trkpt>
      <trkpt lat="44.70705" lon="2.36904">
        <ele>569.718506</ele>
        <time>2012-05-18T08:49:56Z</time>
      </trkpt>
      <trkpt lat="44.70725" lon="2.36946">
        <ele>568.75708</ele>
        <time>2012-05-18T08:50:06Z</time>
      </trkpt>
      <trkpt lat="44.70729" lon="2.37013">
        <ele>567.315186</ele>
        <time>2012-05-18T08:50:16Z</time>
      </trkpt>
      <trkpt lat="44.70728" lon="2.37024">
        <ele>566.834473</ele>
        <time>2012-05-18T08:50:18Z</time>
      </trkpt>
      <trkpt lat="44.70727" lon="2.37026">
        <ele>565.392578</ele>
        <time>2012-05-18T08:50:28Z</time>
      </trkpt>
      <trkpt lat="44.70718" lon="2.37041">
        <ele>563.469971</ele>
        <time>2012-05-18T08:50:54Z</time>
      </trkpt>
      <trkpt lat="44.70649" lon="2.37141">
        <ele>559.624756</ele>
        <time>2012-05-18T08:51:16Z</time>
      </trkpt>
      <trkpt lat="44.706" lon="2.37231">
        <ele>555.779297</ele>
        <time>2012-05-18T08:51:28Z</time>
      </trkpt>
      <trkpt lat="44.70543" lon="2.37299">
        <ele>552.895264</ele>
        <time>2012-05-18T08:51:40Z</time>
      </trkpt>
      <trkpt lat="44.70486" lon="2.37351">
        <ele>549.050049</ele>
        <time>2012-05-18T08:51:53Z</time>
      </trkpt>
      <trkpt lat="44.70444" lon="2.37373">
        <ele>546.646851</ele>
        <time>2012-05-18T08:52:01Z</time>
      </trkpt>
      <trkpt lat="44.70423" lon="2.37381">
        <ele>544.243652</ele>
        <time>2012-05-18T08:52:07Z</time>
      </trkpt>
      <trkpt lat="44.70427" lon="2.374">
        <ele>542.801514</ele>
        <time>2012-05-18T08:52:11Z</time>
      </trkpt>
      <trkpt lat="44.7045" lon="2.37429">
        <ele>540.398315</ele>
        <time>2012-05-18T08:52:16Z</time>
      </trkpt>
      <trkpt lat="44.70466" lon="2.37466">
        <ele>538.956299</ele>
        <time>2012-05-18T08:52:20Z</time>
      </trkpt>
      <trkpt lat="44.70481" lon="2.37552">
        <ele>539.43689</ele>
        <time>2012-05-18T08:52:30Z</time>
      </trkpt>
      <trkpt lat="44.70492" lon="2.37597">
        <ele>540.398315</ele>
        <time>2012-05-18T08:52:40Z</time>
      </trkpt>
      <trkpt lat="44.705" lon="2.37617">
        <ele>539.917603</ele>
        <time>2012-05-18T08:52:50Z</time>
      </trkpt>
      <trkpt lat="44.705" lon="2.37619">
        <ele>540.398315</ele>
        <time>2012-05-18T08:52:54Z</time>
      </trkpt>
      <trkpt lat="44.70512" lon="2.37622">
        <ele>538.956299</ele>
        <time>2012-05-18T08:53:02Z</time>
      </trkpt>
      <trkpt lat="44.70517" lon="2.37626">
        <ele>539.43689</ele>
        <time>2012-05-18T08:53:05Z</time>
      </trkpt>
      <trkpt lat="44.70526" lon="2.37633">
        <ele>539.43689</ele>
        <time>2012-05-18T08:53:08Z</time>
      </trkpt>
      <trkpt lat="44.70564" lon="2.37655">
        <ele>540.878906</ele>
        <time>2012-05-18T08:53:20Z</time>
      </trkpt>
      <trkpt lat="44.70594" lon="2.37656">
        <ele>541.359497</ele>
        <time>2012-05-18T08:53:31Z</time>
      </trkpt>
      <trkpt lat="44.70623" lon="2.37643">
        <ele>540.398315</ele>
        <time>2012-05-18T08:53:44Z</time>
      </trkpt>
      <trkpt lat="44.70641" lon="2.37633">
        <ele>539.917603</ele>
        <time>2012-05-18T08:53:53Z</time>
      </trkpt>
      <trkpt lat="44.70675" lon="2.37629">
        <ele>538.956299</ele>
        <time>2012-05-18T08:54:04Z</time>
      </trkpt>
      <trkpt lat="44.70699" lon="2.3762">
        <ele>537.033691</ele>
        <time>2012-05-18T08:54:14Z</time>
      </trkpt>
      <trkpt lat="44.70717" lon="2.37617">
        <ele>535.110962</ele>
        <time>2012-05-18T08:54:22Z</time>
      </trkpt>
      <trkpt lat="44.70718" lon="2.37618">
        <ele>535.591553</ele>
        <time>2012-05-18T08:54:27Z</time>
      </trkpt>
      <trkpt lat="44.7074" lon="2.37645">
        <ele>533.668945</ele>
        <time>2012-05-18T08:54:36Z</time>
      </trkpt>
      <trkpt lat="44.70766" lon="2.37687">
        <ele>531.746338</ele>
        <time>2012-05-18T08:54:46Z</time>
      </trkpt>
      <trkpt lat="44.70835" lon="2.37773">
        <ele>526.459106</ele>
        <time>2012-05-18T08:55:12Z</time>
      </trkpt>
      <trkpt lat="44.70873" lon="2.37789">
        <ele>525.978394</ele>
        <time>2012-05-18T08:55:26Z</time>
      </trkpt>
      <trkpt lat="44.70909" lon="2.37786">
        <ele>524.055786</ele>
        <time>2012-05-18T08:55:39Z</time>
      </trkpt>
      <trkpt lat="44.7093" lon="2.37746">
        <ele>523.575195</ele>
        <time>2012-05-18T08:55:53Z</time>
      </trkpt>
      <trkpt lat="44.70947" lon="2.37719">
        <ele>521.652588</ele>
        <time>2012-05-18T08:56:03Z</time>
      </trkpt>
      <trkpt lat="44.7095" lon="2.37717">
        <ele>521.171997</ele>
        <time>2012-05-18T08:56:04Z</time>
      </trkpt>
      <trkpt lat="44.70964" lon="2.37722">
        <ele>521.171997</ele>
        <time>2012-05-18T08:56:13Z</time>
      </trkpt>
      <trkpt lat="44.70966" lon="2.3772">
        <ele>522.133179</ele>
        <time>2012-05-18T08:56:26Z</time>
      </trkpt>
      <trkpt lat="44.70975" lon="2.37741">
        <ele>523.094604</ele>
        <time>2012-05-18T08:56:36Z</time>
      </trkpt>
      <trkpt lat="44.70975" lon="2.37744">
        <ele>523.094604</ele>
        <time>2012-05-18T08:56:37Z</time>
      </trkpt>
      <trkpt lat="44.70978" lon="2.37773">
        <ele>524.055786</ele>
        <time>2012-05-18T08:56:49Z</time>
      </trkpt>
      <trkpt lat="44.70982" lon="2.37807">
        <ele>524.055786</ele>
        <time>2012-05-18T08:57:00Z</time>
      </trkpt>
      <trkpt lat="44.70985" lon="2.37858">
        <ele>525.017212</ele>
        <time>2012-05-18T08:57:15Z</time>
      </trkpt>
      <trkpt lat="44.70987" lon="2.37901">
        <ele>525.497803</ele>
        <time>2012-05-18T08:57:29Z</time>
      </trkpt>
      <trkpt lat="44.7099" lon="2.3794">
        <ele>525.017212</ele>
        <time>2012-05-18T08:57:42Z</time>
      </trkpt>
      <trkpt lat="44.71002" lon="2.37985">
        <ele>525.978394</ele>
        <time>2012-05-18T08:57:55Z</time>
      </trkpt>
      <trkpt lat="44.71069" lon="2.38079">
        <ele>527.901001</ele>
        <time>2012-05-18T08:58:24Z</time>
      </trkpt>
      <trkpt lat="44.711" lon="2.3812">
        <ele>527.42041</ele>
        <time>2012-05-18T08:58:40Z</time>
      </trkpt>
      <trkpt lat="44.71124" lon="2.38128">
        <ele>526.939819</ele>
        <time>2012-05-18T08:58:53Z</time>
      </trkpt>
      <trkpt lat="44.71141" lon="2.38136">
        <ele>523.575195</ele>
        <time>2012-05-18T08:59:04Z</time>
      </trkpt>
      <trkpt lat="44.71173" lon="2.3814">
        <ele>522.613892</ele>
        <time>2012-05-18T08:59:19Z</time>
      </trkpt>
      <trkpt lat="44.71178" lon="2.38174">
        <ele>523.575195</ele>
        <time>2012-05-18T08:59:28Z</time>
      </trkpt>
      <trkpt lat="44.7116" lon="2.38216">
        <ele>522.613892</ele>
        <time>2012-05-18T08:59:38Z</time>
      </trkpt>
      <trkpt lat="44.71143" lon="2.38246">
        <ele>522.133179</ele>
        <time>2012-05-18T08:59:48Z</time>
      </trkpt>
      <trkpt lat="44.71126" lon="2.38313">
        <ele>522.613892</ele>
        <time>2012-05-18T09:00:04Z</time>
      </trkpt>
      <trkpt lat="44.71122" lon="2.38335">
        <ele>523.575195</ele>
        <time>2012-05-18T09:00:09Z</time>
      </trkpt>
      <trkpt lat="44.71128" lon="2.3834">
        <ele>524.536499</ele>
        <time>2012-05-18T09:00:13Z</time>
      </trkpt>
      <trkpt lat="44.71136" lon="2.38345">
        <ele>524.536499</ele>
        <time>2012-05-18T09:00:19Z</time>
      </trkpt>
      <trkpt lat="44.71135" lon="2.3836">
        <ele>523.575195</ele>
        <time>2012-05-18T09:00:26Z</time>
      </trkpt>
      <trkpt lat="44.7114" lon="2.3836">
        <ele>523.575195</ele>
        <time>2012-05-18T09:00:34Z</time>
      </trkpt>
      <trkpt lat="44.71143" lon="2.38359">
        <ele>522.613892</ele>
        <time>2012-05-18T09:03:16Z</time>
      </trkpt>
      <trkpt lat="44.71159" lon="2.38361">
        <ele>523.094604</ele>
        <time>2012-05-18T09:03:25Z</time>
      </trkpt>
      <trkpt lat="44.71196" lon="2.38368">
        <ele>523.575195</ele>
        <time>2012-05-18T09:03:39Z</time>
      </trkpt>
      <trkpt lat="44.71249" lon="2.3836">
        <ele>524.536499</ele>
        <time>2012-05-18T09:03:55Z</time>
      </trkpt>
      <trkpt lat="44.7129" lon="2.38347">
        <ele>525.017212</ele>
        <time>2012-05-18T09:04:06Z</time>
      </trkpt>
      <trkpt lat="44.71336" lon="2.38333">
        <ele>525.978394</ele>
        <time>2012-05-18T09:04:18Z</time>
      </trkpt>
      <trkpt lat="44.7139" lon="2.38317">
        <ele>525.978394</ele>
        <time>2012-05-18T09:04:31Z</time>
      </trkpt>
      <trkpt lat="44.71471" lon="2.3831">
        <ele>525.017212</ele>
        <time>2012-05-18T09:04:47Z</time>
      </trkpt>
      <trkpt lat="44.71516" lon="2.38324">
        <ele>525.978394</ele>
        <time>2012-05-18T09:04:56Z</time>
      </trkpt>
      <trkpt lat="44.71575" lon="2.38363">
        <ele>527.901001</ele>
        <time>2012-05-18T09:05:10Z</time>
      </trkpt>
      <trkpt lat="44.71628" lon="2.3839">
        <ele>530.304443</ele>
        <time>2012-05-18T09:05:25Z</time>
      </trkpt>
      <trkpt lat="44.71668" lon="2.38398">
        <ele>531.746338</ele>
        <time>2012-05-18T09:05:39Z</time>
      </trkpt>
      <trkpt lat="44.71708" lon="2.38405">
        <ele>533.188354</ele>
        <time>2012-05-18T09:05:54Z</time>
      </trkpt>
      <trkpt lat="44.7175" lon="2.38412">
        <ele>533.668945</ele>
        <time>2012-05-18T09:06:09Z</time>
      </trkpt>
      <trkpt lat="44.71808" lon="2.38427">
        <ele>535.110962</ele>
        <time>2012-05-18T09:06:28Z</time>
      </trkpt>
      <trkpt lat="44.71844" lon="2.38447">
        <ele>537.033691</ele>
        <time>2012-05-18T09:06:41Z</time>
      </trkpt>
      <trkpt lat="44.71866" lon="2.38457">
        <ele>537.033691</ele>
        <time>2012-05-18T09:06:50Z</time>
      </trkpt>
      <trkpt lat="44.7191" lon="2.3849">
        <ele>540.398315</ele>
        <time>2012-05-18T09:07:06Z</time>
      </trkpt>
      <trkpt lat="44.71952" lon="2.38526">
        <ele>542.320923</ele>
        <time>2012-05-18T09:07:25Z</time>
      </trkpt>
      <trkpt lat="44.7199" lon="2.38558">
        <ele>544.243652</ele>
        <time>2012-05-18T09:07:43Z</time>
      </trkpt>
      <trkpt lat="44.72033" lon="2.38593">
        <ele>547.127441</ele>
        <time>2012-05-18T09:08:01Z</time>
      </trkpt>
      <trkpt lat="44.72068" lon="2.38621">
        <ele>548.569336</ele>
        <time>2012-05-18T09:08:13Z</time>
      </trkpt>
      <trkpt lat="44.72109" lon="2.38652">
        <ele>550.492188</ele>
        <time>2012-05-18T09:08:27Z</time>
      </trkpt>
      <trkpt lat="44.72129" lon="2.38668">
        <ele>550.972656</ele>
        <time>2012-05-18T09:08:34Z</time>
      </trkpt>
      <trkpt lat="44.7212" lon="2.38681">
        <ele>550.972656</ele>
        <time>2012-05-18T09:08:39Z</time>
      </trkpt>
      <trkpt lat="44.72097" lon="2.38683">
        <ele>550.492188</ele>
        <time>2012-05-18T09:08:50Z</time>
      </trkpt>
      <trkpt lat="44.72097" lon="2.38683">
        <ele>548.569336</ele>
        <time>2012-05-18T09:09:02Z</time>
      </trkpt>
      <trkpt lat="44.72093" lon="2.38679">
        <ele>545.685547</ele>
        <time>2012-05-18T09:09:54Z</time>
      </trkpt>
      <trkpt lat="44.7208" lon="2.38677">
        <ele>546.16626</ele>
        <time>2012-05-18T09:09:59Z</time>
      </trkpt>
      <trkpt lat="44.72011" lon="2.38675">
        <ele>547.127441</ele>
        <time>2012-05-18T09:10:16Z</time>
      </trkpt>
      <trkpt lat="44.71984" lon="2.38688">
        <ele>548.088867</ele>
        <time>2012-05-18T09:10:22Z</time>
      </trkpt>
      <trkpt lat="44.71948" lon="2.38724">
        <ele>547.127441</ele>
        <time>2012-05-18T09:10:31Z</time>
      </trkpt>
      <trkpt lat="44.71928" lon="2.38756">
        <ele>547.127441</ele>
        <time>2012-05-18T09:10:36Z</time>
      </trkpt>
      <trkpt lat="44.7192" lon="2.38783">
        <ele>547.127441</ele>
        <time>2012-05-18T09:10:39Z</time>
      </trkpt>
      <trkpt lat="44.7193" lon="2.38848">
        <ele>546.16626</ele>
        <time>2012-05-18T09:10:46Z</time>
      </trkpt>
      <trkpt lat="44.71944" lon="2.38871">
        <ele>545.685547</ele>
        <time>2012-05-18T09:10:49Z</time>
      </trkpt>
      <trkpt lat="44.71949" lon="2.38891">
        <ele>545.204834</ele>
        <time>2012-05-18T09:10:51Z</time>
      </trkpt>
      <trkpt lat="44.7196" lon="2.38938">
        <ele>544.243652</ele>
        <time>2012-05-18T09:10:56Z</time>
      </trkpt>
      <trkpt lat="44.71969" lon="2.38965">
        <ele>542.801514</ele>
        <time>2012-05-18T09:10:59Z</time>
      </trkpt>
      <trkpt lat="44.71972" lon="2.3899">
        <ele>541.359497</ele>
        <time>2012-05-18T09:11:03Z</time>
      </trkpt>
      <trkpt lat="44.71988" lon="2.3901">
        <ele>538.956299</ele>
        <time>2012-05-18T09:11:08Z</time>
      </trkpt>
      <trkpt lat="44.72013" lon="2.39032">
        <ele>536.553101</ele>
        <time>2012-05-18T09:11:14Z</time>
      </trkpt>
      <trkpt lat="44.72018" lon="2.39038">
        <ele>536.553101</ele>
        <time>2012-05-18T09:11:16Z</time>
      </trkpt>
      <trkpt lat="44.72016" lon="2.39052">
        <ele>535.110962</ele>
        <time>2012-05-18T09:11:21Z</time>
      </trkpt>
      <trkpt lat="44.71974" lon="2.39121">
        <ele>527.42041</ele>
        <time>2012-05-18T09:11:44Z</time>
      </trkpt>
      <trkpt lat="44.71936" lon="2.39183">
        <ele>524.536499</ele>
        <time>2012-05-18T09:11:54Z</time>
      </trkpt>
      <trkpt lat="44.71867" lon="2.3943">
        <ele>516.365234</ele>
        <time>2012-05-18T09:12:29Z</time>
      </trkpt>
      <trkpt lat="44.71868" lon="2.39431">
        <ele>515.884644</ele>
        <time>2012-05-18T09:12:30Z</time>
      </trkpt>
      <trkpt lat="44.71865" lon="2.39435">
        <ele>513.481445</ele>
        <time>2012-05-18T09:12:38Z</time>
      </trkpt>
      <trkpt lat="44.71862" lon="2.39442">
        <ele>507.232788</ele>
        <time>2012-05-18T09:12:55Z</time>
      </trkpt>
      <trkpt lat="44.71865" lon="2.39453">
        <ele>502.426147</ele>
        <time>2012-05-18T09:13:33Z</time>
      </trkpt>
      <trkpt lat="44.71855" lon="2.3947">
        <ele>503.868164</ele>
        <time>2012-05-18T09:13:45Z</time>
      </trkpt>
      <trkpt lat="44.71848" lon="2.39518">
        <ele>508.194092</ele>
        <time>2012-05-18T09:14:17Z</time>
      </trkpt>
      <trkpt lat="44.71843" lon="2.39542">
        <ele>508.674683</ele>
        <time>2012-05-18T09:14:31Z</time>
      </trkpt>
      <trkpt lat="44.71843" lon="2.39543">
        <ele>509.155396</ele>
        <time>2012-05-18T09:14:32Z</time>
      </trkpt>
      <trkpt lat="44.71837" lon="2.39554">
        <ele>508.674683</ele>
        <time>2012-05-18T09:14:36Z</time>
      </trkpt>
      <trkpt lat="44.71831" lon="2.3958">
        <ele>510.59729</ele>
        <time>2012-05-18T09:14:50Z</time>
      </trkpt>
      <trkpt lat="44.71819" lon="2.39607">
        <ele>509.636108</ele>
        <time>2012-05-18T09:15:07Z</time>
      </trkpt>
      <trkpt lat="44.71809" lon="2.39638">
        <ele>512.52002</ele>
        <time>2012-05-18T09:15:25Z</time>
      </trkpt>
      <trkpt lat="44.71798" lon="2.39673">
        <ele>514.442627</ele>
        <time>2012-05-18T09:15:48Z</time>
      </trkpt>
      <trkpt lat="44.71797" lon="2.39705">
        <ele>517.32666</ele>
        <time>2012-05-18T09:16:00Z</time>
      </trkpt>
      <trkpt lat="44.71796" lon="2.39709">
        <ele>517.807251</ele>
        <time>2012-05-18T09:16:02Z</time>
      </trkpt>
      <trkpt lat="44.71784" lon="2.39731">
        <ele>520.691284</ele>
        <time>2012-05-18T09:16:14Z</time>
      </trkpt>
      <trkpt lat="44.71782" lon="2.39736">
        <ele>523.575195</ele>
        <time>2012-05-18T09:16:25Z</time>
      </trkpt>
      <trkpt lat="44.71772" lon="2.3975">
        <ele>525.978394</ele>
        <time>2012-05-18T09:16:46Z</time>
      </trkpt>
      <trkpt lat="44.71755" lon="2.39762">
        <ele>526.939819</ele>
        <time>2012-05-18T09:16:59Z</time>
      </trkpt>
      <trkpt lat="44.71728" lon="2.3977">
        <ele>530.304443</ele>
        <time>2012-05-18T09:17:16Z</time>
      </trkpt>
      <trkpt lat="44.71703" lon="2.3978">
        <ele>534.149658</ele>
        <time>2012-05-18T09:17:29Z</time>
      </trkpt>
      <trkpt lat="44.71688" lon="2.39796">
        <ele>536.072388</ele>
        <time>2012-05-18T09:17:38Z</time>
      </trkpt>
      <trkpt lat="44.71698" lon="2.39815">
        <ele>537.994995</ele>
        <time>2012-05-18T09:17:47Z</time>
      </trkpt>
      <trkpt lat="44.7171" lon="2.39828">
        <ele>539.917603</ele>
        <time>2012-05-18T09:17:57Z</time>
      </trkpt>
      <trkpt lat="44.71725" lon="2.39854">
        <ele>542.801514</ele>
        <time>2012-05-18T09:18:13Z</time>
      </trkpt>
      <trkpt lat="44.71731" lon="2.39875">
        <ele>545.204834</ele>
        <time>2012-05-18T09:18:24Z</time>
      </trkpt>
      <trkpt lat="44.71722" lon="2.39899">
        <ele>548.088867</ele>
        <time>2012-05-18T09:18:37Z</time>
      </trkpt>
      <trkpt lat="44.71721" lon="2.399">
        <ele>548.569336</ele>
        <time>2012-05-18T09:18:51Z</time>
      </trkpt>
      <trkpt lat="44.71721" lon="2.39901">
        <ele>553.375977</ele>
        <time>2012-05-18T09:24:02Z</time>
      </trkpt>
      <trkpt lat="44.71717" lon="2.39913">
        <ele>553.375977</ele>
        <time>2012-05-18T09:24:09Z</time>
      </trkpt>
      <trkpt lat="44.71716" lon="2.39922">
        <ele>553.375977</ele>
        <time>2012-05-18T09:24:11Z</time>
      </trkpt>
      <trkpt lat="44.71691" lon="2.3996">
        <ele>550.972656</ele>
        <time>2012-05-18T09:24:18Z</time>
      </trkpt>
      <trkpt lat="44.71677" lon="2.39964">
        <ele>550.011475</ele>
        <time>2012-05-18T09:24:20Z</time>
      </trkpt>
      <trkpt lat="44.71662" lon="2.39965">
        <ele>549.530762</ele>
        <time>2012-05-18T09:24:22Z</time>
      </trkpt>
      <trkpt lat="44.71641" lon="2.39972">
        <ele>548.569336</ele>
        <time>2012-05-18T09:24:25Z</time>
      </trkpt>
      <trkpt lat="44.71617" lon="2.40003">
        <ele>550.011475</ele>
        <time>2012-05-18T09:24:31Z</time>
      </trkpt>
      <trkpt lat="44.71596" lon="2.4004">
        <ele>553.375977</ele>
        <time>2012-05-18T09:24:50Z</time>
      </trkpt>
      <trkpt lat="44.71451" lon="2.40086">
        <ele>558.66333</ele>
        <time>2012-05-18T09:25:56Z</time>
      </trkpt>
      <trkpt lat="44.71381" lon="2.40081">
        <ele>562.508545</ele>
        <time>2012-05-18T09:26:28Z</time>
      </trkpt>
      <trkpt lat="44.7134" lon="2.40083">
        <ele>564.431152</ele>
        <time>2012-05-18T09:26:43Z</time>
      </trkpt>
      <trkpt lat="44.71312" lon="2.40072">
        <ele>565.873291</ele>
        <time>2012-05-18T09:26:57Z</time>
      </trkpt>
      <trkpt lat="44.7129" lon="2.40071">
        <ele>567.315186</ele>
        <time>2012-05-18T09:27:08Z</time>
      </trkpt>
      <trkpt lat="44.71267" lon="2.40088">
        <ele>567.795654</ele>
        <time>2012-05-18T09:27:24Z</time>
      </trkpt>
      <trkpt lat="44.71251" lon="2.40104">
        <ele>569.237793</ele>
        <time>2012-05-18T09:27:40Z</time>
      </trkpt>
      <trkpt lat="44.71248" lon="2.40107">
        <ele>569.237793</ele>
        <time>2012-05-18T09:27:43Z</time>
      </trkpt>
      <trkpt lat="44.71244" lon="2.40113">
        <ele>569.718506</ele>
        <time>2012-05-18T09:27:47Z</time>
      </trkpt>
      <trkpt lat="44.71228" lon="2.40131">
        <ele>570.679688</ele>
        <time>2012-05-18T09:28:02Z</time>
      </trkpt>
      <trkpt lat="44.71223" lon="2.40137">
        <ele>571.1604</ele>
        <time>2012-05-18T09:28:07Z</time>
      </trkpt>
      <trkpt lat="44.7121" lon="2.40155">
        <ele>572.121826</ele>
        <time>2012-05-18T09:28:21Z</time>
      </trkpt>
      <trkpt lat="44.71194" lon="2.40179">
        <ele>574.525146</ele>
        <time>2012-05-18T09:28:35Z</time>
      </trkpt>
      <trkpt lat="44.71182" lon="2.40208">
        <ele>576.447754</ele>
        <time>2012-05-18T09:28:50Z</time>
      </trkpt>
      <trkpt lat="44.71181" lon="2.40212">
        <ele>576.928467</ele>
        <time>2012-05-18T09:29:01Z</time>
      </trkpt>
      <trkpt lat="44.71179" lon="2.40218">
        <ele>577.889648</ele>
        <time>2012-05-18T09:29:35Z</time>
      </trkpt>
      <trkpt lat="44.71182" lon="2.4022">
        <ele>578.370361</ele>
        <time>2012-05-18T09:30:21Z</time>
      </trkpt>
      <trkpt lat="44.71198" lon="2.40208">
        <ele>580.292969</ele>
        <time>2012-05-18T09:30:34Z</time>
      </trkpt>
      <trkpt lat="44.71226" lon="2.40199">
        <ele>583.657471</ele>
        <time>2012-05-18T09:30:52Z</time>
      </trkpt>
      <trkpt lat="44.71254" lon="2.40188">
        <ele>585.099609</ele>
        <time>2012-05-18T09:31:06Z</time>
      </trkpt>
      <trkpt lat="44.71281" lon="2.40179">
        <ele>588.464355</ele>
        <time>2012-05-18T09:31:19Z</time>
      </trkpt>
      <trkpt lat="44.71309" lon="2.40175">
        <ele>590.867432</ele>
        <time>2012-05-18T09:31:35Z</time>
      </trkpt>
      <trkpt lat="44.71321" lon="2.40182">
        <ele>592.30957</ele>
        <time>2012-05-18T09:31:42Z</time>
      </trkpt>
      <trkpt lat="44.71336" lon="2.40189">
        <ele>594.712646</ele>
        <time>2012-05-18T09:31:54Z</time>
      </trkpt>
      <trkpt lat="44.71361" lon="2.40202">
        <ele>595.674072</ele>
        <time>2012-05-18T09:32:09Z</time>
      </trkpt>
      <trkpt lat="44.71366" lon="2.40209">
        <ele>596.635498</ele>
        <time>2012-05-18T09:32:14Z</time>
      </trkpt>
      <trkpt lat="44.71387" lon="2.40234">
        <ele>599.038574</ele>
        <time>2012-05-18T09:32:30Z</time>
      </trkpt>
      <trkpt lat="44.71404" lon="2.40258">
        <ele>601.441895</ele>
        <time>2012-05-18T09:32:44Z</time>
      </trkpt>
      <trkpt lat="44.7142" lon="2.40293">
        <ele>603.364502</ele>
        <time>2012-05-18T09:33:01Z</time>
      </trkpt>
      <trkpt lat="44.71429" lon="2.40319">
        <ele>602.403076</ele>
        <time>2012-05-18T09:33:18Z</time>
      </trkpt>
      <trkpt lat="44.71434" lon="2.40343">
        <ele>607.209961</ele>
        <time>2012-05-18T09:33:51Z</time>
      </trkpt>
      <trkpt lat="44.71436" lon="2.4036">
        <ele>610.574463</ele>
        <time>2012-05-18T09:34:03Z</time>
      </trkpt>
      <trkpt lat="44.71433" lon="2.40374">
        <ele>613.938965</ele>
        <time>2012-05-18T09:34:15Z</time>
      </trkpt>
      <trkpt lat="44.71433" lon="2.40377">
        <ele>615.861816</ele>
        <time>2012-05-18T09:34:33Z</time>
      </trkpt>
      <trkpt lat="44.71434" lon="2.40386">
        <ele>617.303711</ele>
        <time>2012-05-18T09:34:50Z</time>
      </trkpt>
      <trkpt lat="44.7144" lon="2.40408">
        <ele>619.707031</ele>
        <time>2012-05-18T09:35:02Z</time>
      </trkpt>
      <trkpt lat="44.71442" lon="2.4041">
        <ele>619.707031</ele>
        <time>2012-05-18T09:35:04Z</time>
      </trkpt>
      <trkpt lat="44.71466" lon="2.40426">
        <ele>621.629639</ele>
        <time>2012-05-18T09:35:22Z</time>
      </trkpt>
      <trkpt lat="44.71488" lon="2.40437">
        <ele>623.55249</ele>
        <time>2012-05-18T09:35:37Z</time>
      </trkpt>
      <trkpt lat="44.71511" lon="2.40444">
        <ele>625.955566</ele>
        <time>2012-05-18T09:35:52Z</time>
      </trkpt>
      <trkpt lat="44.71529" lon="2.40454">
        <ele>627.878174</ele>
        <time>2012-05-18T09:36:04Z</time>
      </trkpt>
      <trkpt lat="44.71545" lon="2.40472">
        <ele>628.8396</ele>
        <time>2012-05-18T09:36:19Z</time>
      </trkpt>
      <trkpt lat="44.71553" lon="2.40488">
        <ele>630.762207</ele>
        <time>2012-05-18T09:36:29Z</time>
      </trkpt>
      <trkpt lat="44.71567" lon="2.40513">
        <ele>635.088135</ele>
        <time>2012-05-18T09:36:45Z</time>
      </trkpt>
      <trkpt lat="44.71584" lon="2.40521">
        <ele>637.491455</ele>
        <time>2012-05-18T09:36:58Z</time>
      </trkpt>
      <trkpt lat="44.71605" lon="2.40527">
        <ele>640.855957</ele>
        <time>2012-05-18T09:37:13Z</time>
      </trkpt>
      <trkpt lat="44.71619" lon="2.40532">
        <ele>642.778809</ele>
        <time>2012-05-18T09:37:24Z</time>
      </trkpt>
      <trkpt lat="44.71634" lon="2.40539">
        <ele>644.220703</ele>
        <time>2012-05-18T09:37:36Z</time>
      </trkpt>
      <trkpt lat="44.71653" lon="2.40556">
        <ele>645.662598</ele>
        <time>2012-05-18T09:37:50Z</time>
      </trkpt>
      <trkpt lat="44.71668" lon="2.40574">
        <ele>648.065918</ele>
        <time>2012-05-18T09:38:02Z</time>
      </trkpt>
      <trkpt lat="44.71686" lon="2.40591">
        <ele>650.469238</ele>
        <time>2012-05-18T09:38:15Z</time>
      </trkpt>
      <trkpt lat="44.71705" lon="2.4061">
        <ele>652.872559</ele>
        <time>2012-05-18T09:38:29Z</time>
      </trkpt>
      <trkpt lat="44.71727" lon="2.40627">
        <ele>654.314697</ele>
        <time>2012-05-18T09:38:44Z</time>
      </trkpt>
      <trkpt lat="44.71746" lon="2.40645">
        <ele>657.198486</ele>
        <time>2012-05-18T09:38:57Z</time>
      </trkpt>
      <trkpt lat="44.71815" lon="2.40711">
        <ele>657.679199</ele>
        <time>2012-05-18T09:39:49Z</time>
      </trkpt>
      <trkpt lat="44.71814" lon="2.40715">
        <ele>663.447021</ele>
        <time>2012-05-18T09:40:36Z</time>
      </trkpt>
      <trkpt lat="44.71818" lon="2.40718">
        <ele>664.408203</ele>
        <time>2012-05-18T09:46:33Z</time>
      </trkpt>
      <trkpt lat="44.71831" lon="2.40735">
        <ele>663.92749</ele>
        <time>2012-05-18T09:46:44Z</time>
      </trkpt>
      <trkpt lat="44.7186" lon="2.40757">
        <ele>663.92749</ele>
        <time>2012-05-18T09:46:57Z</time>
      </trkpt>
      <trkpt lat="44.71896" lon="2.40778">
        <ele>662.966309</ele>
        <time>2012-05-18T09:47:11Z</time>
      </trkpt>
      <trkpt lat="44.71918" lon="2.40793">
        <ele>662.485596</ele>
        <time>2012-05-18T09:47:19Z</time>
      </trkpt>
      <trkpt lat="44.71948" lon="2.40823">
        <ele>659.601807</ele>
        <time>2012-05-18T09:47:30Z</time>
      </trkpt>
      <trkpt lat="44.7196" lon="2.4083">
        <ele>659.601807</ele>
        <time>2012-05-18T09:47:33Z</time>
      </trkpt>
      <trkpt lat="44.72027" lon="2.40838">
        <ele>656.717773</ele>
        <time>2012-05-18T09:47:44Z</time>
      </trkpt>
      <trkpt lat="44.72069" lon="2.40845">
        <ele>656.237061</ele>
        <time>2012-05-18T09:47:54Z</time>
      </trkpt>
      <trkpt lat="44.72094" lon="2.40847">
        <ele>656.237061</ele>
        <time>2012-05-18T09:48:03Z</time>
      </trkpt>
      <trkpt lat="44.72125" lon="2.40844">
        <ele>656.717773</ele>
        <time>2012-05-18T09:48:14Z</time>
      </trkpt>
      <trkpt lat="44.72132" lon="2.40848">
        <ele>656.717773</ele>
        <time>2012-05-18T09:48:18Z</time>
      </trkpt>
      <trkpt lat="44.72133" lon="2.40848">
        <ele>655.756592</ele>
        <time>2012-05-18T09:48:31Z</time>
      </trkpt>
      <trkpt lat="44.72136" lon="2.40848">
        <ele>654.314697</ele>
        <time>2012-05-18T09:48:49Z</time>
      </trkpt>
      <trkpt lat="44.72158" lon="2.40842">
        <ele>654.314697</ele>
        <time>2012-05-18T09:49:02Z</time>
      </trkpt>
      <trkpt lat="44.72178" lon="2.40837">
        <ele>653.833984</ele>
        <time>2012-05-18T09:49:07Z</time>
      </trkpt>
      <trkpt lat="44.7222" lon="2.40832">
        <ele>654.795166</ele>
        <time>2012-05-18T09:49:16Z</time>
      </trkpt>
      <trkpt lat="44.72273" lon="2.40827">
        <ele>655.275879</ele>
        <time>2012-05-18T09:49:28Z</time>
      </trkpt>
      <trkpt lat="44.72289" lon="2.40836">
        <ele>655.275879</ele>
        <time>2012-05-18T09:49:32Z</time>
      </trkpt>
      <trkpt lat="44.72338" lon="2.40856">
        <ele>658.159912</ele>
        <time>2012-05-18T09:49:43Z</time>
      </trkpt>
      <trkpt lat="44.72386" lon="2.40877">
        <ele>661.043701</ele>
        <time>2012-05-18T09:49:54Z</time>
      </trkpt>
      <trkpt lat="44.72436" lon="2.40897">
        <ele>663.447021</ele>
        <time>2012-05-18T09:50:06Z</time>
      </trkpt>
      <trkpt lat="44.72473" lon="2.40912">
        <ele>663.447021</ele>
        <time>2012-05-18T09:50:19Z</time>
      </trkpt>
      <trkpt lat="44.72508" lon="2.40927">
        <ele>661.524414</ele>
        <time>2012-05-18T09:50:27Z</time>
      </trkpt>
      <trkpt lat="44.7252" lon="2.4093">
        <ele>660.562988</ele>
        <time>2012-05-18T09:50:29Z</time>
      </trkpt>
      <trkpt lat="44.72547" lon="2.40941">
        <ele>659.121094</ele>
        <time>2012-05-18T09:50:33Z</time>
      </trkpt>
      <trkpt lat="44.72585" lon="2.4096">
        <ele>656.237061</ele>
        <time>2012-05-18T09:50:38Z</time>
      </trkpt>
      <trkpt lat="44.72612" lon="2.40969">
        <ele>654.795166</ele>
        <time>2012-05-18T09:50:41Z</time>
      </trkpt>
      <trkpt lat="44.72659" lon="2.40983">
        <ele>651.43042</ele>
        <time>2012-05-18T09:50:46Z</time>
      </trkpt>
      <trkpt lat="44.72718" lon="2.41018">
        <ele>649.988525</ele>
        <time>2012-05-18T09:50:53Z</time>
      </trkpt>
      <trkpt lat="44.72749" lon="2.41047">
        <ele>649.0271</ele>
        <time>2012-05-18T09:50:58Z</time>
      </trkpt>
      <trkpt lat="44.72784" lon="2.41118">
        <ele>645.662598</ele>
        <time>2012-05-18T09:51:05Z</time>
      </trkpt>
      <trkpt lat="44.72796" lon="2.41135">
        <ele>645.181885</ele>
        <time>2012-05-18T09:51:07Z</time>
      </trkpt>
      <trkpt lat="44.72835" lon="2.41176">
        <ele>642.778809</ele>
        <time>2012-05-18T09:51:14Z</time>
      </trkpt>
      <trkpt lat="44.72849" lon="2.41191">
        <ele>641.817383</ele>
        <time>2012-05-18T09:51:22Z</time>
      </trkpt>
      <trkpt lat="44.7285" lon="2.41191">
        <ele>640.855957</ele>
        <time>2012-05-18T09:51:39Z</time>
      </trkpt>
      <trkpt lat="44.72849" lon="2.41192">
        <ele>641.33667</ele>
        <time>2012-05-18T09:52:17Z</time>
      </trkpt>
      <trkpt lat="44.7285" lon="2.41193">
        <ele>641.33667</ele>
        <time>2012-05-18T09:52:40Z</time>
      </trkpt>
      <trkpt lat="44.72848" lon="2.41228">
        <ele>640.855957</ele>
        <time>2012-05-18T09:52:50Z</time>
      </trkpt>
      <trkpt lat="44.72848" lon="2.41254">
        <ele>640.855957</ele>
        <time>2012-05-18T09:52:55Z</time>
      </trkpt>
      <trkpt lat="44.72849" lon="2.41271">
        <ele>640.375488</ele>
        <time>2012-05-18T09:52:58Z</time>
      </trkpt>
      <trkpt lat="44.72853" lon="2.41296">
        <ele>639.894775</ele>
        <time>2012-05-18T09:53:02Z</time>
      </trkpt>
      <trkpt lat="44.72859" lon="2.41329">
        <ele>639.414062</ele>
        <time>2012-05-18T09:53:07Z</time>
      </trkpt>
      <trkpt lat="44.72863" lon="2.4135">
        <ele>639.414062</ele>
        <time>2012-05-18T09:53:10Z</time>
      </trkpt>
      <trkpt lat="44.7288" lon="2.41444">
        <ele>637.010742</ele>
        <time>2012-05-18T09:53:22Z</time>
      </trkpt>
      <trkpt lat="44.72897" lon="2.41537">
        <ele>634.126709</ele>
        <time>2012-05-18T09:53:32Z</time>
      </trkpt>
      <trkpt lat="44.72885" lon="2.4159">
        <ele>632.204102</ele>
        <time>2012-05-18T09:53:37Z</time>
      </trkpt>
      <trkpt lat="44.72844" lon="2.41601">
        <ele>630.281494</ele>
        <time>2012-05-18T09:53:42Z</time>
      </trkpt>
      <trkpt lat="44.72809" lon="2.41593">
        <ele>627.878174</ele>
        <time>2012-05-18T09:53:46Z</time>
      </trkpt>
      <trkpt lat="44.72772" lon="2.41606">
        <ele>624.994385</ele>
        <time>2012-05-18T09:53:50Z</time>
      </trkpt>
      <trkpt lat="44.72756" lon="2.41621">
        <ele>623.55249</ele>
        <time>2012-05-18T09:53:52Z</time>
      </trkpt>
      <trkpt lat="44.72697" lon="2.41631">
        <ele>621.14917</ele>
        <time>2012-05-18T09:53:58Z</time>
      </trkpt>
      <trkpt lat="44.72643" lon="2.41666">
        <ele>618.745605</ele>
        <time>2012-05-18T09:54:05Z</time>
      </trkpt>
      <trkpt lat="44.72568" lon="2.41737">
        <ele>615.861816</ele>
        <time>2012-05-18T09:54:17Z</time>
      </trkpt>
      <trkpt lat="44.72523" lon="2.418">
        <ele>614.419678</ele>
        <time>2012-05-18T09:54:27Z</time>
      </trkpt>
      <trkpt lat="44.72514" lon="2.41811">
        <ele>613.938965</ele>
        <time>2012-05-18T09:54:29Z</time>
      </trkpt>
      <trkpt lat="44.72482" lon="2.4183">
        <ele>612.977783</ele>
        <time>2012-05-18T09:54:35Z</time>
      </trkpt>
      <trkpt lat="44.72404" lon="2.41837">
        <ele>611.535889</ele>
        <time>2012-05-18T09:54:47Z</time>
      </trkpt>
      <trkpt lat="44.72371" lon="2.41851">
        <ele>611.535889</ele>
        <time>2012-05-18T09:54:53Z</time>
      </trkpt>
      <trkpt lat="44.72355" lon="2.41866">
        <ele>611.055176</ele>
        <time>2012-05-18T09:54:56Z</time>
      </trkpt>
      <trkpt lat="44.72317" lon="2.41949">
        <ele>608.651855</ele>
        <time>2012-05-18T09:55:06Z</time>
      </trkpt>
      <trkpt lat="44.72314" lon="2.41959">
        <ele>608.651855</ele>
        <time>2012-05-18T09:55:07Z</time>
      </trkpt>
      <trkpt lat="44.7232" lon="2.42031">
        <ele>607.209961</ele>
        <time>2012-05-18T09:55:14Z</time>
      </trkpt>
      <trkpt lat="44.72324" lon="2.42041">
        <ele>606.729248</ele>
        <time>2012-05-18T09:55:15Z</time>
      </trkpt>
      <trkpt lat="44.72353" lon="2.42104">
        <ele>606.248535</ele>
        <time>2012-05-18T09:55:22Z</time>
      </trkpt>
      <trkpt lat="44.72398" lon="2.42146">
        <ele>604.326172</ele>
        <time>2012-05-18T09:55:29Z</time>
      </trkpt>
      <trkpt lat="44.72426" lon="2.42177">
        <ele>603.845215</ele>
        <time>2012-05-18T09:55:33Z</time>
      </trkpt>
      <trkpt lat="44.72437" lon="2.42242">
        <ele>600.480713</ele>
        <time>2012-05-18T09:55:38Z</time>
      </trkpt>
      <trkpt lat="44.72414" lon="2.42291">
        <ele>596.635498</ele>
        <time>2012-05-18T09:55:42Z</time>
      </trkpt>
      <trkpt lat="44.72343" lon="2.42405">
        <ele>589.425537</ele>
        <time>2012-05-18T09:55:53Z</time>
      </trkpt>
      <trkpt lat="44.72335" lon="2.4249">
        <ele>584.138184</ele>
        <time>2012-05-18T09:55:59Z</time>
      </trkpt>
      <trkpt lat="44.72336" lon="2.42518">
        <ele>581.734863</ele>
        <time>2012-05-18T09:56:02Z</time>
      </trkpt>
      <trkpt lat="44.72336" lon="2.42532">
        <ele>581.254395</ele>
        <time>2012-05-18T09:56:04Z</time>
      </trkpt>
      <trkpt lat="44.72346" lon="2.4255">
        <ele>578.851074</ele>
        <time>2012-05-18T09:56:09Z</time>
      </trkpt>
      <trkpt lat="44.72389" lon="2.42577">
        <ele>575.967041</ele>
        <time>2012-05-18T09:56:17Z</time>
      </trkpt>
      <trkpt lat="44.72468" lon="2.42582">
        <ele>574.044434</ele>
        <time>2012-05-18T09:56:25Z</time>
      </trkpt>
      <trkpt lat="44.72563" lon="2.42579">
        <ele>572.602539</ele>
        <time>2012-05-18T09:56:34Z</time>
      </trkpt>
      <trkpt lat="44.72598" lon="2.42533">
        <ele>572.121826</ele>
        <time>2012-05-18T09:56:40Z</time>
      </trkpt>
      <trkpt lat="44.72625" lon="2.42519">
        <ele>571.1604</ele>
        <time>2012-05-18T09:56:44Z</time>
      </trkpt>
      <trkpt lat="44.72663" lon="2.42551">
        <ele>565.873291</ele>
        <time>2012-05-18T09:56:50Z</time>
      </trkpt>
      <trkpt lat="44.72674" lon="2.42572">
        <ele>563.950439</ele>
        <time>2012-05-18T09:56:52Z</time>
      </trkpt>
      <trkpt lat="44.72683" lon="2.42594">
        <ele>562.508545</ele>
        <time>2012-05-18T09:56:54Z</time>
      </trkpt>
      <trkpt lat="44.72698" lon="2.42624">
        <ele>561.547363</ele>
        <time>2012-05-18T09:56:57Z</time>
      </trkpt>
      <trkpt lat="44.72704" lon="2.42667">
        <ele>561.06665</ele>
        <time>2012-05-18T09:57:01Z</time>
      </trkpt>
      <trkpt lat="44.72689" lon="2.42766">
        <ele>561.547363</ele>
        <time>2012-05-18T09:57:12Z</time>
      </trkpt>
      <trkpt lat="44.72688" lon="2.42774">
        <ele>561.547363</ele>
        <time>2012-05-18T09:57:13Z</time>
      </trkpt>
      <trkpt lat="44.72693" lon="2.42808">
        <ele>562.028076</ele>
        <time>2012-05-18T09:57:18Z</time>
      </trkpt>
      <trkpt lat="44.72713" lon="2.42847">
        <ele>563.469971</ele>
        <time>2012-05-18T09:57:28Z</time>
      </trkpt>
      <trkpt lat="44.72748" lon="2.42889">
        <ele>566.35376</ele>
        <time>2012-05-18T09:57:40Z</time>
      </trkpt>
      <trkpt lat="44.72788" lon="2.42915">
        <ele>569.718506</ele>
        <time>2012-05-18T09:57:53Z</time>
      </trkpt>
      <trkpt lat="44.72812" lon="2.4293">
        <ele>572.121826</ele>
        <time>2012-05-18T09:58:03Z</time>
      </trkpt>
      <trkpt lat="44.72843" lon="2.42945">
        <ele>575.005859</ele>
        <time>2012-05-18T09:58:16Z</time>
      </trkpt>
      <trkpt lat="44.72879" lon="2.42969">
        <ele>575.486328</ele>
        <time>2012-05-18T09:58:31Z</time>
      </trkpt>
      <trkpt lat="44.72903" lon="2.43012">
        <ele>575.967041</ele>
        <time>2012-05-18T09:58:44Z</time>
      </trkpt>
      <trkpt lat="44.72931" lon="2.43016">
        <ele>576.928467</ele>
        <time>2012-05-18T09:58:55Z</time>
      </trkpt>
      <trkpt lat="44.72965" lon="2.43015">
        <ele>579.331543</ele>
        <time>2012-05-18T09:59:08Z</time>
      </trkpt>
      <trkpt lat="44.72991" lon="2.43019">
        <ele>581.734863</ele>
        <time>2012-05-18T09:59:19Z</time>
      </trkpt>
      <trkpt lat="44.73026" lon="2.43033">
        <ele>584.618896</ele>
        <time>2012-05-18T09:59:33Z</time>
      </trkpt>
      <trkpt lat="44.73064" lon="2.43056">
        <ele>587.502686</ele>
        <time>2012-05-18T09:59:48Z</time>
      </trkpt>
      <trkpt lat="44.73098" lon="2.43077">
        <ele>590.867432</ele>
        <time>2012-05-18T10:00:02Z</time>
      </trkpt>
      <trkpt lat="44.7314" lon="2.431">
        <ele>595.674072</ele>
        <time>2012-05-18T10:00:19Z</time>
      </trkpt>
      <trkpt lat="44.7317" lon="2.43115">
        <ele>598.557861</ele>
        <time>2012-05-18T10:00:32Z</time>
      </trkpt>
      <trkpt lat="44.73195" lon="2.43146">
        <ele>602.403076</ele>
        <time>2012-05-18T10:00:45Z</time>
      </trkpt>
      <trkpt lat="44.73221" lon="2.43183">
        <ele>604.326172</ele>
        <time>2012-05-18T10:01:01Z</time>
      </trkpt>
      <trkpt lat="44.73246" lon="2.4321">
        <ele>606.248535</ele>
        <time>2012-05-18T10:01:14Z</time>
      </trkpt>
      <trkpt lat="44.73277" lon="2.43249">
        <ele>608.171387</ele>
        <time>2012-05-18T10:01:31Z</time>
      </trkpt>
      <trkpt lat="44.73305" lon="2.43276">
        <ele>609.613281</ele>
        <time>2012-05-18T10:01:45Z</time>
      </trkpt>
      <trkpt lat="44.73323" lon="2.43288">
        <ele>611.055176</ele>
        <time>2012-05-18T10:01:56Z</time>
      </trkpt>
      <trkpt lat="44.73339" lon="2.43305">
        <ele>610.09375</ele>
        <time>2012-05-18T10:02:06Z</time>
      </trkpt>
      <trkpt lat="44.73344" lon="2.43312">
        <ele>609.613281</ele>
        <time>2012-05-18T10:02:08Z</time>
      </trkpt>
      <trkpt lat="44.73375" lon="2.43341">
        <ele>608.651855</ele>
        <time>2012-05-18T10:02:16Z</time>
      </trkpt>
      <trkpt lat="44.73396" lon="2.43349">
        <ele>608.651855</ele>
        <time>2012-05-18T10:02:20Z</time>
      </trkpt>
      <trkpt lat="44.7345" lon="2.43352">
        <ele>609.132568</ele>
        <time>2012-05-18T10:02:32Z</time>
      </trkpt>
      <trkpt lat="44.73475" lon="2.43377">
        <ele>610.09375</ele>
        <time>2012-05-18T10:02:43Z</time>
      </trkpt>
      <trkpt lat="44.73482" lon="2.43401">
        <ele>611.055176</ele>
        <time>2012-05-18T10:02:52Z</time>
      </trkpt>
      <trkpt lat="44.7349" lon="2.43428">
        <ele>612.016602</ele>
        <time>2012-05-18T10:03:01Z</time>
      </trkpt>
      <trkpt lat="44.73507" lon="2.43473">
        <ele>613.938965</ele>
        <time>2012-05-18T10:03:15Z</time>
      </trkpt>
      <trkpt lat="44.73537" lon="2.43522">
        <ele>614.419678</ele>
        <time>2012-05-18T10:03:33Z</time>
      </trkpt>
      <trkpt lat="44.73565" lon="2.43551">
        <ele>614.900391</ele>
        <time>2012-05-18T10:03:47Z</time>
      </trkpt>
      <trkpt lat="44.73594" lon="2.43562">
        <ele>617.78418</ele>
        <time>2012-05-18T10:03:58Z</time>
      </trkpt>
      <trkpt lat="44.73597" lon="2.43568">
        <ele>618.745605</ele>
        <time>2012-05-18T10:04:01Z</time>
      </trkpt>
      <trkpt lat="44.73601" lon="2.43572">
        <ele>619.226318</ele>
        <time>2012-05-18T10:04:09Z</time>
      </trkpt>
      <trkpt lat="44.73602" lon="2.43574">
        <ele>621.629639</ele>
        <time>2012-05-18T10:04:20Z</time>
      </trkpt>
      <trkpt lat="44.73601" lon="2.43575">
        <ele>621.14917</ele>
        <time>2012-05-18T10:04:34Z</time>
      </trkpt>
      <trkpt lat="44.73599" lon="2.43578">
        <ele>626.916992</ele>
        <time>2012-05-18T10:12:08Z</time>
      </trkpt>
      <trkpt lat="44.73597" lon="2.43574">
        <ele>627.878174</ele>
        <time>2012-05-18T10:12:17Z</time>
      </trkpt>
      <trkpt lat="44.73597" lon="2.43577">
        <ele>626.436279</ele>
        <time>2012-05-18T10:12:42Z</time>
      </trkpt>
      <trkpt lat="44.73597" lon="2.43576">
        <ele>625.955566</ele>
        <time>2012-05-18T10:12:54Z</time>
      </trkpt>
      <trkpt lat="44.736" lon="2.43576">
        <ele>625.955566</ele>
        <time>2012-05-18T10:13:04Z</time>
      </trkpt>
      <trkpt lat="44.73597" lon="2.43577">
        <ele>624.032959</ele>
        <time>2012-05-18T10:13:20Z</time>
      </trkpt>
      <trkpt lat="44.73599" lon="2.43577">
        <ele>623.55249</ele>
        <time>2012-05-18T10:13:33Z</time>
      </trkpt>
      <trkpt lat="44.73599" lon="2.43577">
        <ele>622.110352</ele>
        <time>2012-05-18T10:13:58Z</time>
      </trkpt>
      <trkpt lat="44.73593" lon="2.43592">
        <ele>621.629639</ele>
        <time>2012-05-18T10:14:04Z</time>
      </trkpt>
      <trkpt lat="44.73578" lon="2.43646">
        <ele>620.668457</ele>
        <time>2012-05-18T10:14:16Z</time>
      </trkpt>
      <trkpt lat="44.73572" lon="2.43661">
        <ele>620.187744</ele>
        <time>2012-05-18T10:14:19Z</time>
      </trkpt>
      <trkpt lat="44.73573" lon="2.43709">
        <ele>619.707031</ele>
        <time>2012-05-18T10:14:28Z</time>
      </trkpt>
      <trkpt lat="44.73577" lon="2.43735">
        <ele>619.707031</ele>
        <time>2012-05-18T10:14:32Z</time>
      </trkpt>
      <trkpt lat="44.73591" lon="2.43768">
        <ele>617.78418</ele>
        <time>2012-05-18T10:14:37Z</time>
      </trkpt>
      <trkpt lat="44.73601" lon="2.43798">
        <ele>617.303711</ele>
        <time>2012-05-18T10:14:41Z</time>
      </trkpt>
      <trkpt lat="44.73603" lon="2.43815">
        <ele>617.303711</ele>
        <time>2012-05-18T10:14:43Z</time>
      </trkpt>
      <trkpt lat="44.73603" lon="2.4385">
        <ele>617.303711</ele>
        <time>2012-05-18T10:14:47Z</time>
      </trkpt>
      <trkpt lat="44.73595" lon="2.43887">
        <ele>616.342285</ele>
        <time>2012-05-18T10:14:52Z</time>
      </trkpt>
      <trkpt lat="44.73569" lon="2.43987">
        <ele>612.49707</ele>
        <time>2012-05-18T10:15:06Z</time>
      </trkpt>
      <trkpt lat="44.73537" lon="2.44133">
        <ele>606.729248</ele>
        <time>2012-05-18T10:15:23Z</time>
      </trkpt>
      <trkpt lat="44.73531" lon="2.4415">
        <ele>605.287354</ele>
        <time>2012-05-18T10:15:29Z</time>
      </trkpt>
      <trkpt lat="44.73523" lon="2.44172">
        <ele>602.403076</ele>
        <time>2012-05-18T10:15:45Z</time>
      </trkpt>
      <trkpt lat="44.73502" lon="2.44249">
        <ele>599.038574</ele>
        <time>2012-05-18T10:15:57Z</time>
      </trkpt>
      <trkpt lat="44.73473" lon="2.44319">
        <ele>596.635498</ele>
        <time>2012-05-18T10:16:07Z</time>
      </trkpt>
      <trkpt lat="44.73466" lon="2.44341">
        <ele>595.193359</ele>
        <time>2012-05-18T10:16:10Z</time>
      </trkpt>
      <trkpt lat="44.73461" lon="2.44366">
        <ele>594.232178</ele>
        <time>2012-05-18T10:16:13Z</time>
      </trkpt>
      <trkpt lat="44.73421" lon="2.44462">
        <ele>592.790283</ele>
        <time>2012-05-18T10:16:26Z</time>
      </trkpt>
      <trkpt lat="44.73393" lon="2.44562">
        <ele>592.30957</ele>
        <time>2012-05-18T10:16:53Z</time>
      </trkpt>
      <trkpt lat="44.73353" lon="2.44542">
        <ele>592.790283</ele>
        <time>2012-05-18T10:17:05Z</time>
      </trkpt>
      <trkpt lat="44.73349" lon="2.44542">
        <ele>592.790283</ele>
        <time>2012-05-18T10:17:11Z</time>
      </trkpt>
      <trkpt lat="44.73332" lon="2.44545">
        <ele>591.828857</ele>
        <time>2012-05-18T10:17:16Z</time>
      </trkpt>
      <trkpt lat="44.73285" lon="2.44594">
        <ele>586.060791</ele>
        <time>2012-05-18T10:17:25Z</time>
      </trkpt>
      <trkpt lat="44.73274" lon="2.44617">
        <ele>584.618896</ele>
        <time>2012-05-18T10:17:28Z</time>
      </trkpt>
      <trkpt lat="44.73282" lon="2.44655">
        <ele>582.215576</ele>
        <time>2012-05-18T10:17:34Z</time>
      </trkpt>
      <trkpt lat="44.73297" lon="2.44672">
        <ele>579.812256</ele>
        <time>2012-05-18T10:17:37Z</time>
      </trkpt>
      <trkpt lat="44.73304" lon="2.44684">
        <ele>578.370361</ele>
        <time>2012-05-18T10:17:39Z</time>
      </trkpt>
      <trkpt lat="44.73305" lon="2.44705">
        <ele>576.447754</ele>
        <time>2012-05-18T10:17:42Z</time>
      </trkpt>
      <trkpt lat="44.73287" lon="2.44751">
        <ele>570.198975</ele>
        <time>2012-05-18T10:17:48Z</time>
      </trkpt>
      <trkpt lat="44.73277" lon="2.44811">
        <ele>568.276367</ele>
        <time>2012-05-18T10:17:55Z</time>
      </trkpt>
      <trkpt lat="44.73266" lon="2.44856">
        <ele>564.911865</ele>
        <time>2012-05-18T10:18:03Z</time>
      </trkpt>
      <trkpt lat="44.73259" lon="2.44868">
        <ele>562.989258</ele>
        <time>2012-05-18T10:18:06Z</time>
      </trkpt>
      <trkpt lat="44.73217" lon="2.4489">
        <ele>557.221436</ele>
        <time>2012-05-18T10:18:19Z</time>
      </trkpt>
      <trkpt lat="44.73176" lon="2.44924">
        <ele>554.337402</ele>
        <time>2012-05-18T10:18:35Z</time>
      </trkpt>
      <trkpt lat="44.73164" lon="2.44942">
        <ele>554.337402</ele>
        <time>2012-05-18T10:18:44Z</time>
      </trkpt>
      <trkpt lat="44.73157" lon="2.44945">
        <ele>553.856689</ele>
        <time>2012-05-18T10:18:51Z</time>
      </trkpt>
      <trkpt lat="44.73155" lon="2.44953">
        <ele>553.856689</ele>
        <time>2012-05-18T10:19:02Z</time>
      </trkpt>
      <trkpt lat="44.73153" lon="2.44953">
        <ele>552.895264</ele>
        <time>2012-05-18T10:19:14Z</time>
      </trkpt>
      <trkpt lat="44.73151" lon="2.44954">
        <ele>553.856689</ele>
        <time>2012-05-18T10:19:17Z</time>
      </trkpt>
      <trkpt lat="44.73144" lon="2.44966">
        <ele>554.337402</ele>
        <time>2012-05-18T10:19:25Z</time>
      </trkpt>
      <trkpt lat="44.73142" lon="2.4498">
        <ele>555.298584</ele>
        <time>2012-05-18T10:19:36Z</time>
      </trkpt>
      <trkpt lat="44.7314" lon="2.44989">
        <ele>556.26001</ele>
        <time>2012-05-18T10:19:43Z</time>
      </trkpt>
      <trkpt lat="44.73134" lon="2.44992">
        <ele>556.740723</ele>
        <time>2012-05-18T10:19:48Z</time>
      </trkpt>
      <trkpt lat="44.73115" lon="2.45013">
        <ele>557.221436</ele>
        <time>2012-05-18T10:20:01Z</time>
      </trkpt>
      <trkpt lat="44.73097" lon="2.45042">
        <ele>558.182861</ele>
        <time>2012-05-18T10:20:15Z</time>
      </trkpt>
      <trkpt lat="44.73088" lon="2.45069">
        <ele>558.66333</ele>
        <time>2012-05-18T10:20:26Z</time>
      </trkpt>
      <trkpt lat="44.73071" lon="2.45118">
        <ele>559.624756</ele>
        <time>2012-05-18T10:20:44Z</time>
      </trkpt>
      <trkpt lat="44.73053" lon="2.45149">
        <ele>561.06665</ele>
        <time>2012-05-18T10:21:00Z</time>
      </trkpt>
      <trkpt lat="44.73037" lon="2.45176">
        <ele>562.508545</ele>
        <time>2012-05-18T10:21:18Z</time>
      </trkpt>
      <trkpt lat="44.7302" lon="2.45204">
        <ele>568.276367</ele>
        <time>2012-05-18T10:21:37Z</time>
      </trkpt>
      <trkpt lat="44.73004" lon="2.45233">
        <ele>571.1604</ele>
        <time>2012-05-18T10:21:56Z</time>
      </trkpt>
      <trkpt lat="44.7299" lon="2.45261">
        <ele>573.083252</ele>
        <time>2012-05-18T10:22:13Z</time>
      </trkpt>
      <trkpt lat="44.72987" lon="2.45282">
        <ele>575.967041</ele>
        <time>2012-05-18T10:22:24Z</time>
      </trkpt>
      <trkpt lat="44.73" lon="2.45279">
        <ele>577.889648</ele>
        <time>2012-05-18T10:22:34Z</time>
      </trkpt>
      <trkpt lat="44.73025" lon="2.45279">
        <ele>580.292969</ele>
        <time>2012-05-18T10:22:47Z</time>
      </trkpt>
      <trkpt lat="44.73056" lon="2.45299">
        <ele>583.176758</ele>
        <time>2012-05-18T10:23:04Z</time>
      </trkpt>
      <trkpt lat="44.73074" lon="2.45317">
        <ele>583.657471</ele>
        <time>2012-05-18T10:23:17Z</time>
      </trkpt>
      <trkpt lat="44.73093" lon="2.45335">
        <ele>585.099609</ele>
        <time>2012-05-18T10:23:29Z</time>
      </trkpt>
      <trkpt lat="44.73111" lon="2.4535">
        <ele>586.060791</ele>
        <time>2012-05-18T10:23:40Z</time>
      </trkpt>
      <trkpt lat="44.7314" lon="2.45373">
        <ele>587.021973</ele>
        <time>2012-05-18T10:23:57Z</time>
      </trkpt>
      <trkpt lat="44.73175" lon="2.45396">
        <ele>589.90625</ele>
        <time>2012-05-18T10:24:13Z</time>
      </trkpt>
      <trkpt lat="44.73206" lon="2.45413">
        <ele>589.90625</ele>
        <time>2012-05-18T10:24:29Z</time>
      </trkpt>
      <trkpt lat="44.73238" lon="2.45439">
        <ele>589.425537</ele>
        <time>2012-05-18T10:24:45Z</time>
      </trkpt>
      <trkpt lat="44.73262" lon="2.45484">
        <ele>592.790283</ele>
        <time>2012-05-18T10:25:03Z</time>
      </trkpt>
      <trkpt lat="44.73286" lon="2.45533">
        <ele>595.193359</ele>
        <time>2012-05-18T10:25:21Z</time>
      </trkpt>
      <trkpt lat="44.7332" lon="2.45563">
        <ele>597.59668</ele>
        <time>2012-05-18T10:25:35Z</time>
      </trkpt>
      <trkpt lat="44.73385" lon="2.45606">
        <ele>596.635498</ele>
        <time>2012-05-18T10:25:53Z</time>
      </trkpt>
      <trkpt lat="44.73431" lon="2.45647">
        <ele>596.635498</ele>
        <time>2012-05-18T10:26:08Z</time>
      </trkpt>
      <trkpt lat="44.73436" lon="2.45659">
        <ele>596.635498</ele>
        <time>2012-05-18T10:26:11Z</time>
      </trkpt>
      <trkpt lat="44.73432" lon="2.45683">
        <ele>595.193359</ele>
        <time>2012-05-18T10:26:16Z</time>
      </trkpt>
      <trkpt lat="44.73432" lon="2.45719">
        <ele>594.712646</ele>
        <time>2012-05-18T10:26:21Z</time>
      </trkpt>
      <trkpt lat="44.73426" lon="2.45744">
        <ele>593.751465</ele>
        <time>2012-05-18T10:26:25Z</time>
      </trkpt>
      <trkpt lat="44.73417" lon="2.45757">
        <ele>593.751465</ele>
        <time>2012-05-18T10:26:29Z</time>
      </trkpt>
      <trkpt lat="44.73388" lon="2.458">
        <ele>592.30957</ele>
        <time>2012-05-18T10:26:40Z</time>
      </trkpt>
      <trkpt lat="44.73376" lon="2.45805">
        <ele>591.348145</ele>
        <time>2012-05-18T10:26:44Z</time>
      </trkpt>
      <trkpt lat="44.73364" lon="2.45827">
        <ele>590.867432</ele>
        <time>2012-05-18T10:26:51Z</time>
      </trkpt>
      <trkpt lat="44.73365" lon="2.45837">
        <ele>591.348145</ele>
        <time>2012-05-18T10:26:56Z</time>
      </trkpt>
      <trkpt lat="44.73386" lon="2.45851">
        <ele>589.425537</ele>
        <time>2012-05-18T10:27:04Z</time>
      </trkpt>
      <trkpt lat="44.73421" lon="2.45866">
        <ele>587.021973</ele>
        <time>2012-05-18T10:27:11Z</time>
      </trkpt>
      <trkpt lat="44.73435" lon="2.45884">
        <ele>585.580078</ele>
        <time>2012-05-18T10:27:15Z</time>
      </trkpt>
      <trkpt lat="44.73444" lon="2.46">
        <ele>580.773682</ele>
        <time>2012-05-18T10:27:29Z</time>
      </trkpt>
      <trkpt lat="44.73447" lon="2.46052">
        <ele>576.928467</ele>
        <time>2012-05-18T10:27:38Z</time>
      </trkpt>
      <trkpt lat="44.7345" lon="2.46094">
        <ele>574.525146</ele>
        <time>2012-05-18T10:27:47Z</time>
      </trkpt>
      <trkpt lat="44.73479" lon="2.46174">
        <ele>569.718506</ele>
        <time>2012-05-18T10:28:02Z</time>
      </trkpt>
      <trkpt lat="44.73501" lon="2.46219">
        <ele>569.237793</ele>
        <time>2012-05-18T10:28:15Z</time>
      </trkpt>
      <trkpt lat="44.73505" lon="2.46224">
        <ele>569.237793</ele>
        <time>2012-05-18T10:28:17Z</time>
      </trkpt>
      <trkpt lat="44.73515" lon="2.46261">
        <ele>565.873291</ele>
        <time>2012-05-18T10:28:30Z</time>
      </trkpt>
      <trkpt lat="44.73528" lon="2.46333">
        <ele>561.547363</ele>
        <time>2012-05-18T10:28:46Z</time>
      </trkpt>
      <trkpt lat="44.73521" lon="2.46378">
        <ele>558.66333</ele>
        <time>2012-05-18T10:28:57Z</time>
      </trkpt>
      <trkpt lat="44.73517" lon="2.46383">
        <ele>558.182861</ele>
        <time>2012-05-18T10:28:59Z</time>
      </trkpt>
      <trkpt lat="44.73511" lon="2.46383">
        <ele>555.298584</ele>
        <time>2012-05-18T10:29:11Z</time>
      </trkpt>
      <trkpt lat="44.73509" lon="2.46383">
        <ele>554.817871</ele>
        <time>2012-05-18T10:29:24Z</time>
      </trkpt>
      <trkpt lat="44.73505" lon="2.46388">
        <ele>554.337402</ele>
        <time>2012-05-18T10:29:34Z</time>
      </trkpt>
      <trkpt lat="44.73506" lon="2.46393">
        <ele>553.856689</ele>
        <time>2012-05-18T10:29:41Z</time>
      </trkpt>
      <trkpt lat="44.73506" lon="2.46398">
        <ele>552.895264</ele>
        <time>2012-05-18T10:29:53Z</time>
      </trkpt>
      <trkpt lat="44.73505" lon="2.46399">
        <ele>552.895264</ele>
        <time>2012-05-18T10:30:06Z</time>
      </trkpt>
      <trkpt lat="44.73502" lon="2.46406">
        <ele>551.934082</ele>
        <time>2012-05-18T10:30:15Z</time>
      </trkpt>
      <trkpt lat="44.73492" lon="2.46432">
        <ele>551.453369</ele>
        <time>2012-05-18T10:30:28Z</time>
      </trkpt>
      <trkpt lat="44.73479" lon="2.46486">
        <ele>549.530762</ele>
        <time>2012-05-18T10:30:45Z</time>
      </trkpt>
      <trkpt lat="44.7347" lon="2.46537">
        <ele>545.204834</ele>
        <time>2012-05-18T10:31:00Z</time>
      </trkpt>
      <trkpt lat="44.73471" lon="2.46546">
        <ele>537.033691</ele>
        <time>2012-05-18T10:31:20Z</time>
      </trkpt>
      <trkpt lat="44.73472" lon="2.4655">
        <ele>537.033691</ele>
        <time>2012-05-18T10:31:23Z</time>
      </trkpt>
      <trkpt lat="44.73472" lon="2.46555">
        <ele>537.033691</ele>
        <time>2012-05-18T10:31:36Z</time>
      </trkpt>
      <trkpt lat="44.73473" lon="2.46556">
        <ele>536.553101</ele>
        <time>2012-05-18T10:31:57Z</time>
      </trkpt>
      <trkpt lat="44.73472" lon="2.46558">
        <ele>535.110962</ele>
        <time>2012-05-18T10:32:03Z</time>
      </trkpt>
      <trkpt lat="44.73455" lon="2.46579">
        <ele>532.707764</ele>
        <time>2012-05-18T10:32:11Z</time>
      </trkpt>
      <trkpt lat="44.73442" lon="2.46599">
        <ele>531.746338</ele>
        <time>2012-05-18T10:32:16Z</time>
      </trkpt>
      <trkpt lat="44.73403" lon="2.46655">
        <ele>526.939819</ele>
        <time>2012-05-18T10:32:26Z</time>
      </trkpt>
      <trkpt lat="44.73378" lon="2.46689">
        <ele>525.497803</ele>
        <time>2012-05-18T10:32:33Z</time>
      </trkpt>
      <trkpt lat="44.73385" lon="2.46706">
        <ele>525.497803</ele>
        <time>2012-05-18T10:32:38Z</time>
      </trkpt>
      <trkpt lat="44.73419" lon="2.46738">
        <ele>527.901001</ele>
        <time>2012-05-18T10:32:48Z</time>
      </trkpt>
      <trkpt lat="44.7344" lon="2.46767">
        <ele>530.785156</ele>
        <time>2012-05-18T10:33:02Z</time>
      </trkpt>
      <trkpt lat="44.73448" lon="2.46806">
        <ele>533.668945</ele>
        <time>2012-05-18T10:33:17Z</time>
      </trkpt>
      <trkpt lat="44.73462" lon="2.46845">
        <ele>536.072388</ele>
        <time>2012-05-18T10:33:32Z</time>
      </trkpt>
      <trkpt lat="44.73474" lon="2.4687">
        <ele>537.033691</ele>
        <time>2012-05-18T10:33:43Z</time>
      </trkpt>
      <trkpt lat="44.73512" lon="2.46944">
        <ele>541.84021</ele>
        <time>2012-05-18T10:34:17Z</time>
      </trkpt>
      <trkpt lat="44.7352" lon="2.46986">
        <ele>544.724243</ele>
        <time>2012-05-18T10:34:32Z</time>
      </trkpt>
      <trkpt lat="44.73527" lon="2.47041">
        <ele>546.16626</ele>
        <time>2012-05-18T10:34:48Z</time>
      </trkpt>
      <trkpt lat="44.7354" lon="2.47096">
        <ele>547.608154</ele>
        <time>2012-05-18T10:35:03Z</time>
      </trkpt>
      <trkpt lat="44.73558" lon="2.47141">
        <ele>550.972656</ele>
        <time>2012-05-18T10:35:19Z</time>
      </trkpt>
      <trkpt lat="44.73556" lon="2.47175">
        <ele>553.375977</ele>
        <time>2012-05-18T10:35:31Z</time>
      </trkpt>
      <trkpt lat="44.73551" lon="2.4721">
        <ele>556.740723</ele>
        <time>2012-05-18T10:35:44Z</time>
      </trkpt>
      <trkpt lat="44.73545" lon="2.4726">
        <ele>559.624756</ele>
        <time>2012-05-18T10:36:02Z</time>
      </trkpt>
      <trkpt lat="44.73549" lon="2.47306">
        <ele>562.508545</ele>
        <time>2012-05-18T10:36:18Z</time>
      </trkpt>
      <trkpt lat="44.73571" lon="2.47345">
        <ele>563.469971</ele>
        <time>2012-05-18T10:36:35Z</time>
      </trkpt>
      <trkpt lat="44.73599" lon="2.47374">
        <ele>564.431152</ele>
        <time>2012-05-18T10:36:50Z</time>
      </trkpt>
      <trkpt lat="44.73623" lon="2.47416">
        <ele>565.873291</ele>
        <time>2012-05-18T10:37:07Z</time>
      </trkpt>
      <trkpt lat="44.73636" lon="2.47444">
        <ele>565.873291</ele>
        <time>2012-05-18T10:37:17Z</time>
      </trkpt>
      <trkpt lat="44.73649" lon="2.47492">
        <ele>561.06665</ele>
        <time>2012-05-18T10:37:23Z</time>
      </trkpt>
      <trkpt lat="44.7364" lon="2.4757">
        <ele>555.298584</ele>
        <time>2012-05-18T10:37:29Z</time>
      </trkpt>
      <trkpt lat="44.73615" lon="2.47598">
        <ele>553.856689</ele>
        <time>2012-05-18T10:37:33Z</time>
      </trkpt>
      <trkpt lat="44.7359" lon="2.47594">
        <ele>553.375977</ele>
        <time>2012-05-18T10:37:38Z</time>
      </trkpt>
      <trkpt lat="44.73546" lon="2.47616">
        <ele>556.26001</ele>
        <time>2012-05-18T10:37:53Z</time>
      </trkpt>
      <trkpt lat="44.73487" lon="2.47688">
        <ele>562.508545</ele>
        <time>2012-05-18T10:38:26Z</time>
      </trkpt>
      <trkpt lat="44.73454" lon="2.47707">
        <ele>568.276367</ele>
        <time>2012-05-18T10:38:43Z</time>
      </trkpt>
      <trkpt lat="44.73428" lon="2.47735">
        <ele>571.640869</ele>
        <time>2012-05-18T10:39:00Z</time>
      </trkpt>
      <trkpt lat="44.73403" lon="2.47772">
        <ele>574.044434</ele>
        <time>2012-05-18T10:39:20Z</time>
      </trkpt>
      <trkpt lat="44.7338" lon="2.47819">
        <ele>576.447754</ele>
        <time>2012-05-18T10:39:41Z</time>
      </trkpt>
      <trkpt lat="44.73369" lon="2.47844">
        <ele>578.370361</ele>
        <time>2012-05-18T10:39:52Z</time>
      </trkpt>
      <trkpt lat="44.73369" lon="2.47865">
        <ele>579.812256</ele>
        <time>2012-05-18T10:40:00Z</time>
      </trkpt>
      <trkpt lat="44.73388" lon="2.4785">
        <ele>580.292969</ele>
        <time>2012-05-18T10:40:11Z</time>
      </trkpt>
      <trkpt lat="44.73402" lon="2.47812">
        <ele>583.657471</ele>
        <time>2012-05-18T10:40:32Z</time>
      </trkpt>
      <trkpt lat="44.73414" lon="2.47825">
        <ele>594.712646</ele>
        <time>2012-05-18T10:41:42Z</time>
      </trkpt>
      <trkpt lat="44.73417" lon="2.47823">
        <ele>590.867432</ele>
        <time>2012-05-18T10:41:57Z</time>
      </trkpt>
      <trkpt lat="44.73421" lon="2.47822">
        <ele>592.790283</ele>
        <time>2012-05-18T10:42:01Z</time>
      </trkpt>
      <trkpt lat="44.73446" lon="2.47811">
        <ele>592.790283</ele>
        <time>2012-05-18T10:42:16Z</time>
      </trkpt>
      <trkpt lat="44.73486" lon="2.47801">
        <ele>595.193359</ele>
        <time>2012-05-18T10:42:37Z</time>
      </trkpt>
      <trkpt lat="44.73492" lon="2.47807">
        <ele>597.115967</ele>
        <time>2012-05-18T10:42:41Z</time>
      </trkpt>
      <trkpt lat="44.73492" lon="2.47819">
        <ele>599.519287</ele>
        <time>2012-05-18T10:42:46Z</time>
      </trkpt>
      <trkpt lat="44.73477" lon="2.47858">
        <ele>601.922607</ele>
        <time>2012-05-18T10:43:04Z</time>
      </trkpt>
      <trkpt lat="44.7346" lon="2.4789">
        <ele>607.209961</ele>
        <time>2012-05-18T10:43:19Z</time>
      </trkpt>
      <trkpt lat="44.73443" lon="2.47916">
        <ele>612.016602</ele>
        <time>2012-05-18T10:43:32Z</time>
      </trkpt>
      <trkpt lat="44.73418" lon="2.47942">
        <ele>615.381104</ele>
        <time>2012-05-18T10:43:47Z</time>
      </trkpt>
      <trkpt lat="44.73389" lon="2.47963">
        <ele>614.900391</ele>
        <time>2012-05-18T10:44:06Z</time>
      </trkpt>
      <trkpt lat="44.73364" lon="2.48006">
        <ele>617.78418</ele>
        <time>2012-05-18T10:44:28Z</time>
      </trkpt>
      <trkpt lat="44.73339" lon="2.48053">
        <ele>624.513672</ele>
        <time>2012-05-18T10:44:48Z</time>
      </trkpt>
      <trkpt lat="44.73319" lon="2.48087">
        <ele>628.358887</ele>
        <time>2012-05-18T10:45:04Z</time>
      </trkpt>
      <trkpt lat="44.73294" lon="2.48126">
        <ele>632.204102</ele>
        <time>2012-05-18T10:45:20Z</time>
      </trkpt>
      <trkpt lat="44.73266" lon="2.48168">
        <ele>634.126709</ele>
        <time>2012-05-18T10:45:35Z</time>
      </trkpt>
      <trkpt lat="44.73239" lon="2.48215">
        <ele>635.568604</ele>
        <time>2012-05-18T10:45:51Z</time>
      </trkpt>
      <trkpt lat="44.73214" lon="2.48249">
        <ele>635.088135</ele>
        <time>2012-05-18T10:46:05Z</time>
      </trkpt>
      <trkpt lat="44.73185" lon="2.48287">
        <ele>638.452881</ele>
        <time>2012-05-18T10:46:20Z</time>
      </trkpt>
      <trkpt lat="44.73172" lon="2.48315">
        <ele>641.33667</ele>
        <time>2012-05-18T10:46:31Z</time>
      </trkpt>
      <trkpt lat="44.73146" lon="2.4837">
        <ele>644.220703</ele>
        <time>2012-05-18T10:46:48Z</time>
      </trkpt>
      <trkpt lat="44.73113" lon="2.484">
        <ele>648.546387</ele>
        <time>2012-05-18T10:47:03Z</time>
      </trkpt>
      <trkpt lat="44.7308" lon="2.48427">
        <ele>649.507812</ele>
        <time>2012-05-18T10:47:17Z</time>
      </trkpt>
      <trkpt lat="44.73048" lon="2.48468">
        <ele>649.988525</ele>
        <time>2012-05-18T10:47:29Z</time>
      </trkpt>
      <trkpt lat="44.73028" lon="2.48501">
        <ele>648.065918</ele>
        <time>2012-05-18T10:47:38Z</time>
      </trkpt>
      <trkpt lat="44.73031" lon="2.48525">
        <ele>647.104492</ele>
        <time>2012-05-18T10:47:42Z</time>
      </trkpt>
      <trkpt lat="44.73035" lon="2.48538">
        <ele>646.624023</ele>
        <time>2012-05-18T10:47:44Z</time>
      </trkpt>
      <trkpt lat="44.73038" lon="2.4857">
        <ele>646.143311</ele>
        <time>2012-05-18T10:47:48Z</time>
      </trkpt>
      <trkpt lat="44.73036" lon="2.48592">
        <ele>646.624023</ele>
        <time>2012-05-18T10:47:51Z</time>
      </trkpt>
      <trkpt lat="44.73041" lon="2.48671">
        <ele>647.585205</ele>
        <time>2012-05-18T10:48:05Z</time>
      </trkpt>
      <trkpt lat="44.73047" lon="2.4873">
        <ele>649.988525</ele>
        <time>2012-05-18T10:48:19Z</time>
      </trkpt>
      <trkpt lat="44.73043" lon="2.48787">
        <ele>651.43042</ele>
        <time>2012-05-18T10:48:33Z</time>
      </trkpt>
      <trkpt lat="44.73044" lon="2.48848">
        <ele>652.391846</ele>
        <time>2012-05-18T10:48:47Z</time>
      </trkpt>
      <trkpt lat="44.73044" lon="2.48855">
        <ele>652.872559</ele>
        <time>2012-05-18T10:48:49Z</time>
      </trkpt>
      <trkpt lat="44.73034" lon="2.48878">
        <ele>653.833984</ele>
        <time>2012-05-18T10:48:59Z</time>
      </trkpt>
      <trkpt lat="44.73026" lon="2.4889">
        <ele>655.275879</ele>
        <time>2012-05-18T10:49:05Z</time>
      </trkpt>
      <trkpt lat="44.73003" lon="2.48916">
        <ele>658.640381</ele>
        <time>2012-05-18T10:49:21Z</time>
      </trkpt>
      <trkpt lat="44.7298" lon="2.48934">
        <ele>661.524414</ele>
        <time>2012-05-18T10:49:35Z</time>
      </trkpt>
      <trkpt lat="44.72954" lon="2.48962">
        <ele>664.408203</ele>
        <time>2012-05-18T10:49:53Z</time>
      </trkpt>
      <trkpt lat="44.72941" lon="2.48996">
        <ele>668.253662</ele>
        <time>2012-05-18T10:50:10Z</time>
      </trkpt>
      <trkpt lat="44.72932" lon="2.49024">
        <ele>671.618164</ele>
        <time>2012-05-18T10:50:24Z</time>
      </trkpt>
      <trkpt lat="44.72924" lon="2.4906">
        <ele>675.463379</ele>
        <time>2012-05-18T10:50:42Z</time>
      </trkpt>
      <trkpt lat="44.72911" lon="2.49093">
        <ele>678.828125</ele>
        <time>2012-05-18T10:51:01Z</time>
      </trkpt>
      <trkpt lat="44.729" lon="2.49124">
        <ele>679.789307</ele>
        <time>2012-05-18T10:51:15Z</time>
      </trkpt>
      <trkpt lat="44.72887" lon="2.49158">
        <ele>681.711914</ele>
        <time>2012-05-18T10:51:32Z</time>
      </trkpt>
      <trkpt lat="44.72877" lon="2.49187">
        <ele>682.67334</ele>
        <time>2012-05-18T10:51:48Z</time>
      </trkpt>
      <trkpt lat="44.72866" lon="2.4921">
        <ele>686.999268</ele>
        <time>2012-05-18T10:52:02Z</time>
      </trkpt>
      <trkpt lat="44.72852" lon="2.4923">
        <ele>691.325195</ele>
        <time>2012-05-18T10:52:15Z</time>
      </trkpt>
      <trkpt lat="44.72838" lon="2.49243">
        <ele>693.247803</ele>
        <time>2012-05-18T10:52:26Z</time>
      </trkpt>
      <trkpt lat="44.72819" lon="2.49263">
        <ele>695.651123</ele>
        <time>2012-05-18T10:52:41Z</time>
      </trkpt>
      <trkpt lat="44.72801" lon="2.49285">
        <ele>699.015625</ele>
        <time>2012-05-18T10:52:57Z</time>
      </trkpt>
      <trkpt lat="44.72775" lon="2.49313">
        <ele>704.783691</ele>
        <time>2012-05-18T10:53:20Z</time>
      </trkpt>
      <trkpt lat="44.72755" lon="2.49322">
        <ele>708.148438</ele>
        <time>2012-05-18T10:53:36Z</time>
      </trkpt>
      <trkpt lat="44.72738" lon="2.4931">
        <ele>709.590332</ele>
        <time>2012-05-18T10:53:49Z</time>
      </trkpt>
      <trkpt lat="44.72715" lon="2.49282">
        <ele>710.551514</ele>
        <time>2012-05-18T10:54:06Z</time>
      </trkpt>
      <trkpt lat="44.72696" lon="2.49247">
        <ele>711.993652</ele>
        <time>2012-05-18T10:54:24Z</time>
      </trkpt>
      <trkpt lat="44.72706" lon="2.49218">
        <ele>714.877441</ele>
        <time>2012-05-18T10:54:37Z</time>
      </trkpt>
      <trkpt lat="44.72709" lon="2.49189">
        <ele>717.761475</ele>
        <time>2012-05-18T10:54:49Z</time>
      </trkpt>
      <trkpt lat="44.72694" lon="2.49165">
        <ele>720.164795</ele>
        <time>2012-05-18T10:55:02Z</time>
      </trkpt>
      <trkpt lat="44.72666" lon="2.49157">
        <ele>722.087402</ele>
        <time>2012-05-18T10:55:17Z</time>
      </trkpt>
      <trkpt lat="44.72639" lon="2.49139">
        <ele>724.971436</ele>
        <time>2012-05-18T10:55:33Z</time>
      </trkpt>
      <trkpt lat="44.7262" lon="2.49111">
        <ele>727.374756</ele>
        <time>2012-05-18T10:55:47Z</time>
      </trkpt>
      <trkpt lat="44.72598" lon="2.49081">
        <ele>729.297119</ele>
        <time>2012-05-18T10:56:03Z</time>
      </trkpt>
      <trkpt lat="44.72577" lon="2.49057">
        <ele>731.219971</ele>
        <time>2012-05-18T10:56:17Z</time>
      </trkpt>
      <trkpt lat="44.72555" lon="2.49026">
        <ele>733.142578</ele>
        <time>2012-05-18T10:56:33Z</time>
      </trkpt>
      <trkpt lat="44.72549" lon="2.49022">
        <ele>733.142578</ele>
        <time>2012-05-18T10:56:37Z</time>
      </trkpt>
      <trkpt lat="44.72538" lon="2.4904">
        <ele>735.545898</ele>
        <time>2012-05-18T10:56:48Z</time>
      </trkpt>
      <trkpt lat="44.72545" lon="2.49074">
        <ele>737.949219</ele>
        <time>2012-05-18T10:57:02Z</time>
      </trkpt>
      <trkpt lat="44.72549" lon="2.49101">
        <ele>739.871826</ele>
        <time>2012-05-18T10:57:13Z</time>
      </trkpt>
      <trkpt lat="44.72551" lon="2.49138">
        <ele>742.755859</ele>
        <time>2012-05-18T10:57:26Z</time>
      </trkpt>
      <trkpt lat="44.72551" lon="2.49192">
        <ele>745.639648</ele>
        <time>2012-05-18T10:57:45Z</time>
      </trkpt>
      <trkpt lat="44.72546" lon="2.49228">
        <ele>747.562256</ele>
        <time>2012-05-18T10:57:58Z</time>
      </trkpt>
      <trkpt lat="44.72535" lon="2.49269">
        <ele>749.004395</ele>
        <time>2012-05-18T10:58:13Z</time>
      </trkpt>
      <trkpt lat="44.72523" lon="2.49311">
        <ele>751.407715</ele>
        <time>2012-05-18T10:58:29Z</time>
      </trkpt>
      <trkpt lat="44.72514" lon="2.49348">
        <ele>753.330322</ele>
        <time>2012-05-18T10:58:43Z</time>
      </trkpt>
      <trkpt lat="44.725" lon="2.49383">
        <ele>754.772217</ele>
        <time>2012-05-18T10:58:57Z</time>
      </trkpt>
      <trkpt lat="44.7248" lon="2.49411">
        <ele>756.694824</ele>
        <time>2012-05-18T10:59:11Z</time>
      </trkpt>
      <trkpt lat="44.72456" lon="2.49432">
        <ele>758.136963</ele>
        <time>2012-05-18T10:59:24Z</time>
      </trkpt>
      <trkpt lat="44.7243" lon="2.4945">
        <ele>760.059326</ele>
        <time>2012-05-18T10:59:38Z</time>
      </trkpt>
      <trkpt lat="44.72402" lon="2.4947">
        <ele>761.982178</ele>
        <time>2012-05-18T10:59:53Z</time>
      </trkpt>
      <trkpt lat="44.72371" lon="2.4949">
        <ele>763.904541</ele>
        <time>2012-05-18T11:00:08Z</time>
      </trkpt>
      <trkpt lat="44.72327" lon="2.49519">
        <ele>766.308105</ele>
        <time>2012-05-18T11:00:27Z</time>
      </trkpt>
      <trkpt lat="44.72278" lon="2.49551">
        <ele>769.192139</ele>
        <time>2012-05-18T11:00:46Z</time>
      </trkpt>
      <trkpt lat="44.72239" lon="2.49579">
        <ele>771.595215</ele>
        <time>2012-05-18T11:01:01Z</time>
      </trkpt>
      <trkpt lat="44.72191" lon="2.49604">
        <ele>773.037354</ele>
        <time>2012-05-18T11:01:17Z</time>
      </trkpt>
      <trkpt lat="44.72157" lon="2.49616">
        <ele>775.44043</ele>
        <time>2012-05-18T11:01:31Z</time>
      </trkpt>
      <trkpt lat="44.72092" lon="2.49638">
        <ele>781.20874</ele>
        <time>2012-05-18T11:02:02Z</time>
      </trkpt>
      <trkpt lat="44.72062" lon="2.49646">
        <ele>782.169922</ele>
        <time>2012-05-18T11:02:17Z</time>
      </trkpt>
      <trkpt lat="44.72037" lon="2.49666">
        <ele>786.015137</ele>
        <time>2012-05-18T11:02:32Z</time>
      </trkpt>
      <trkpt lat="44.72002" lon="2.49701">
        <ele>786.976318</ele>
        <time>2012-05-18T11:02:51Z</time>
      </trkpt>
      <trkpt lat="44.71974" lon="2.49735">
        <ele>788.418457</ele>
        <time>2012-05-18T11:03:08Z</time>
      </trkpt>
      <trkpt lat="44.71941" lon="2.49769">
        <ele>788.89917</ele>
        <time>2012-05-18T11:03:23Z</time>
      </trkpt>
      <trkpt lat="44.71919" lon="2.49782">
        <ele>789.379639</ele>
        <time>2012-05-18T11:03:32Z</time>
      </trkpt>
      <trkpt lat="44.71879" lon="2.49798">
        <ele>791.782959</ele>
        <time>2012-05-18T11:03:45Z</time>
      </trkpt>
      <trkpt lat="44.71832" lon="2.49829">
        <ele>792.263672</ele>
        <time>2012-05-18T11:04:00Z</time>
      </trkpt>
      <trkpt lat="44.71788" lon="2.49852">
        <ele>792.744385</ele>
        <time>2012-05-18T11:04:13Z</time>
      </trkpt>
      <trkpt lat="44.7171" lon="2.49875">
        <ele>792.263672</ele>
        <time>2012-05-18T11:04:33Z</time>
      </trkpt>
      <trkpt lat="44.71636" lon="2.49907">
        <ele>792.263672</ele>
        <time>2012-05-18T11:04:51Z</time>
      </trkpt>
      <trkpt lat="44.71568" lon="2.49956">
        <ele>792.263672</ele>
        <time>2012-05-18T11:05:06Z</time>
      </trkpt>
      <trkpt lat="44.71552" lon="2.49964">
        <ele>792.744385</ele>
        <time>2012-05-18T11:05:09Z</time>
      </trkpt>
      <trkpt lat="44.71531" lon="2.49964">
        <ele>792.744385</ele>
        <time>2012-05-18T11:05:13Z</time>
      </trkpt>
      <trkpt lat="44.71492" lon="2.49944">
        <ele>793.705566</ele>
        <time>2012-05-18T11:05:21Z</time>
      </trkpt>
      <trkpt lat="44.71467" lon="2.49933">
        <ele>793.705566</ele>
        <time>2012-05-18T11:05:26Z</time>
      </trkpt>
      <trkpt lat="44.71409" lon="2.49949">
        <ele>794.666748</ele>
        <time>2012-05-18T11:05:37Z</time>
      </trkpt>
      <trkpt lat="44.71306" lon="2.50027">
        <ele>795.628174</ele>
        <time>2012-05-18T11:05:58Z</time>
      </trkpt>
      <trkpt lat="44.71239" lon="2.50087">
        <ele>796.589844</ele>
        <time>2012-05-18T11:06:13Z</time>
      </trkpt>
      <trkpt lat="44.71193" lon="2.50157">
        <ele>798.031738</ele>
        <time>2012-05-18T11:06:27Z</time>
      </trkpt>
      <trkpt lat="44.71168" lon="2.5017">
        <ele>798.99292</ele>
        <time>2012-05-18T11:06:36Z</time>
      </trkpt>
      <trkpt lat="44.71143" lon="2.50186">
        <ele>798.031738</ele>
        <time>2012-05-18T11:06:43Z</time>
      </trkpt>
      <trkpt lat="44.71095" lon="2.50182">
        <ele>794.666748</ele>
        <time>2012-05-18T11:06:51Z</time>
      </trkpt>
      <trkpt lat="44.71022" lon="2.50154">
        <ele>794.666748</ele>
        <time>2012-05-18T11:07:03Z</time>
      </trkpt>
      <trkpt lat="44.70937" lon="2.50117">
        <ele>791.302246</ele>
        <time>2012-05-18T11:07:18Z</time>
      </trkpt>
      <trkpt lat="44.70858" lon="2.50084">
        <ele>786.49585</ele>
        <time>2012-05-18T11:07:29Z</time>
      </trkpt>
      <trkpt lat="44.70845" lon="2.50079">
        <ele>785.053955</ele>
        <time>2012-05-18T11:07:31Z</time>
      </trkpt>
      <trkpt lat="44.70827" lon="2.50076">
        <ele>784.573242</ele>
        <time>2012-05-18T11:07:35Z</time>
      </trkpt>
      <trkpt lat="44.70815" lon="2.50069">
        <ele>784.573242</ele>
        <time>2012-05-18T11:07:43Z</time>
      </trkpt>
      <trkpt lat="44.70844" lon="2.50086">
        <ele>773.037354</ele>
        <time>2012-05-18T12:43:13Z</time>
      </trkpt>
      <trkpt lat="44.70863" lon="2.50095">
        <ele>798.031738</ele>
        <time>2012-05-18T12:43:17Z</time>
      </trkpt>
      <trkpt lat="44.709" lon="2.50112">
        <ele>793.705566</ele>
        <time>2012-05-18T12:43:30Z</time>
      </trkpt>
      <trkpt lat="44.70949" lon="2.50135">
        <ele>795.147461</ele>
        <time>2012-05-18T12:43:47Z</time>
      </trkpt>
      <trkpt lat="44.70987" lon="2.50149">
        <ele>797.070312</ele>
        <time>2012-05-18T12:44:00Z</time>
      </trkpt>
      <trkpt lat="44.7104" lon="2.50174">
        <ele>796.109131</ele>
        <time>2012-05-18T12:44:16Z</time>
      </trkpt>
      <trkpt lat="44.71107" lon="2.50198">
        <ele>797.070312</ele>
        <time>2012-05-18T12:44:33Z</time>
      </trkpt>
      <trkpt lat="44.7115" lon="2.50211">
        <ele>799.473633</ele>
        <time>2012-05-18T12:44:47Z</time>
      </trkpt>
      <trkpt lat="44.7115" lon="2.50236">
        <ele>798.512207</ele>
        <time>2012-05-18T12:44:54Z</time>
      </trkpt>
      <trkpt lat="44.71143" lon="2.50277">
        <ele>796.109131</ele>
        <time>2012-05-18T12:45:01Z</time>
      </trkpt>
      <trkpt lat="44.71152" lon="2.50305">
        <ele>795.147461</ele>
        <time>2012-05-18T12:45:05Z</time>
      </trkpt>
      <trkpt lat="44.71163" lon="2.50325">
        <ele>794.666748</ele>
        <time>2012-05-18T12:45:08Z</time>
      </trkpt>
      <trkpt lat="44.71206" lon="2.50362">
        <ele>793.224854</ele>
        <time>2012-05-18T12:45:16Z</time>
      </trkpt>
      <trkpt lat="44.71229" lon="2.50405">
        <ele>793.705566</ele>
        <time>2012-05-18T12:45:22Z</time>
      </trkpt>
      <trkpt lat="44.71231" lon="2.50513">
        <ele>794.666748</ele>
        <time>2012-05-18T12:45:36Z</time>
      </trkpt>
      <trkpt lat="44.71224" lon="2.50583">
        <ele>797.070312</ele>
        <time>2012-05-18T12:45:48Z</time>
      </trkpt>
      <trkpt lat="44.71213" lon="2.50674">
        <ele>800.915527</ele>
        <time>2012-05-18T12:46:07Z</time>
      </trkpt>
      <trkpt lat="44.71209" lon="2.5074">
        <ele>804.280273</ele>
        <time>2012-05-18T12:46:23Z</time>
      </trkpt>
      <trkpt lat="44.7121" lon="2.50783">
        <ele>806.68335</ele>
        <time>2012-05-18T12:46:35Z</time>
      </trkpt>
      <trkpt lat="44.71211" lon="2.50828">
        <ele>809.08667</ele>
        <time>2012-05-18T12:46:47Z</time>
      </trkpt>
      <trkpt lat="44.71211" lon="2.50863">
        <ele>810.047852</ele>
        <time>2012-05-18T12:46:59Z</time>
      </trkpt>
      <trkpt lat="44.71209" lon="2.50869">
        <ele>810.047852</ele>
        <time>2012-05-18T12:47:03Z</time>
      </trkpt>
      <trkpt lat="44.71203" lon="2.50899">
        <ele>809.08667</ele>
        <time>2012-05-18T12:47:15Z</time>
      </trkpt>
      <trkpt lat="44.71192" lon="2.50933">
        <ele>808.125488</ele>
        <time>2012-05-18T12:47:24Z</time>
      </trkpt>
      <trkpt lat="44.71188" lon="2.50949">
        <ele>807.164062</ele>
        <time>2012-05-18T12:47:27Z</time>
      </trkpt>
      <trkpt lat="44.71167" lon="2.51018">
        <ele>802.838135</ele>
        <time>2012-05-18T12:47:36Z</time>
      </trkpt>
      <trkpt lat="44.71142" lon="2.51142">
        <ele>798.031738</ele>
        <time>2012-05-18T12:47:47Z</time>
      </trkpt>
      <trkpt lat="44.71105" lon="2.51289">
        <ele>792.263672</ele>
        <time>2012-05-18T12:48:00Z</time>
      </trkpt>
      <trkpt lat="44.7108" lon="2.51348">
        <ele>787.457031</ele>
        <time>2012-05-18T12:48:05Z</time>
      </trkpt>
      <trkpt lat="44.71046" lon="2.51396">
        <ele>783.611816</ele>
        <time>2012-05-18T12:48:10Z</time>
      </trkpt>
      <trkpt lat="44.71028" lon="2.51434">
        <ele>781.20874</ele>
        <time>2012-05-18T12:48:14Z</time>
      </trkpt>
      <trkpt lat="44.71012" lon="2.51573">
        <ele>780.247314</ele>
        <time>2012-05-18T12:48:29Z</time>
      </trkpt>
      <trkpt lat="44.70893" lon="2.51762">
        <ele>786.49585</ele>
        <time>2012-05-18T12:49:15Z</time>
      </trkpt>
      <trkpt lat="44.70858" lon="2.51837">
        <ele>786.49585</ele>
        <time>2012-05-18T12:49:29Z</time>
      </trkpt>
      <trkpt lat="44.70792" lon="2.5192">
        <ele>787.457031</ele>
        <time>2012-05-18T12:49:43Z</time>
      </trkpt>
      <trkpt lat="44.70715" lon="2.52019">
        <ele>786.976318</ele>
        <time>2012-05-18T12:50:00Z</time>
      </trkpt>
      <trkpt lat="44.70632" lon="2.52101">
        <ele>784.092529</ele>
        <time>2012-05-18T12:50:15Z</time>
      </trkpt>
      <trkpt lat="44.70563" lon="2.52162">
        <ele>785.053955</ele>
        <time>2012-05-18T12:50:29Z</time>
      </trkpt>
      <trkpt lat="44.70253" lon="2.52475">
        <ele>782.169922</ele>
        <time>2012-05-18T12:51:35Z</time>
      </trkpt>
      <trkpt lat="44.70225" lon="2.52508">
        <ele>781.689209</ele>
        <time>2012-05-18T12:51:39Z</time>
      </trkpt>
      <trkpt lat="44.70211" lon="2.52562">
        <ele>779.285645</ele>
        <time>2012-05-18T12:51:44Z</time>
      </trkpt>
      <trkpt lat="44.70191" lon="2.52666">
        <ele>771.595215</ele>
        <time>2012-05-18T12:51:52Z</time>
      </trkpt>
      <trkpt lat="44.70173" lon="2.52802">
        <ele>757.65625</ele>
        <time>2012-05-18T12:52:00Z</time>
      </trkpt>
      <trkpt lat="44.7017" lon="2.52862">
        <ele>752.849609</ele>
        <time>2012-05-18T12:52:03Z</time>
      </trkpt>
      <trkpt lat="44.70183" lon="2.52961">
        <ele>749.004395</ele>
        <time>2012-05-18T12:52:08Z</time>
      </trkpt>
      <trkpt lat="44.70237" lon="2.5316">
        <ele>739.391113</ele>
        <time>2012-05-18T12:52:20Z</time>
      </trkpt>
      <trkpt lat="44.7026" lon="2.5324">
        <ele>729.297119</ele>
        <time>2012-05-18T12:52:25Z</time>
      </trkpt>
      <trkpt lat="44.70267" lon="2.53369">
        <ele>717.281006</ele>
        <time>2012-05-18T12:52:32Z</time>
      </trkpt>
      <trkpt lat="44.7025" lon="2.53452">
        <ele>709.590332</ele>
        <time>2012-05-18T12:52:37Z</time>
      </trkpt>
      <trkpt lat="44.70222" lon="2.53495">
        <ele>704.303223</ele>
        <time>2012-05-18T12:52:41Z</time>
      </trkpt>
      <trkpt lat="44.70198" lon="2.53519">
        <ele>700.938477</ele>
        <time>2012-05-18T12:52:44Z</time>
      </trkpt>
      <trkpt lat="44.70191" lon="2.53568">
        <ele>694.689697</ele>
        <time>2012-05-18T12:52:49Z</time>
      </trkpt>
      <trkpt lat="44.70211" lon="2.53593">
        <ele>689.883301</ele>
        <time>2012-05-18T12:52:53Z</time>
      </trkpt>
      <trkpt lat="44.70228" lon="2.53594">
        <ele>686.999268</ele>
        <time>2012-05-18T12:52:55Z</time>
      </trkpt>
      <trkpt lat="44.70253" lon="2.5362">
        <ele>679.308594</ele>
        <time>2012-05-18T12:53:01Z</time>
      </trkpt>
      <trkpt lat="44.70252" lon="2.53632">
        <ele>677.866699</ele>
        <time>2012-05-18T12:53:02Z</time>
      </trkpt>
      <trkpt lat="44.70258" lon="2.53749">
        <ele>670.656982</ele>
        <time>2012-05-18T12:53:10Z</time>
      </trkpt>
      <trkpt lat="44.70287" lon="2.53899">
        <ele>667.292236</ele>
        <time>2012-05-18T12:53:21Z</time>
      </trkpt>
      <trkpt lat="44.70322" lon="2.54015">
        <ele>664.888916</ele>
        <time>2012-05-18T12:53:32Z</time>
      </trkpt>
      <trkpt lat="44.70366" lon="2.54128">
        <ele>658.159912</ele>
        <time>2012-05-18T12:53:41Z</time>
      </trkpt>
      <trkpt lat="44.70384" lon="2.54175">
        <ele>655.756592</ele>
        <time>2012-05-18T12:53:45Z</time>
      </trkpt>
      <trkpt lat="44.70391" lon="2.54201">
        <ele>654.795166</ele>
        <time>2012-05-18T12:53:47Z</time>
      </trkpt>
      <trkpt lat="44.70383" lon="2.5427">
        <ele>650.469238</ele>
        <time>2012-05-18T12:53:52Z</time>
      </trkpt>
      <trkpt lat="44.70356" lon="2.54347">
        <ele>647.104492</ele>
        <time>2012-05-18T12:53:58Z</time>
      </trkpt>
      <trkpt lat="44.70335" lon="2.54468">
        <ele>642.778809</ele>
        <time>2012-05-18T12:54:08Z</time>
      </trkpt>
      <trkpt lat="44.70334" lon="2.54492">
        <ele>641.33667</ele>
        <time>2012-05-18T12:54:11Z</time>
      </trkpt>
      <trkpt lat="44.70345" lon="2.54495">
        <ele>639.894775</ele>
        <time>2012-05-18T12:54:16Z</time>
      </trkpt>
      <trkpt lat="44.70383" lon="2.54448">
        <ele>637.972168</ele>
        <time>2012-05-18T12:54:27Z</time>
      </trkpt>
      <trkpt lat="44.70425" lon="2.54386">
        <ele>636.530273</ele>
        <time>2012-05-18T12:54:37Z</time>
      </trkpt>
      <trkpt lat="44.70496" lon="2.54392">
        <ele>634.126709</ele>
        <time>2012-05-18T12:54:46Z</time>
      </trkpt>
      <trkpt lat="44.70551" lon="2.54397">
        <ele>632.684814</ele>
        <time>2012-05-18T12:54:52Z</time>
      </trkpt>
      <trkpt lat="44.70592" lon="2.54367">
        <ele>631.723389</ele>
        <time>2012-05-18T12:54:58Z</time>
      </trkpt>
      <trkpt lat="44.70636" lon="2.54276">
        <ele>622.110352</ele>
        <time>2012-05-18T12:55:08Z</time>
      </trkpt>
      <trkpt lat="44.70646" lon="2.54164">
        <ele>616.342285</ele>
        <time>2012-05-18T12:55:18Z</time>
      </trkpt>
      <trkpt lat="44.70635" lon="2.54015">
        <ele>614.419678</ele>
        <time>2012-05-18T12:55:35Z</time>
      </trkpt>
      <trkpt lat="44.70635" lon="2.54007">
        <ele>614.419678</ele>
        <time>2012-05-18T12:55:37Z</time>
      </trkpt>
      <trkpt lat="44.70612" lon="2.53967">
        <ele>612.49707</ele>
        <time>2012-05-18T12:55:52Z</time>
      </trkpt>
      <trkpt lat="44.70614" lon="2.53918">
        <ele>609.132568</ele>
        <time>2012-05-18T12:56:09Z</time>
      </trkpt>
      <trkpt lat="44.70604" lon="2.53863">
        <ele>607.209961</ele>
        <time>2012-05-18T12:56:27Z</time>
      </trkpt>
      <trkpt lat="44.70485" lon="2.53641">
        <ele>610.574463</ele>
        <time>2012-05-18T12:57:49Z</time>
      </trkpt>
      <trkpt lat="44.70487" lon="2.5364">
        <ele>609.132568</ele>
        <time>2012-05-18T12:58:14Z</time>
      </trkpt>
      <trkpt lat="44.70493" lon="2.5363">
        <ele>608.651855</ele>
        <time>2012-05-18T12:58:20Z</time>
      </trkpt>
      <trkpt lat="44.70523" lon="2.53582">
        <ele>607.690674</ele>
        <time>2012-05-18T12:58:29Z</time>
      </trkpt>
      <trkpt lat="44.70569" lon="2.5343">
        <ele>606.729248</ele>
        <time>2012-05-18T12:58:53Z</time>
      </trkpt>
      <trkpt lat="44.70578" lon="2.53424">
        <ele>606.248535</ele>
        <time>2012-05-18T12:58:55Z</time>
      </trkpt>
      <trkpt lat="44.70791" lon="2.53283">
        <ele>605.287354</ele>
        <time>2012-05-18T12:59:24Z</time>
      </trkpt>
      <trkpt lat="44.70868" lon="2.53208">
        <ele>606.729248</ele>
        <time>2012-05-18T12:59:38Z</time>
      </trkpt>
      <trkpt lat="44.70938" lon="2.53131">
        <ele>604.806641</ele>
        <time>2012-05-18T12:59:53Z</time>
      </trkpt>
      <trkpt lat="44.70949" lon="2.53145">
        <ele>604.326172</ele>
        <time>2012-05-18T12:59:57Z</time>
      </trkpt>
      <trkpt lat="44.7094" lon="2.53176">
        <ele>603.845215</ele>
        <time>2012-05-18T13:00:02Z</time>
      </trkpt>
      <trkpt lat="44.70919" lon="2.53263">
        <ele>602.883789</ele>
        <time>2012-05-18T13:00:11Z</time>
      </trkpt>
      <trkpt lat="44.70745" lon="2.53619">
        <ele>600.961182</ele>
        <time>2012-05-18T13:00:48Z</time>
      </trkpt>
      <trkpt lat="44.7074" lon="2.53628">
        <ele>591.828857</ele>
        <time>2012-05-18T13:00:54Z</time>
      </trkpt>
      <trkpt lat="44.70753" lon="2.53619">
        <ele>591.348145</ele>
        <time>2012-05-18T13:00:59Z</time>
      </trkpt>
      <trkpt lat="44.7077" lon="2.53617">
        <ele>591.348145</ele>
        <time>2012-05-18T13:01:02Z</time>
      </trkpt>
      <trkpt lat="44.70841" lon="2.53649">
        <ele>591.348145</ele>
        <time>2012-05-18T13:01:11Z</time>
      </trkpt>
      <trkpt lat="44.70932" lon="2.53706">
        <ele>589.90625</ele>
        <time>2012-05-18T13:01:23Z</time>
      </trkpt>
      <trkpt lat="44.71001" lon="2.53714">
        <ele>589.90625</ele>
        <time>2012-05-18T13:01:31Z</time>
      </trkpt>
      <trkpt lat="44.71163" lon="2.53589">
        <ele>589.425537</ele>
        <time>2012-05-18T13:01:51Z</time>
      </trkpt>
      <trkpt lat="44.71125" lon="2.53372">
        <ele>587.021973</ele>
        <time>2012-05-18T13:01:54Z</time>
      </trkpt>
      <trkpt lat="44.71132" lon="2.53356">
        <ele>583.176758</ele>
        <time>2012-05-18T13:01:57Z</time>
      </trkpt>
      <trkpt lat="44.71134" lon="2.53361">
        <ele>578.851074</ele>
        <time>2012-05-18T13:01:59Z</time>
      </trkpt>
      <trkpt lat="44.7111" lon="2.53485">
        <ele>574.044434</ele>
        <time>2012-05-18T13:02:06Z</time>
      </trkpt>
      <trkpt lat="44.71107" lon="2.53507">
        <ele>573.563965</ele>
        <time>2012-05-18T13:02:09Z</time>
      </trkpt>
      <trkpt lat="44.70971" lon="2.54028">
        <ele>543.282104</ele>
        <time>2012-05-18T13:02:56Z</time>
      </trkpt>
      <trkpt lat="44.70959" lon="2.54036">
        <ele>543.282104</ele>
        <time>2012-05-18T13:02:58Z</time>
      </trkpt>
      <trkpt lat="44.70932" lon="2.54047">
        <ele>542.801514</ele>
        <time>2012-05-18T13:03:03Z</time>
      </trkpt>
      <trkpt lat="44.70919" lon="2.53952">
        <ele>542.801514</ele>
        <time>2012-05-18T13:03:10Z</time>
      </trkpt>
      <trkpt lat="44.70945" lon="2.53966">
        <ele>542.801514</ele>
        <time>2012-05-18T13:03:13Z</time>
      </trkpt>
      <trkpt lat="44.70944" lon="2.54011">
        <ele>524.536499</ele>
        <time>2012-05-18T13:03:22Z</time>
      </trkpt>
      <trkpt lat="44.70963" lon="2.54107">
        <ele>521.171997</ele>
        <time>2012-05-18T13:03:34Z</time>
      </trkpt>
      <trkpt lat="44.71" lon="2.54096">
        <ele>520.210571</ele>
        <time>2012-05-18T13:03:37Z</time>
      </trkpt>
      <trkpt lat="44.71021" lon="2.54087">
        <ele>520.210571</ele>
        <time>2012-05-18T13:03:40Z</time>
      </trkpt>
      <trkpt lat="44.71019" lon="2.54128">
        <ele>517.32666</ele>
        <time>2012-05-18T13:03:45Z</time>
      </trkpt>
      <trkpt lat="44.7103" lon="2.54308">
        <ele>513.481445</ele>
        <time>2012-05-18T13:04:04Z</time>
      </trkpt>
      <trkpt lat="44.71047" lon="2.54362">
        <ele>508.674683</ele>
        <time>2012-05-18T13:04:10Z</time>
      </trkpt>
      <trkpt lat="44.71028" lon="2.54511">
        <ele>504.348877</ele>
        <time>2012-05-18T13:04:24Z</time>
      </trkpt>
      <trkpt lat="44.71026" lon="2.54564">
        <ele>503.387451</ele>
        <time>2012-05-18T13:04:29Z</time>
      </trkpt>
      <trkpt lat="44.7103" lon="2.54638">
        <ele>499.061523</ele>
        <time>2012-05-18T13:04:37Z</time>
      </trkpt>
      <trkpt lat="44.7111" lon="2.54622">
        <ele>499.061523</ele>
        <time>2012-05-18T13:04:39Z</time>
      </trkpt>
      <trkpt lat="44.71093" lon="2.54584">
        <ele>494.735596</ele>
        <time>2012-05-18T13:04:41Z</time>
      </trkpt>
      <trkpt lat="44.71186" lon="2.54649">
        <ele>488.967773</ele>
        <time>2012-05-18T13:04:50Z</time>
      </trkpt>
      <trkpt lat="44.71192" lon="2.54702">
        <ele>477.431885</ele>
        <time>2012-05-18T13:04:55Z</time>
      </trkpt>
      <trkpt lat="44.71181" lon="2.54729">
        <ele>469.260742</ele>
        <time>2012-05-18T13:04:58Z</time>
      </trkpt>
      <trkpt lat="44.71205" lon="2.5482">
        <ele>459.647583</ele>
        <time>2012-05-18T13:05:06Z</time>
      </trkpt>
      <trkpt lat="44.71228" lon="2.54849">
        <ele>449.553711</ele>
        <time>2012-05-18T13:05:10Z</time>
      </trkpt>
      <trkpt lat="44.71249" lon="2.54995">
        <ele>439.94043</ele>
        <time>2012-05-18T13:05:24Z</time>
      </trkpt>
      <trkpt lat="44.71246" lon="2.5501">
        <ele>430.807983</ele>
        <time>2012-05-18T13:05:31Z</time>
      </trkpt>
      <trkpt lat="44.71206" lon="2.54989">
        <ele>329.388916</ele>
        <time>2012-05-18T13:05:43Z</time>
      </trkpt>
      <trkpt lat="44.71209" lon="2.54984">
        <ele>320.737061</ele>
        <time>2012-05-18T13:09:25Z</time>
      </trkpt>
      <trkpt lat="44.71209" lon="2.54989">
        <ele>318.814331</ele>
        <time>2012-05-18T13:09:40Z</time>
      </trkpt>
      <trkpt lat="44.71208" lon="2.54989">
        <ele>324.101562</ele>
        <time>2012-05-18T13:10:05Z</time>
      </trkpt>
      <trkpt lat="44.7121" lon="2.54994">
        <ele>329.869507</ele>
        <time>2012-05-18T13:10:52Z</time>
      </trkpt>
      <trkpt lat="44.71214" lon="2.54991">
        <ele>321.698364</ele>
        <time>2012-05-18T13:11:26Z</time>
      </trkpt>
      <trkpt lat="44.71213" lon="2.54991">
        <ele>325.543579</ele>
        <time>2012-05-18T13:11:47Z</time>
      </trkpt>
      <trkpt lat="44.71213" lon="2.54995">
        <ele>328.427612</ele>
        <time>2012-05-18T13:12:17Z</time>
      </trkpt>
      <trkpt lat="44.71211" lon="2.54999">
        <ele>339.482666</ele>
        <time>2012-05-18T13:12:51Z</time>
      </trkpt>
      <trkpt lat="44.71212" lon="2.54999">
        <ele>334.195435</ele>
        <time>2012-05-18T13:13:27Z</time>
      </trkpt>
      <trkpt lat="44.71212" lon="2.55">
        <ele>339.482666</ele>
        <time>2012-05-18T13:13:43Z</time>
      </trkpt>
      <trkpt lat="44.71209" lon="2.54999">
        <ele>339.963379</ele>
        <time>2012-05-18T13:14:41Z</time>
      </trkpt>
      <trkpt lat="44.71211" lon="2.55002">
        <ele>340.444092</ele>
        <time>2012-05-18T13:15:07Z</time>
      </trkpt>
      <trkpt lat="44.71212" lon="2.55003">
        <ele>340.444092</ele>
        <time>2012-05-18T13:15:19Z</time>
      </trkpt>
      <trkpt lat="44.71212" lon="2.55005">
        <ele>342.84729</ele>
        <time>2012-05-18T13:15:30Z</time>
      </trkpt>
      <trkpt lat="44.71216" lon="2.5502">
        <ele>341.405273</ele>
        <time>2012-05-18T13:15:35Z</time>
      </trkpt>
      <trkpt lat="44.71256" lon="2.55065">
        <ele>331.311523</ele>
        <time>2012-05-18T13:15:44Z</time>
      </trkpt>
      <trkpt lat="44.71268" lon="2.55079">
        <ele>329.388916</ele>
        <time>2012-05-18T13:15:46Z</time>
      </trkpt>
      <trkpt lat="44.71329" lon="2.55203">
        <ele>319.295044</ele>
        <time>2012-05-18T13:15:57Z</time>
      </trkpt>
      <trkpt lat="44.71398" lon="2.55275">
        <ele>311.123779</ele>
        <time>2012-05-18T13:16:05Z</time>
      </trkpt>
      <trkpt lat="44.7144" lon="2.55282">
        <ele>306.317261</ele>
        <time>2012-05-18T13:16:10Z</time>
      </trkpt>
      <trkpt lat="44.71472" lon="2.5529">
        <ele>302.471924</ele>
        <time>2012-05-18T13:16:14Z</time>
      </trkpt>
      <trkpt lat="44.71488" lon="2.55331">
        <ele>297.665405</ele>
        <time>2012-05-18T13:16:18Z</time>
      </trkpt>
      <trkpt lat="44.7149" lon="2.55378">
        <ele>296.223511</ele>
        <time>2012-05-18T13:16:22Z</time>
      </trkpt>
      <trkpt lat="44.71485" lon="2.55446">
        <ele>297.184692</ele>
        <time>2012-05-18T13:16:31Z</time>
      </trkpt>
      <trkpt lat="44.71484" lon="2.55459">
        <ele>296.704102</ele>
        <time>2012-05-18T13:16:33Z</time>
      </trkpt>
      <trkpt lat="44.71477" lon="2.55487">
        <ele>295.742676</ele>
        <time>2012-05-18T13:16:37Z</time>
      </trkpt>
      <trkpt lat="44.71489" lon="2.55536">
        <ele>294.300781</ele>
        <time>2012-05-18T13:16:43Z</time>
      </trkpt>
      <trkpt lat="44.71516" lon="2.55596">
        <ele>291.897461</ele>
        <time>2012-05-18T13:16:49Z</time>
      </trkpt>
      <trkpt lat="44.71532" lon="2.5563">
        <ele>290.936157</ele>
        <time>2012-05-18T13:16:52Z</time>
      </trkpt>
      <trkpt lat="44.71547" lon="2.55646">
        <ele>290.455566</ele>
        <time>2012-05-18T13:16:55Z</time>
      </trkpt>
      <trkpt lat="44.71567" lon="2.5567">
        <ele>289.494141</ele>
        <time>2012-05-18T13:17:01Z</time>
      </trkpt>
      <trkpt lat="44.71523" lon="2.55708">
        <ele>287.09082</ele>
        <time>2012-05-18T13:17:11Z</time>
      </trkpt>
      <trkpt lat="44.71309" lon="2.55854">
        <ele>282.765015</ele>
        <time>2012-05-18T13:17:51Z</time>
      </trkpt>
      <trkpt lat="44.7122" lon="2.55923">
        <ele>278.438965</ele>
        <time>2012-05-18T13:18:06Z</time>
      </trkpt>
      <trkpt lat="44.71193" lon="2.5599">
        <ele>277.477661</ele>
        <time>2012-05-18T13:18:16Z</time>
      </trkpt>
      <trkpt lat="44.71154" lon="2.56099">
        <ele>275.555054</ele>
        <time>2012-05-18T13:18:33Z</time>
      </trkpt>
      <trkpt lat="44.71148" lon="2.56119">
        <ele>276.516357</ele>
        <time>2012-05-18T13:18:36Z</time>
      </trkpt>
      <trkpt lat="44.71137" lon="2.56216">
        <ele>275.074463</ele>
        <time>2012-05-18T13:18:50Z</time>
      </trkpt>
      <trkpt lat="44.71128" lon="2.56303">
        <ele>275.074463</ele>
        <time>2012-05-18T13:19:03Z</time>
      </trkpt>
      <trkpt lat="44.71113" lon="2.56385">
        <ele>274.59375</ele>
        <time>2012-05-18T13:19:15Z</time>
      </trkpt>
      <trkpt lat="44.71103" lon="2.56423">
        <ele>273.632446</ele>
        <time>2012-05-18T13:19:20Z</time>
      </trkpt>
      <trkpt lat="44.71101" lon="2.56446">
        <ele>273.151855</ele>
        <time>2012-05-18T13:19:23Z</time>
      </trkpt>
      <trkpt lat="44.71102" lon="2.56468">
        <ele>272.671143</ele>
        <time>2012-05-18T13:19:26Z</time>
      </trkpt>
      <trkpt lat="44.71085" lon="2.56513">
        <ele>272.19043</ele>
        <time>2012-05-18T13:19:33Z</time>
      </trkpt>
      <trkpt lat="44.7106" lon="2.56532">
        <ele>271.229126</ele>
        <time>2012-05-18T13:19:38Z</time>
      </trkpt>
      <trkpt lat="44.71043" lon="2.56561">
        <ele>271.709717</ele>
        <time>2012-05-18T13:19:43Z</time>
      </trkpt>
      <trkpt lat="44.71007" lon="2.56649">
        <ele>272.19043</ele>
        <time>2012-05-18T13:19:55Z</time>
      </trkpt>
      <trkpt lat="44.70946" lon="2.56758">
        <ele>271.709717</ele>
        <time>2012-05-18T13:20:11Z</time>
      </trkpt>
      <trkpt lat="44.70892" lon="2.56829">
        <ele>274.113037</ele>
        <time>2012-05-18T13:20:24Z</time>
      </trkpt>
      <trkpt lat="44.70824" lon="2.5689">
        <ele>274.113037</ele>
        <time>2012-05-18T13:20:39Z</time>
      </trkpt>
      <trkpt lat="44.70773" lon="2.56915">
        <ele>274.113037</ele>
        <time>2012-05-18T13:20:51Z</time>
      </trkpt>
      <trkpt lat="44.70678" lon="2.56867">
        <ele>274.113037</ele>
        <time>2012-05-18T13:21:23Z</time>
      </trkpt>
      <trkpt lat="44.70658" lon="2.56798">
        <ele>274.113037</ele>
        <time>2012-05-18T13:21:36Z</time>
      </trkpt>
      <trkpt lat="44.70659" lon="2.567">
        <ele>275.074463</ele>
        <time>2012-05-18T13:21:52Z</time>
      </trkpt>
      <trkpt lat="44.7066" lon="2.56633">
        <ele>275.555054</ele>
        <time>2012-05-18T13:22:04Z</time>
      </trkpt>
      <trkpt lat="44.7062" lon="2.56604">
        <ele>274.59375</ele>
        <time>2012-05-18T13:22:11Z</time>
      </trkpt>
      <trkpt lat="44.70599" lon="2.56608">
        <ele>274.59375</ele>
        <time>2012-05-18T13:22:14Z</time>
      </trkpt>
      <trkpt lat="44.70523" lon="2.56654">
        <ele>277.958252</ele>
        <time>2012-05-18T13:22:26Z</time>
      </trkpt>
      <trkpt lat="44.7051" lon="2.56667">
        <ele>277.958252</ele>
        <time>2012-05-18T13:22:29Z</time>
      </trkpt>
      <trkpt lat="44.70442" lon="2.56759">
        <ele>281.322998</ele>
        <time>2012-05-18T13:22:46Z</time>
      </trkpt>
      <trkpt lat="44.70376" lon="2.5679">
        <ele>283.726196</ele>
        <time>2012-05-18T13:23:03Z</time>
      </trkpt>
      <trkpt lat="44.70337" lon="2.56782">
        <ele>283.726196</ele>
        <time>2012-05-18T13:23:14Z</time>
      </trkpt>
      <trkpt lat="44.70305" lon="2.56778">
        <ele>284.206909</ele>
        <time>2012-05-18T13:23:23Z</time>
      </trkpt>
      <trkpt lat="44.70257" lon="2.56831">
        <ele>286.610229</ele>
        <time>2012-05-18T13:23:38Z</time>
      </trkpt>
      <trkpt lat="44.70207" lon="2.56872">
        <ele>286.610229</ele>
        <time>2012-05-18T13:23:53Z</time>
      </trkpt>
      <trkpt lat="44.70165" lon="2.56867">
        <ele>287.09082</ele>
        <time>2012-05-18T13:24:07Z</time>
      </trkpt>
      <trkpt lat="44.70136" lon="2.56841">
        <ele>289.01355</ele>
        <time>2012-05-18T13:24:19Z</time>
      </trkpt>
      <trkpt lat="44.70116" lon="2.56799">
        <ele>289.494141</ele>
        <time>2012-05-18T13:24:31Z</time>
      </trkpt>
      <trkpt lat="44.70079" lon="2.56755">
        <ele>290.455566</ele>
        <time>2012-05-18T13:24:47Z</time>
      </trkpt>
      <trkpt lat="44.7005" lon="2.56729">
        <ele>292.858765</ele>
        <time>2012-05-18T13:25:00Z</time>
      </trkpt>
      <trkpt lat="44.70012" lon="2.56695">
        <ele>295.261963</ele>
        <time>2012-05-18T13:25:15Z</time>
      </trkpt>
      <trkpt lat="44.69976" lon="2.56652">
        <ele>299.588013</ele>
        <time>2012-05-18T13:25:30Z</time>
      </trkpt>
      <trkpt lat="44.6994" lon="2.56645">
        <ele>303.433228</ele>
        <time>2012-05-18T13:25:42Z</time>
      </trkpt>
      <trkpt lat="44.69917" lon="2.56662">
        <ele>307.759277</ele>
        <time>2012-05-18T13:25:55Z</time>
      </trkpt>
      <trkpt lat="44.69916" lon="2.56667">
        <ele>309.201172</ele>
        <time>2012-05-18T13:26:06Z</time>
      </trkpt>
      <trkpt lat="44.69915" lon="2.56668">
        <ele>312.085205</ele>
        <time>2012-05-18T13:26:21Z</time>
      </trkpt>
      <trkpt lat="44.69906" lon="2.56683">
        <ele>311.123779</ele>
        <time>2012-05-18T13:26:27Z</time>
      </trkpt>
      <trkpt lat="44.69896" lon="2.56694">
        <ele>310.643066</ele>
        <time>2012-05-18T13:26:30Z</time>
      </trkpt>
      <trkpt lat="44.69846" lon="2.56768">
        <ele>307.278564</ele>
        <time>2012-05-18T13:26:40Z</time>
      </trkpt>
      <trkpt lat="44.69809" lon="2.56817">
        <ele>305.355957</ele>
        <time>2012-05-18T13:26:46Z</time>
      </trkpt>
      <trkpt lat="44.6972" lon="2.56884">
        <ele>299.1073</ele>
        <time>2012-05-18T13:26:56Z</time>
      </trkpt>
      <trkpt lat="44.69629" lon="2.56949">
        <ele>292.378174</ele>
        <time>2012-05-18T13:27:06Z</time>
      </trkpt>
      <trkpt lat="44.69518" lon="2.56996">
        <ele>286.610229</ele>
        <time>2012-05-18T13:27:17Z</time>
      </trkpt>
      <trkpt lat="44.69459" lon="2.57017">
        <ele>284.687622</ele>
        <time>2012-05-18T13:27:23Z</time>
      </trkpt>
      <trkpt lat="44.69439" lon="2.57064">
        <ele>281.322998</ele>
        <time>2012-05-18T13:27:28Z</time>
      </trkpt>
      <trkpt lat="44.69434" lon="2.5715">
        <ele>278.919678</ele>
        <time>2012-05-18T13:27:35Z</time>
      </trkpt>
      <trkpt lat="44.69418" lon="2.57179">
        <ele>278.438965</ele>
        <time>2012-05-18T13:27:40Z</time>
      </trkpt>
      <trkpt lat="44.69417" lon="2.57183">
        <ele>278.438965</ele>
        <time>2012-05-18T13:27:46Z</time>
      </trkpt>
      <trkpt lat="44.69417" lon="2.57183">
        <ele>277.477661</ele>
        <time>2012-05-18T13:28:05Z</time>
      </trkpt>
      <trkpt lat="44.69418" lon="2.57185">
        <ele>275.555054</ele>
        <time>2012-05-18T13:28:25Z</time>
      </trkpt>
      <trkpt lat="44.69418" lon="2.57187">
        <ele>275.074463</ele>
        <time>2012-05-18T13:28:39Z</time>
      </trkpt>
      <trkpt lat="44.69417" lon="2.57186">
        <ele>273.632446</ele>
        <time>2012-05-18T13:29:06Z</time>
      </trkpt>
      <trkpt lat="44.69417" lon="2.57187">
        <ele>279.400269</ele>
        <time>2012-05-18T13:32:23Z</time>
      </trkpt>
      <trkpt lat="44.69418" lon="2.57187">
        <ele>276.99707</ele>
        <time>2012-05-18T13:33:52Z</time>
      </trkpt>
      <trkpt lat="44.6942" lon="2.57186">
        <ele>275.555054</ele>
        <time>2012-05-18T13:34:40Z</time>
      </trkpt>
      <trkpt lat="44.6942" lon="2.57186">
        <ele>273.151855</ele>
        <time>2012-05-18T13:35:04Z</time>
      </trkpt>
      <trkpt lat="44.69423" lon="2.57187">
        <ele>274.113037</ele>
        <time>2012-05-18T13:35:44Z</time>
      </trkpt>
      <trkpt lat="44.69422" lon="2.57187">
        <ele>274.59375</ele>
        <time>2012-05-18T13:36:10Z</time>
      </trkpt>
      <trkpt lat="44.69422" lon="2.57189">
        <ele>273.632446</ele>
        <time>2012-05-18T13:37:26Z</time>
      </trkpt>
      <trkpt lat="44.69424" lon="2.5719">
        <ele>274.59375</ele>
        <time>2012-05-18T13:37:39Z</time>
      </trkpt>
      <trkpt lat="44.69436" lon="2.57196">
        <ele>276.035645</ele>
        <time>2012-05-18T13:37:47Z</time>
      </trkpt>
      <trkpt lat="44.69444" lon="2.57211">
        <ele>276.516357</ele>
        <time>2012-05-18T13:37:58Z</time>
      </trkpt>
      <trkpt lat="44.69452" lon="2.57223">
        <ele>278.438965</ele>
        <time>2012-05-18T13:38:05Z</time>
      </trkpt>
      <trkpt lat="44.69462" lon="2.5724">
        <ele>280.361694</ele>
        <time>2012-05-18T13:38:15Z</time>
      </trkpt>
      <trkpt lat="44.69475" lon="2.57261">
        <ele>282.765015</ele>
        <time>2012-05-18T13:38:28Z</time>
      </trkpt>
      <trkpt lat="44.69485" lon="2.57286">
        <ele>285.168213</ele>
        <time>2012-05-18T13:38:41Z</time>
      </trkpt>
      <trkpt lat="44.69492" lon="2.57306">
        <ele>287.09082</ele>
        <time>2012-05-18T13:38:50Z</time>
      </trkpt>
      <trkpt lat="44.69501" lon="2.57337">
        <ele>289.494141</ele>
        <time>2012-05-18T13:39:05Z</time>
      </trkpt>
      <trkpt lat="44.69502" lon="2.57346">
        <ele>289.974854</ele>
        <time>2012-05-18T13:39:09Z</time>
      </trkpt>
      <trkpt lat="44.69509" lon="2.57371">
        <ele>289.01355</ele>
        <time>2012-05-18T13:39:21Z</time>
      </trkpt>
      <trkpt lat="44.69515" lon="2.57394">
        <ele>290.936157</ele>
        <time>2012-05-18T13:39:31Z</time>
      </trkpt>
      <trkpt lat="44.69521" lon="2.57424">
        <ele>293.820068</ele>
        <time>2012-05-18T13:39:44Z</time>
      </trkpt>
      <trkpt lat="44.69527" lon="2.57448">
        <ele>297.184692</ele>
        <time>2012-05-18T13:39:55Z</time>
      </trkpt>
      <trkpt lat="44.69532" lon="2.57479">
        <ele>298.626709</ele>
        <time>2012-05-18T13:40:08Z</time>
      </trkpt>
      <trkpt lat="44.69537" lon="2.57521">
        <ele>301.51062</ele>
        <time>2012-05-18T13:40:23Z</time>
      </trkpt>
      <trkpt lat="44.69539" lon="2.57534">
        <ele>302.471924</ele>
        <time>2012-05-18T13:40:28Z</time>
      </trkpt>
      <trkpt lat="44.6954" lon="2.57573">
        <ele>304.394653</ele>
        <time>2012-05-18T13:40:42Z</time>
      </trkpt>
      <trkpt lat="44.69547" lon="2.57611">
        <ele>306.317261</ele>
        <time>2012-05-18T13:40:56Z</time>
      </trkpt>
      <trkpt lat="44.69555" lon="2.57634">
        <ele>306.797852</ele>
        <time>2012-05-18T13:41:07Z</time>
      </trkpt>
      <trkpt lat="44.69566" lon="2.57658">
        <ele>305.83667</ele>
        <time>2012-05-18T13:41:17Z</time>
      </trkpt>
      <trkpt lat="44.69576" lon="2.57686">
        <ele>309.681885</ele>
        <time>2012-05-18T13:41:29Z</time>
      </trkpt>
      <trkpt lat="44.69568" lon="2.5772">
        <ele>312.565796</ele>
        <time>2012-05-18T13:41:44Z</time>
      </trkpt>
      <trkpt lat="44.69559" lon="2.57748">
        <ele>314.007812</ele>
        <time>2012-05-18T13:41:57Z</time>
      </trkpt>
      <trkpt lat="44.69556" lon="2.57775">
        <ele>315.93042</ele>
        <time>2012-05-18T13:42:09Z</time>
      </trkpt>
      <trkpt lat="44.69556" lon="2.57778">
        <ele>315.93042</ele>
        <time>2012-05-18T13:42:11Z</time>
      </trkpt>
      <trkpt lat="44.69556" lon="2.57817">
        <ele>315.449829</ele>
        <time>2012-05-18T13:42:24Z</time>
      </trkpt>
      <trkpt lat="44.69556" lon="2.57822">
        <ele>315.449829</ele>
        <time>2012-05-18T13:42:25Z</time>
      </trkpt>
      <trkpt lat="44.69562" lon="2.57903">
        <ele>312.085205</ele>
        <time>2012-05-18T13:42:33Z</time>
      </trkpt>
      <trkpt lat="44.69561" lon="2.5799">
        <ele>309.201172</ele>
        <time>2012-05-18T13:42:40Z</time>
      </trkpt>
      <trkpt lat="44.69572" lon="2.58042">
        <ele>308.239868</ele>
        <time>2012-05-18T13:42:45Z</time>
      </trkpt>
      <trkpt lat="44.69601" lon="2.5813">
        <ele>306.797852</ele>
        <time>2012-05-18T13:42:56Z</time>
      </trkpt>
      <trkpt lat="44.69614" lon="2.58172">
        <ele>308.720459</ele>
        <time>2012-05-18T13:43:06Z</time>
      </trkpt>
      <trkpt lat="44.6961" lon="2.58198">
        <ele>306.797852</ele>
        <time>2012-05-18T13:43:15Z</time>
      </trkpt>
      <trkpt lat="44.69595" lon="2.58267">
        <ele>307.759277</ele>
        <time>2012-05-18T13:43:29Z</time>
      </trkpt>
      <trkpt lat="44.69594" lon="2.58297">
        <ele>307.278564</ele>
        <time>2012-05-18T13:43:37Z</time>
      </trkpt>
      <trkpt lat="44.696" lon="2.58338">
        <ele>307.278564</ele>
        <time>2012-05-18T13:43:47Z</time>
      </trkpt>
      <trkpt lat="44.69606" lon="2.58371">
        <ele>307.278564</ele>
        <time>2012-05-18T13:43:53Z</time>
      </trkpt>
      <trkpt lat="44.69623" lon="2.58433">
        <ele>305.83667</ele>
        <time>2012-05-18T13:44:06Z</time>
      </trkpt>
      <trkpt lat="44.69627" lon="2.58449">
        <ele>305.355957</ele>
        <time>2012-05-18T13:44:11Z</time>
      </trkpt>
      <trkpt lat="44.6963" lon="2.58451">
        <ele>305.355957</ele>
        <time>2012-05-18T13:44:20Z</time>
      </trkpt>
      <trkpt lat="44.69628" lon="2.58448">
        <ele>307.278564</ele>
        <time>2012-05-18T14:02:59Z</time>
      </trkpt>
      <trkpt lat="44.69629" lon="2.58437">
        <ele>307.278564</ele>
        <time>2012-05-18T14:03:05Z</time>
      </trkpt>
      <trkpt lat="44.69653" lon="2.58437">
        <ele>306.797852</ele>
        <time>2012-05-18T14:03:15Z</time>
      </trkpt>
      <trkpt lat="44.69703" lon="2.58458">
        <ele>305.355957</ele>
        <time>2012-05-18T14:03:29Z</time>
      </trkpt>
      <trkpt lat="44.6977" lon="2.58503">
        <ele>303.433228</ele>
        <time>2012-05-18T14:03:47Z</time>
      </trkpt>
      <trkpt lat="44.69823" lon="2.58537">
        <ele>302.952515</ele>
        <time>2012-05-18T14:04:00Z</time>
      </trkpt>
      <trkpt lat="44.69888" lon="2.58567">
        <ele>302.471924</ele>
        <time>2012-05-18T14:04:14Z</time>
      </trkpt>
      <trkpt lat="44.69984" lon="2.58555">
        <ele>299.588013</ele>
        <time>2012-05-18T14:04:33Z</time>
      </trkpt>
      <trkpt lat="44.70067" lon="2.58573">
        <ele>297.665405</ele>
        <time>2012-05-18T14:04:49Z</time>
      </trkpt>
      <trkpt lat="44.70171" lon="2.58627">
        <ele>297.184692</ele>
        <time>2012-05-18T14:05:13Z</time>
      </trkpt>
      <trkpt lat="44.70194" lon="2.58632">
        <ele>296.704102</ele>
        <time>2012-05-18T14:05:18Z</time>
      </trkpt>
      <trkpt lat="44.70203" lon="2.58625">
        <ele>296.223511</ele>
        <time>2012-05-18T14:05:21Z</time>
      </trkpt>
      <trkpt lat="44.70225" lon="2.58593">
        <ele>296.223511</ele>
        <time>2012-05-18T14:05:28Z</time>
      </trkpt>
      <trkpt lat="44.703" lon="2.58506">
        <ele>296.704102</ele>
        <time>2012-05-18T14:05:48Z</time>
      </trkpt>
      <trkpt lat="44.703" lon="2.58514">
        <ele>297.184692</ele>
        <time>2012-05-18T14:05:56Z</time>
      </trkpt>
      <trkpt lat="44.70283" lon="2.58535">
        <ele>297.665405</ele>
        <time>2012-05-18T14:06:05Z</time>
      </trkpt>
      <trkpt lat="44.70262" lon="2.58548">
        <ele>296.704102</ele>
        <time>2012-05-18T14:06:14Z</time>
      </trkpt>
      <trkpt lat="44.70265" lon="2.58544">
        <ele>297.665405</ele>
        <time>2012-05-18T14:06:21Z</time>
      </trkpt>
      <trkpt lat="44.70268" lon="2.5854">
        <ele>297.665405</ele>
        <time>2012-05-18T14:06:24Z</time>
      </trkpt>
      <trkpt lat="44.70287" lon="2.58512">
        <ele>296.704102</ele>
        <time>2012-05-18T14:06:43Z</time>
      </trkpt>
      <trkpt lat="44.70305" lon="2.58487">
        <ele>295.742676</ele>
        <time>2012-05-18T14:06:58Z</time>
      </trkpt>
      <trkpt lat="44.70334" lon="2.58511">
        <ele>291.897461</ele>
        <time>2012-05-18T14:07:14Z</time>
      </trkpt>
      <trkpt lat="44.7036" lon="2.58532">
        <ele>292.378174</ele>
        <time>2012-05-18T14:07:26Z</time>
      </trkpt>
      <trkpt lat="44.7036" lon="2.58539">
        <ele>292.378174</ele>
        <time>2012-05-18T14:07:29Z</time>
      </trkpt>
      <trkpt lat="44.70353" lon="2.58565">
        <ele>293.820068</ele>
        <time>2012-05-18T14:07:40Z</time>
      </trkpt>
      <trkpt lat="44.70333" lon="2.58598">
        <ele>300.068726</ele>
        <time>2012-05-18T14:07:57Z</time>
      </trkpt>
      <trkpt lat="44.7032" lon="2.58642">
        <ele>303.91394</ele>
        <time>2012-05-18T14:08:15Z</time>
      </trkpt>
      <trkpt lat="44.70313" lon="2.58678">
        <ele>306.317261</ele>
        <time>2012-05-18T14:08:28Z</time>
      </trkpt>
      <trkpt lat="44.70291" lon="2.58746">
        <ele>312.085205</ele>
        <time>2012-05-18T14:08:51Z</time>
      </trkpt>
      <trkpt lat="44.70272" lon="2.58776">
        <ele>312.565796</ele>
        <time>2012-05-18T14:09:03Z</time>
      </trkpt>
      <trkpt lat="44.70252" lon="2.5883">
        <ele>311.123779</ele>
        <time>2012-05-18T14:09:16Z</time>
      </trkpt>
      <trkpt lat="44.70214" lon="2.58906">
        <ele>310.643066</ele>
        <time>2012-05-18T14:09:31Z</time>
      </trkpt>
      <trkpt lat="44.70198" lon="2.58962">
        <ele>310.162476</ele>
        <time>2012-05-18T14:09:43Z</time>
      </trkpt>
      <trkpt lat="44.70195" lon="2.58974">
        <ele>310.162476</ele>
        <time>2012-05-18T14:09:46Z</time>
      </trkpt>
      <trkpt lat="44.70205" lon="2.58976">
        <ele>308.720459</ele>
        <time>2012-05-18T14:09:51Z</time>
      </trkpt>
      <trkpt lat="44.70194" lon="2.59013">
        <ele>307.278564</ele>
        <time>2012-05-18T14:10:01Z</time>
      </trkpt>
      <trkpt lat="44.7019" lon="2.5902">
        <ele>307.278564</ele>
        <time>2012-05-18T14:10:03Z</time>
      </trkpt>
      <trkpt lat="44.7017" lon="2.59046">
        <ele>306.317261</ele>
        <time>2012-05-18T14:10:09Z</time>
      </trkpt>
      <trkpt lat="44.70166" lon="2.59076">
        <ele>304.875244</ele>
        <time>2012-05-18T14:10:14Z</time>
      </trkpt>
      <trkpt lat="44.70178" lon="2.59147">
        <ele>303.433228</ele>
        <time>2012-05-18T14:10:26Z</time>
      </trkpt>
      <trkpt lat="44.70176" lon="2.59205">
        <ele>307.278564</ele>
        <time>2012-05-18T14:10:39Z</time>
      </trkpt>
      <trkpt lat="44.70169" lon="2.59243">
        <ele>306.317261</ele>
        <time>2012-05-18T14:10:52Z</time>
      </trkpt>
      <trkpt lat="44.70172" lon="2.59275">
        <ele>306.797852</ele>
        <time>2012-05-18T14:11:04Z</time>
      </trkpt>
      <trkpt lat="44.70172" lon="2.59276">
        <ele>307.759277</ele>
        <time>2012-05-18T14:11:13Z</time>
      </trkpt>
      <trkpt lat="44.7017" lon="2.59281">
        <ele>305.83667</ele>
        <time>2012-05-18T14:11:58Z</time>
      </trkpt>
      <trkpt lat="44.70169" lon="2.59317">
        <ele>308.239868</ele>
        <time>2012-05-18T14:12:11Z</time>
      </trkpt>
      <trkpt lat="44.70158" lon="2.59346">
        <ele>308.239868</ele>
        <time>2012-05-18T14:12:25Z</time>
      </trkpt>
      <trkpt lat="44.7016" lon="2.59368">
        <ele>311.123779</ele>
        <time>2012-05-18T14:12:35Z</time>
      </trkpt>
      <trkpt lat="44.70161" lon="2.59379">
        <ele>312.085205</ele>
        <time>2012-05-18T14:12:39Z</time>
      </trkpt>
      <trkpt lat="44.70153" lon="2.59434">
        <ele>314.488403</ele>
        <time>2012-05-18T14:12:55Z</time>
      </trkpt>
      <trkpt lat="44.70157" lon="2.59484">
        <ele>312.565796</ele>
        <time>2012-05-18T14:13:06Z</time>
      </trkpt>
      <trkpt lat="44.70173" lon="2.59517">
        <ele>315.449829</ele>
        <time>2012-05-18T14:13:15Z</time>
      </trkpt>
      <trkpt lat="44.70194" lon="2.59556">
        <ele>318.333618</ele>
        <time>2012-05-18T14:13:28Z</time>
      </trkpt>
      <trkpt lat="44.70209" lon="2.59582">
        <ele>322.659668</ele>
        <time>2012-05-18T14:13:40Z</time>
      </trkpt>
      <trkpt lat="44.70217" lon="2.59607">
        <ele>325.062988</ele>
        <time>2012-05-18T14:13:53Z</time>
      </trkpt>
      <trkpt lat="44.70225" lon="2.59615">
        <ele>326.504883</ele>
        <time>2012-05-18T14:14:03Z</time>
      </trkpt>
      <trkpt lat="44.7024" lon="2.59634">
        <ele>326.504883</ele>
        <time>2012-05-18T14:14:16Z</time>
      </trkpt>
      <trkpt lat="44.70269" lon="2.59652">
        <ele>326.985596</ele>
        <time>2012-05-18T14:14:29Z</time>
      </trkpt>
      <trkpt lat="44.70316" lon="2.59694">
        <ele>325.543579</ele>
        <time>2012-05-18T14:14:37Z</time>
      </trkpt>
      <trkpt lat="44.70404" lon="2.59757">
        <ele>321.698364</ele>
        <time>2012-05-18T14:14:47Z</time>
      </trkpt>
      <trkpt lat="44.70524" lon="2.59852">
        <ele>314.969116</ele>
        <time>2012-05-18T14:15:00Z</time>
      </trkpt>
      <trkpt lat="44.70571" lon="2.59912">
        <ele>314.488403</ele>
        <time>2012-05-18T14:15:08Z</time>
      </trkpt>
      <trkpt lat="44.70606" lon="2.59933">
        <ele>312.565796</ele>
        <time>2012-05-18T14:15:14Z</time>
      </trkpt>
      <trkpt lat="44.70621" lon="2.5996">
        <ele>312.565796</ele>
        <time>2012-05-18T14:15:18Z</time>
      </trkpt>
      <trkpt lat="44.70624" lon="2.59986">
        <ele>312.565796</ele>
        <time>2012-05-18T14:15:21Z</time>
      </trkpt>
      <trkpt lat="44.70667" lon="2.60069">
        <ele>310.643066</ele>
        <time>2012-05-18T14:15:33Z</time>
      </trkpt>
      <trkpt lat="44.70676" lon="2.60089">
        <ele>309.681885</ele>
        <time>2012-05-18T14:15:36Z</time>
      </trkpt>
      <trkpt lat="44.7069" lon="2.60131">
        <ele>310.162476</ele>
        <time>2012-05-18T14:15:43Z</time>
      </trkpt>
      <trkpt lat="44.70728" lon="2.60169">
        <ele>311.123779</ele>
        <time>2012-05-18T14:15:56Z</time>
      </trkpt>
      <trkpt lat="44.70769" lon="2.60178">
        <ele>311.123779</ele>
        <time>2012-05-18T14:16:11Z</time>
      </trkpt>
      <trkpt lat="44.70773" lon="2.60195">
        <ele>311.604492</ele>
        <time>2012-05-18T14:16:16Z</time>
      </trkpt>
      <trkpt lat="44.70774" lon="2.60247">
        <ele>310.162476</ele>
        <time>2012-05-18T14:16:26Z</time>
      </trkpt>
      <trkpt lat="44.70788" lon="2.60338">
        <ele>306.317261</ele>
        <time>2012-05-18T14:16:35Z</time>
      </trkpt>
      <trkpt lat="44.70791" lon="2.60352">
        <ele>304.875244</ele>
        <time>2012-05-18T14:16:36Z</time>
      </trkpt>
      <trkpt lat="44.70818" lon="2.60416">
        <ele>301.029907</ele>
        <time>2012-05-18T14:16:41Z</time>
      </trkpt>
      <trkpt lat="44.70866" lon="2.60464">
        <ele>302.471924</ele>
        <time>2012-05-18T14:16:48Z</time>
      </trkpt>
      <trkpt lat="44.70887" lon="2.60482">
        <ele>302.471924</ele>
        <time>2012-05-18T14:16:52Z</time>
      </trkpt>
      <trkpt lat="44.70901" lon="2.60499">
        <ele>302.471924</ele>
        <time>2012-05-18T14:17:02Z</time>
      </trkpt>
      <trkpt lat="44.70922" lon="2.60495">
        <ele>305.83667</ele>
        <time>2012-05-18T14:17:18Z</time>
      </trkpt>
      <trkpt lat="44.70927" lon="2.60495">
        <ele>309.201172</ele>
        <time>2012-05-18T14:17:35Z</time>
      </trkpt>
      <trkpt lat="44.70944" lon="2.60484">
        <ele>308.239868</ele>
        <time>2012-05-18T14:17:41Z</time>
      </trkpt>
      <trkpt lat="44.7098" lon="2.60466">
        <ele>306.797852</ele>
        <time>2012-05-18T14:17:51Z</time>
      </trkpt>
      <trkpt lat="44.70991" lon="2.60459">
        <ele>304.394653</ele>
        <time>2012-05-18T14:18:02Z</time>
      </trkpt>
      <trkpt lat="44.70992" lon="2.60455">
        <ele>303.91394</ele>
        <time>2012-05-18T14:18:14Z</time>
      </trkpt>
      <trkpt lat="44.70975" lon="2.60467">
        <ele>304.875244</ele>
        <time>2012-05-18T14:18:28Z</time>
      </trkpt>
      <trkpt lat="44.70961" lon="2.60471">
        <ele>305.83667</ele>
        <time>2012-05-18T14:18:43Z</time>
      </trkpt>
      <trkpt lat="44.70962" lon="2.60469">
        <ele>307.759277</ele>
        <time>2012-05-18T14:18:50Z</time>
      </trkpt>
      <trkpt lat="44.7098" lon="2.60449">
        <ele>309.681885</ele>
        <time>2012-05-18T14:19:05Z</time>
      </trkpt>
      <trkpt lat="44.71001" lon="2.60429">
        <ele>305.83667</ele>
        <time>2012-05-18T14:19:22Z</time>
      </trkpt>
      <trkpt lat="44.71065" lon="2.60347">
        <ele>304.394653</ele>
        <time>2012-05-18T14:20:02Z</time>
      </trkpt>
      <trkpt lat="44.71079" lon="2.60322">
        <ele>304.875244</ele>
        <time>2012-05-18T14:20:21Z</time>
      </trkpt>
      <trkpt lat="44.71119" lon="2.60289">
        <ele>304.394653</ele>
        <time>2012-05-18T14:21:18Z</time>
      </trkpt>
      <trkpt lat="44.71167" lon="2.60278">
        <ele>303.433228</ele>
        <time>2012-05-18T14:21:40Z</time>
      </trkpt>
      <trkpt lat="44.71241" lon="2.60253">
        <ele>300.549316</ele>
        <time>2012-05-18T14:22:22Z</time>
      </trkpt>
      <trkpt lat="44.71246" lon="2.60264">
        <ele>300.068726</ele>
        <time>2012-05-18T14:22:28Z</time>
      </trkpt>
      <trkpt lat="44.71246" lon="2.60277">
        <ele>301.029907</ele>
        <time>2012-05-18T14:22:31Z</time>
      </trkpt>
      <trkpt lat="44.71336" lon="2.60355">
        <ele>302.952515</ele>
        <time>2012-05-18T14:23:16Z</time>
      </trkpt>
      <trkpt lat="44.71366" lon="2.60424">
        <ele>303.433228</ele>
        <time>2012-05-18T14:23:42Z</time>
      </trkpt>
      <trkpt lat="44.71409" lon="2.60532">
        <ele>298.626709</ele>
        <time>2012-05-18T14:24:12Z</time>
      </trkpt>
      <trkpt lat="44.71422" lon="2.60552">
        <ele>300.068726</ele>
        <time>2012-05-18T14:24:24Z</time>
      </trkpt>
      <trkpt lat="44.71429" lon="2.60562">
        <ele>307.759277</ele>
        <time>2012-05-18T14:24:38Z</time>
      </trkpt>
      <trkpt lat="44.71437" lon="2.60572">
        <ele>311.604492</ele>
        <time>2012-05-18T14:24:50Z</time>
      </trkpt>
      <trkpt lat="44.71443" lon="2.6058">
        <ele>314.969116</ele>
        <time>2012-05-18T14:25:02Z</time>
      </trkpt>
      <trkpt lat="44.71445" lon="2.60586">
        <ele>314.969116</ele>
        <time>2012-05-18T14:25:21Z</time>
      </trkpt>
      <trkpt lat="44.71446" lon="2.60585">
        <ele>314.488403</ele>
        <time>2012-05-18T14:26:09Z</time>
      </trkpt>
      <trkpt lat="44.71444" lon="2.60583">
        <ele>315.93042</ele>
        <time>2012-05-18T14:27:23Z</time>
      </trkpt>
      <trkpt lat="44.71444" lon="2.60585">
        <ele>316.891724</ele>
        <time>2012-05-18T14:28:21Z</time>
      </trkpt>
      <trkpt lat="44.71445" lon="2.60585">
        <ele>313.527222</ele>
        <time>2012-05-18T14:29:02Z</time>
      </trkpt>
      <trkpt lat="44.71456" lon="2.60597">
        <ele>314.007812</ele>
        <time>2012-05-18T14:29:48Z</time>
      </trkpt>
      <trkpt lat="44.71457" lon="2.60599">
        <ele>314.488403</ele>
        <time>2012-05-18T14:29:49Z</time>
      </trkpt>
      <trkpt lat="44.71458" lon="2.60604">
        <ele>314.488403</ele>
        <time>2012-05-18T14:29:52Z</time>
      </trkpt>
      <trkpt lat="44.71469" lon="2.60628">
        <ele>317.372437</ele>
        <time>2012-05-18T14:30:07Z</time>
      </trkpt>
      <trkpt lat="44.71486" lon="2.60637">
        <ele>319.775635</ele>
        <time>2012-05-18T14:30:19Z</time>
      </trkpt>
      <trkpt lat="44.71504" lon="2.6064">
        <ele>321.217773</ele>
        <time>2012-05-18T14:30:32Z</time>
      </trkpt>
      <trkpt lat="44.71526" lon="2.60646">
        <ele>322.178955</ele>
        <time>2012-05-18T14:30:48Z</time>
      </trkpt>
      <trkpt lat="44.71539" lon="2.60657">
        <ele>324.101562</ele>
        <time>2012-05-18T14:30:58Z</time>
      </trkpt>
      <trkpt lat="44.71543" lon="2.60683">
        <ele>326.504883</ele>
        <time>2012-05-18T14:31:11Z</time>
      </trkpt>
      <trkpt lat="44.71537" lon="2.60719">
        <ele>330.830933</ele>
        <time>2012-05-18T14:31:29Z</time>
      </trkpt>
      <trkpt lat="44.71539" lon="2.60749">
        <ele>334.676147</ele>
        <time>2012-05-18T14:31:45Z</time>
      </trkpt>
      <trkpt lat="44.71546" lon="2.60776">
        <ele>339.002075</ele>
        <time>2012-05-18T14:32:00Z</time>
      </trkpt>
      <trkpt lat="44.71565" lon="2.60798">
        <ele>341.885986</ele>
        <time>2012-05-18T14:32:17Z</time>
      </trkpt>
      <trkpt lat="44.71585" lon="2.60791">
        <ele>343.327881</ele>
        <time>2012-05-18T14:32:31Z</time>
      </trkpt>
      <trkpt lat="44.71607" lon="2.60774">
        <ele>346.692627</ele>
        <time>2012-05-18T14:32:48Z</time>
      </trkpt>
      <trkpt lat="44.71627" lon="2.60756">
        <ele>347.173218</ele>
        <time>2012-05-18T14:33:04Z</time>
      </trkpt>
      <trkpt lat="44.71648" lon="2.6073">
        <ele>349.095825</ele>
        <time>2012-05-18T14:33:23Z</time>
      </trkpt>
      <trkpt lat="44.71671" lon="2.60703">
        <ele>349.576538</ele>
        <time>2012-05-18T14:33:41Z</time>
      </trkpt>
      <trkpt lat="44.71703" lon="2.60678">
        <ele>352.941162</ele>
        <time>2012-05-18T14:34:04Z</time>
      </trkpt>
      <trkpt lat="44.7172" lon="2.60662">
        <ele>356.305786</ele>
        <time>2012-05-18T14:34:18Z</time>
      </trkpt>
      <trkpt lat="44.71746" lon="2.60635">
        <ele>358.228394</ele>
        <time>2012-05-18T14:34:38Z</time>
      </trkpt>
      <trkpt lat="44.71795" lon="2.6056">
        <ele>360.631714</ele>
        <time>2012-05-18T14:35:15Z</time>
      </trkpt>
      <trkpt lat="44.71806" lon="2.60541">
        <ele>361.59314</ele>
        <time>2012-05-18T14:35:25Z</time>
      </trkpt>
      <trkpt lat="44.71827" lon="2.60556">
        <ele>364.476929</ele>
        <time>2012-05-18T14:35:37Z</time>
      </trkpt>
      <trkpt lat="44.71854" lon="2.60569">
        <ele>366.399536</ele>
        <time>2012-05-18T14:35:51Z</time>
      </trkpt>
      <trkpt lat="44.71884" lon="2.60586">
        <ele>367.841553</ele>
        <time>2012-05-18T14:36:06Z</time>
      </trkpt>
      <trkpt lat="44.7193" lon="2.60591">
        <ele>372.16748</ele>
        <time>2012-05-18T14:36:25Z</time>
      </trkpt>
      <trkpt lat="44.7196" lon="2.60576">
        <ele>374.570801</ele>
        <time>2012-05-18T14:36:40Z</time>
      </trkpt>
      <trkpt lat="44.71979" lon="2.60563">
        <ele>374.570801</ele>
        <time>2012-05-18T14:36:48Z</time>
      </trkpt>
      <trkpt lat="44.71991" lon="2.60565">
        <ele>374.570801</ele>
        <time>2012-05-18T14:36:53Z</time>
      </trkpt>
      <trkpt lat="44.7203" lon="2.6058">
        <ele>376.012817</ele>
        <time>2012-05-18T14:37:06Z</time>
      </trkpt>
      <trkpt lat="44.72059" lon="2.6059">
        <ele>376.012817</ele>
        <time>2012-05-18T14:37:11Z</time>
      </trkpt>
      <trkpt lat="44.72069" lon="2.60592">
        <ele>376.012817</ele>
        <time>2012-05-18T14:37:13Z</time>
      </trkpt>
      <trkpt lat="44.72129" lon="2.6058">
        <ele>377.935425</ele>
        <time>2012-05-18T14:37:25Z</time>
      </trkpt>
      <trkpt lat="44.72133" lon="2.60579">
        <ele>378.896851</ele>
        <time>2012-05-18T14:37:26Z</time>
      </trkpt>
      <trkpt lat="44.72144" lon="2.60554">
        <ele>381.78064</ele>
        <time>2012-05-18T14:37:37Z</time>
      </trkpt>
      <trkpt lat="44.72145" lon="2.60553">
        <ele>382.261353</ele>
        <time>2012-05-18T14:37:38Z</time>
      </trkpt>
      <trkpt lat="44.7216" lon="2.60529">
        <ele>385.145386</ele>
        <time>2012-05-18T14:37:52Z</time>
      </trkpt>
      <trkpt lat="44.72178" lon="2.60513">
        <ele>386.106689</ele>
        <time>2012-05-18T14:38:07Z</time>
      </trkpt>
      <trkpt lat="44.722" lon="2.60505">
        <ele>387.548584</ele>
        <time>2012-05-18T14:38:22Z</time>
      </trkpt>
      <trkpt lat="44.72222" lon="2.60496">
        <ele>390.432617</ele>
        <time>2012-05-18T14:38:37Z</time>
      </trkpt>
      <trkpt lat="44.7225" lon="2.60481">
        <ele>392.355347</ele>
        <time>2012-05-18T14:38:52Z</time>
      </trkpt>
      <trkpt lat="44.7228" lon="2.60463">
        <ele>392.835938</ele>
        <time>2012-05-18T14:39:06Z</time>
      </trkpt>
      <trkpt lat="44.72326" lon="2.60424">
        <ele>393.316528</ele>
        <time>2012-05-18T14:39:21Z</time>
      </trkpt>
      <trkpt lat="44.72378" lon="2.60382">
        <ele>391.874512</ele>
        <time>2012-05-18T14:39:33Z</time>
      </trkpt>
      <trkpt lat="44.72409" lon="2.60362">
        <ele>393.797241</ele>
        <time>2012-05-18T14:39:40Z</time>
      </trkpt>
      <trkpt lat="44.72446" lon="2.60365">
        <ele>395.239136</ele>
        <time>2012-05-18T14:39:52Z</time>
      </trkpt>
      <trkpt lat="44.72485" lon="2.60365">
        <ele>399.084351</ele>
        <time>2012-05-18T14:40:10Z</time>
      </trkpt>
      <trkpt lat="44.72522" lon="2.6035">
        <ele>402.449097</ele>
        <time>2012-05-18T14:40:29Z</time>
      </trkpt>
      <trkpt lat="44.72552" lon="2.60356">
        <ele>401.487793</ele>
        <time>2012-05-18T14:40:41Z</time>
      </trkpt>
      <trkpt lat="44.72565" lon="2.6036">
        <ele>401.487793</ele>
        <time>2012-05-18T14:40:44Z</time>
      </trkpt>
      <trkpt lat="44.72621" lon="2.60391">
        <ele>400.526489</ele>
        <time>2012-05-18T14:40:57Z</time>
      </trkpt>
      <trkpt lat="44.72648" lon="2.60353">
        <ele>400.526489</ele>
        <time>2012-05-18T14:41:02Z</time>
      </trkpt>
      <trkpt lat="44.7267" lon="2.60342">
        <ele>399.565063</ele>
        <time>2012-05-18T14:41:06Z</time>
      </trkpt>
      <trkpt lat="44.72738" lon="2.60385">
        <ele>394.758545</ele>
        <time>2012-05-18T14:41:20Z</time>
      </trkpt>
      <trkpt lat="44.72787" lon="2.60424">
        <ele>390.432617</ele>
        <time>2012-05-18T14:41:33Z</time>
      </trkpt>
      <trkpt lat="44.72834" lon="2.6044">
        <ele>385.145386</ele>
        <time>2012-05-18T14:41:47Z</time>
      </trkpt>
      <trkpt lat="44.72882" lon="2.60436">
        <ele>383.703247</ele>
        <time>2012-05-18T14:42:06Z</time>
      </trkpt>
      <trkpt lat="44.72892" lon="2.60429">
        <ele>384.184082</ele>
        <time>2012-05-18T14:42:12Z</time>
      </trkpt>
      <trkpt lat="44.72919" lon="2.6039">
        <ele>383.703247</ele>
        <time>2012-05-18T14:42:27Z</time>
      </trkpt>
      <trkpt lat="44.72946" lon="2.60351">
        <ele>384.184082</ele>
        <time>2012-05-18T14:42:41Z</time>
      </trkpt>
      <trkpt lat="44.72963" lon="2.60331">
        <ele>384.184082</ele>
        <time>2012-05-18T14:42:58Z</time>
      </trkpt>
      <trkpt lat="44.72968" lon="2.60345">
        <ele>388.029297</ele>
        <time>2012-05-18T14:43:13Z</time>
      </trkpt>
      <trkpt lat="44.72968" lon="2.60357">
        <ele>390.913208</ele>
        <time>2012-05-18T14:43:22Z</time>
      </trkpt>
      <trkpt lat="44.72968" lon="2.60357">
        <ele>390.913208</ele>
        <time>2012-05-18T14:43:24Z</time>
      </trkpt>
      <trkpt lat="44.72975" lon="2.60383">
        <ele>391.393799</ele>
        <time>2012-05-18T14:43:39Z</time>
      </trkpt>
      <trkpt lat="44.72981" lon="2.60396">
        <ele>393.316528</ele>
        <time>2012-05-18T14:43:52Z</time>
      </trkpt>
      <trkpt lat="44.72988" lon="2.60413">
        <ele>395.719849</ele>
        <time>2012-05-18T14:44:08Z</time>
      </trkpt>
      <trkpt lat="44.72995" lon="2.6043">
        <ele>400.045898</ele>
        <time>2012-05-18T14:44:23Z</time>
      </trkpt>
      <trkpt lat="44.72997" lon="2.60445">
        <ele>401.968506</ele>
        <time>2012-05-18T14:44:35Z</time>
      </trkpt>
      <trkpt lat="44.73003" lon="2.6045">
        <ele>404.371704</ele>
        <time>2012-05-18T14:44:47Z</time>
      </trkpt>
      <trkpt lat="44.73002" lon="2.60436">
        <ele>407.736328</ele>
        <time>2012-05-18T14:44:59Z</time>
      </trkpt>
      <trkpt lat="44.73006" lon="2.60431">
        <ele>410.139648</ele>
        <time>2012-05-18T14:45:13Z</time>
      </trkpt>
      <trkpt lat="44.7301" lon="2.60448">
        <ele>411.100952</ele>
        <time>2012-05-18T14:45:27Z</time>
      </trkpt>
      <trkpt lat="44.7301" lon="2.60454">
        <ele>411.581665</ele>
        <time>2012-05-18T14:45:32Z</time>
      </trkpt>
      <trkpt lat="44.73017" lon="2.60471">
        <ele>413.02356</ele>
        <time>2012-05-18T14:45:46Z</time>
      </trkpt>
      <trkpt lat="44.73023" lon="2.60492">
        <ele>414.465454</ele>
        <time>2012-05-18T14:46:01Z</time>
      </trkpt>
      <trkpt lat="44.73032" lon="2.60504">
        <ele>416.388184</ele>
        <time>2012-05-18T14:46:17Z</time>
      </trkpt>
      <trkpt lat="44.73039" lon="2.60512">
        <ele>417.8302</ele>
        <time>2012-05-18T14:46:30Z</time>
      </trkpt>
      <trkpt lat="44.73052" lon="2.60511">
        <ele>418.310791</ele>
        <time>2012-05-18T14:46:46Z</time>
      </trkpt>
      <trkpt lat="44.73053" lon="2.60511">
        <ele>417.349609</ele>
        <time>2012-05-18T14:46:58Z</time>
      </trkpt>
      <trkpt lat="44.73079" lon="2.60503">
        <ele>418.791504</ele>
        <time>2012-05-18T14:47:16Z</time>
      </trkpt>
      <trkpt lat="44.73094" lon="2.60497">
        <ele>420.714111</ele>
        <time>2012-05-18T14:47:32Z</time>
      </trkpt>
      <trkpt lat="44.73104" lon="2.60492">
        <ele>424.078735</ele>
        <time>2012-05-18T14:47:47Z</time>
      </trkpt>
      <trkpt lat="44.7311" lon="2.6049">
        <ele>424.559448</ele>
        <time>2012-05-18T14:48:00Z</time>
      </trkpt>
      <trkpt lat="44.73112" lon="2.60485">
        <ele>422.156006</ele>
        <time>2012-05-18T14:48:15Z</time>
      </trkpt>
      <trkpt lat="44.73116" lon="2.60487">
        <ele>436.575928</ele>
        <time>2012-05-18T14:49:34Z</time>
      </trkpt>
      <trkpt lat="44.73147" lon="2.60494">
        <ele>437.056519</ele>
        <time>2012-05-18T14:49:54Z</time>
      </trkpt>
      <trkpt lat="44.73166" lon="2.60509">
        <ele>437.056519</ele>
        <time>2012-05-18T14:50:12Z</time>
      </trkpt>
      <trkpt lat="44.73172" lon="2.60543">
        <ele>440.421265</ele>
        <time>2012-05-18T14:50:31Z</time>
      </trkpt>
      <trkpt lat="44.7318" lon="2.60572">
        <ele>440.901855</ele>
        <time>2012-05-18T14:50:47Z</time>
      </trkpt>
      <trkpt lat="44.73182" lon="2.60585">
        <ele>441.863159</ele>
        <time>2012-05-18T14:51:01Z</time>
      </trkpt>
      <trkpt lat="44.73188" lon="2.60614">
        <ele>441.382446</ele>
        <time>2012-05-18T14:51:18Z</time>
      </trkpt>
      <trkpt lat="44.73191" lon="2.60626">
        <ele>441.382446</ele>
        <time>2012-05-18T14:51:30Z</time>
      </trkpt>
      <trkpt lat="44.732" lon="2.60642">
        <ele>442.343872</ele>
        <time>2012-05-18T14:51:43Z</time>
      </trkpt>
      <trkpt lat="44.732" lon="2.60645">
        <ele>443.785767</ele>
        <time>2012-05-18T14:51:54Z</time>
      </trkpt>
      <trkpt lat="44.73205" lon="2.60654">
        <ele>445.708374</ele>
        <time>2012-05-18T14:53:27Z</time>
      </trkpt>
      <trkpt lat="44.73222" lon="2.60678">
        <ele>445.227661</ele>
        <time>2012-05-18T14:53:41Z</time>
      </trkpt>
      <trkpt lat="44.73239" lon="2.60716">
        <ele>444.266479</ele>
        <time>2012-05-18T14:53:56Z</time>
      </trkpt>
      <trkpt lat="44.73233" lon="2.60747">
        <ele>445.227661</ele>
        <time>2012-05-18T14:54:07Z</time>
      </trkpt>
      <trkpt lat="44.7321" lon="2.60787">
        <ele>448.111816</ele>
        <time>2012-05-18T14:54:24Z</time>
      </trkpt>
      <trkpt lat="44.7321" lon="2.60815">
        <ele>448.111816</ele>
        <time>2012-05-18T14:54:37Z</time>
      </trkpt>
      <trkpt lat="44.73215" lon="2.60838">
        <ele>450.034424</ele>
        <time>2012-05-18T14:54:51Z</time>
      </trkpt>
      <trkpt lat="44.73218" lon="2.60856">
        <ele>452.437622</ele>
        <time>2012-05-18T14:55:05Z</time>
      </trkpt>
      <trkpt lat="44.73222" lon="2.60875">
        <ele>455.321533</ele>
        <time>2012-05-18T14:55:19Z</time>
      </trkpt>
      <trkpt lat="44.73223" lon="2.60881">
        <ele>456.282959</ele>
        <time>2012-05-18T14:55:24Z</time>
      </trkpt>
      <trkpt lat="44.73229" lon="2.60894">
        <ele>457.244263</ele>
        <time>2012-05-18T14:55:40Z</time>
      </trkpt>
      <trkpt lat="44.73228" lon="2.60899">
        <ele>459.647583</ele>
        <time>2012-05-18T14:55:58Z</time>
      </trkpt>
      <trkpt lat="44.7323" lon="2.609">
        <ele>460.608765</ele>
        <time>2012-05-18T14:56:34Z</time>
      </trkpt>
      <trkpt lat="44.73233" lon="2.6089">
        <ele>462.531372</ele>
        <time>2012-05-18T14:56:45Z</time>
      </trkpt>
      <trkpt lat="44.73234" lon="2.60884">
        <ele>465.415527</ele>
        <time>2012-05-18T14:56:58Z</time>
      </trkpt>
      <trkpt lat="44.73236" lon="2.60897">
        <ele>467.818726</ele>
        <time>2012-05-18T14:57:11Z</time>
      </trkpt>
      <trkpt lat="44.73238" lon="2.60912">
        <ele>469.260742</ele>
        <time>2012-05-18T14:57:27Z</time>
      </trkpt>
      <trkpt lat="44.7324" lon="2.60916">
        <ele>470.221924</ele>
        <time>2012-05-18T14:57:32Z</time>
      </trkpt>
      <trkpt lat="44.73246" lon="2.60933">
        <ele>472.625366</ele>
        <time>2012-05-18T14:57:48Z</time>
      </trkpt>
      <trkpt lat="44.73251" lon="2.60947">
        <ele>474.547974</ele>
        <time>2012-05-18T14:58:01Z</time>
      </trkpt>
      <trkpt lat="44.7326" lon="2.60958">
        <ele>475.989868</ele>
        <time>2012-05-18T14:58:14Z</time>
      </trkpt>
      <trkpt lat="44.73263" lon="2.60965">
        <ele>477.431885</ele>
        <time>2012-05-18T14:58:28Z</time>
      </trkpt>
      <trkpt lat="44.7326" lon="2.60969">
        <ele>479.835083</ele>
        <time>2012-05-18T14:59:03Z</time>
      </trkpt>
      <trkpt lat="44.73262" lon="2.6097">
        <ele>479.354492</ele>
        <time>2012-05-18T14:59:10Z</time>
      </trkpt>
      <trkpt lat="44.73267" lon="2.60977">
        <ele>478.873901</ele>
        <time>2012-05-18T14:59:14Z</time>
      </trkpt>
      <trkpt lat="44.73281" lon="2.61009">
        <ele>478.393188</ele>
        <time>2012-05-18T14:59:34Z</time>
      </trkpt>
      <trkpt lat="44.73284" lon="2.61023">
        <ele>478.873901</ele>
        <time>2012-05-18T14:59:42Z</time>
      </trkpt>
      <trkpt lat="44.73296" lon="2.61052">
        <ele>481.757812</ele>
        <time>2012-05-18T15:00:01Z</time>
      </trkpt>
      <trkpt lat="44.73304" lon="2.61084">
        <ele>488.967773</ele>
        <time>2012-05-18T15:00:18Z</time>
      </trkpt>
      <trkpt lat="44.73312" lon="2.61101">
        <ele>490.890381</ele>
        <time>2012-05-18T15:00:29Z</time>
      </trkpt>
      <trkpt lat="44.73315" lon="2.61114">
        <ele>492.332397</ele>
        <time>2012-05-18T15:00:36Z</time>
      </trkpt>
      <trkpt lat="44.73325" lon="2.61144">
        <ele>495.696899</ele>
        <time>2012-05-18T15:00:54Z</time>
      </trkpt>
      <trkpt lat="44.73332" lon="2.61174">
        <ele>497.138916</ele>
        <time>2012-05-18T15:01:10Z</time>
      </trkpt>
      <trkpt lat="44.73339" lon="2.61203">
        <ele>497.138916</ele>
        <time>2012-05-18T15:01:25Z</time>
      </trkpt>
      <trkpt lat="44.73342" lon="2.61238">
        <ele>499.061523</ele>
        <time>2012-05-18T15:01:41Z</time>
      </trkpt>
      <trkpt lat="44.73344" lon="2.6127">
        <ele>500.984131</ele>
        <time>2012-05-18T15:01:55Z</time>
      </trkpt>
      <trkpt lat="44.73341" lon="2.61295">
        <ele>504.348877</ele>
        <time>2012-05-18T15:02:08Z</time>
      </trkpt>
      <trkpt lat="44.73341" lon="2.61324">
        <ele>508.194092</ele>
        <time>2012-05-18T15:02:22Z</time>
      </trkpt>
      <trkpt lat="44.73337" lon="2.61358">
        <ele>511.558716</ele>
        <time>2012-05-18T15:02:38Z</time>
      </trkpt>
      <trkpt lat="44.73334" lon="2.61395">
        <ele>514.442627</ele>
        <time>2012-05-18T15:02:54Z</time>
      </trkpt>
      <trkpt lat="44.7334" lon="2.61435">
        <ele>517.32666</ele>
        <time>2012-05-18T15:03:13Z</time>
      </trkpt>
      <trkpt lat="44.73342" lon="2.61438">
        <ele>517.807251</ele>
        <time>2012-05-18T15:03:15Z</time>
      </trkpt>
      <trkpt lat="44.73363" lon="2.61435">
        <ele>520.210571</ele>
        <time>2012-05-18T15:03:30Z</time>
      </trkpt>
      <trkpt lat="44.73373" lon="2.61433">
        <ele>521.171997</ele>
        <time>2012-05-18T15:03:38Z</time>
      </trkpt>
      <trkpt lat="44.73461" lon="2.61416">
        <ele>520.691284</ele>
        <time>2012-05-18T15:04:01Z</time>
      </trkpt>
      <trkpt lat="44.73567" lon="2.6137">
        <ele>520.691284</ele>
        <time>2012-05-18T15:04:13Z</time>
      </trkpt>
      <trkpt lat="44.73591" lon="2.61351">
        <ele>520.691284</ele>
        <time>2012-05-18T15:04:17Z</time>
      </trkpt>
      <trkpt lat="44.73613" lon="2.6134">
        <ele>520.691284</ele>
        <time>2012-05-18T15:04:24Z</time>
      </trkpt>
      <trkpt lat="44.73613" lon="2.61342">
        <ele>520.691284</ele>
        <time>2012-05-18T15:04:26Z</time>
      </trkpt>
      <trkpt lat="44.73613" lon="2.61352">
        <ele>520.691284</ele>
        <time>2012-05-18T15:04:30Z</time>
      </trkpt>
      <trkpt lat="44.73597" lon="2.61421">
        <ele>520.691284</ele>
        <time>2012-05-18T15:04:44Z</time>
      </trkpt>
      <trkpt lat="44.73567" lon="2.61519">
        <ele>520.210571</ele>
        <time>2012-05-18T15:04:57Z</time>
      </trkpt>
      <trkpt lat="44.73566" lon="2.61522">
        <ele>517.32666</ele>
        <time>2012-05-18T15:05:07Z</time>
      </trkpt>
      <trkpt lat="44.73556" lon="2.61552">
        <ele>510.59729</ele>
        <time>2012-05-18T15:05:52Z</time>
      </trkpt>
      <trkpt lat="44.7352" lon="2.61703">
        <ele>511.078003</ele>
        <time>2012-05-18T15:06:22Z</time>
      </trkpt>
      <trkpt lat="44.73511" lon="2.61751">
        <ele>508.674683</ele>
        <time>2012-05-18T15:06:33Z</time>
      </trkpt>
      <trkpt lat="44.73514" lon="2.61756">
        <ele>508.194092</ele>
        <time>2012-05-18T15:06:36Z</time>
      </trkpt>
      <trkpt lat="44.73518" lon="2.61759">
        <ele>507.232788</ele>
        <time>2012-05-18T15:06:38Z</time>
      </trkpt>
      <trkpt lat="44.73567" lon="2.61815">
        <ele>506.271484</ele>
        <time>2012-05-18T15:07:02Z</time>
      </trkpt>
      <trkpt lat="44.73568" lon="2.61828">
        <ele>505.790894</ele>
        <time>2012-05-18T15:07:15Z</time>
      </trkpt>
      <trkpt lat="44.73567" lon="2.61842">
        <ele>505.310181</ele>
        <time>2012-05-18T15:07:32Z</time>
      </trkpt>
      <trkpt lat="44.73567" lon="2.61846">
        <ele>506.271484</ele>
        <time>2012-05-18T15:07:35Z</time>
      </trkpt>
      <trkpt lat="44.73574" lon="2.61911">
        <ele>506.271484</ele>
        <time>2012-05-18T15:08:11Z</time>
      </trkpt>
      <trkpt lat="44.7358" lon="2.61954">
        <ele>504.829468</ele>
        <time>2012-05-18T15:08:29Z</time>
      </trkpt>
      <trkpt lat="44.73578" lon="2.61992">
        <ele>506.271484</ele>
        <time>2012-05-18T15:08:44Z</time>
      </trkpt>
      <trkpt lat="44.73587" lon="2.62014">
        <ele>506.271484</ele>
        <time>2012-05-18T15:08:57Z</time>
      </trkpt>
      <trkpt lat="44.73593" lon="2.62039">
        <ele>508.194092</ele>
        <time>2012-05-18T15:09:18Z</time>
      </trkpt>
      <trkpt lat="44.73592" lon="2.62045">
        <ele>508.674683</ele>
        <time>2012-05-18T15:09:23Z</time>
      </trkpt>
      <trkpt lat="44.7359" lon="2.62056">
        <ele>510.116699</ele>
        <time>2012-05-18T15:09:36Z</time>
      </trkpt>
      <trkpt lat="44.73587" lon="2.62076">
        <ele>506.271484</ele>
        <time>2012-05-18T15:11:39Z</time>
      </trkpt>
      <trkpt lat="44.73588" lon="2.62102">
        <ele>510.116699</ele>
        <time>2012-05-18T15:11:56Z</time>
      </trkpt>
      <trkpt lat="44.73597" lon="2.62119">
        <ele>510.59729</ele>
        <time>2012-05-18T15:12:09Z</time>
      </trkpt>
      <trkpt lat="44.73601" lon="2.62124">
        <ele>511.558716</ele>
        <time>2012-05-18T15:12:14Z</time>
      </trkpt>
      <trkpt lat="44.73603" lon="2.62125">
        <ele>512.039429</ele>
        <time>2012-05-18T15:12:16Z</time>
      </trkpt>
      <trkpt lat="44.73624" lon="2.62125">
        <ele>516.365234</ele>
        <time>2012-05-18T15:12:32Z</time>
      </trkpt>
      <trkpt lat="44.73645" lon="2.6212">
        <ele>518.768555</ele>
        <time>2012-05-18T15:12:51Z</time>
      </trkpt>
      <trkpt lat="44.73659" lon="2.62112">
        <ele>522.133179</ele>
        <time>2012-05-18T15:13:06Z</time>
      </trkpt>
      <trkpt lat="44.73668" lon="2.62111">
        <ele>525.497803</ele>
        <time>2012-05-18T15:13:20Z</time>
      </trkpt>
      <trkpt lat="44.73674" lon="2.62108">
        <ele>528.381836</ele>
        <time>2012-05-18T15:13:33Z</time>
      </trkpt>
      <trkpt lat="44.73689" lon="2.62109">
        <ele>532.227051</ele>
        <time>2012-05-18T15:13:49Z</time>
      </trkpt>
      <trkpt lat="44.73696" lon="2.62108">
        <ele>533.188354</ele>
        <time>2012-05-18T15:13:56Z</time>
      </trkpt>
      <trkpt lat="44.73729" lon="2.62124">
        <ele>537.514282</ele>
        <time>2012-05-18T15:14:36Z</time>
      </trkpt>
      <trkpt lat="44.73748" lon="2.62135">
        <ele>537.033691</ele>
        <time>2012-05-18T15:14:57Z</time>
      </trkpt>
      <trkpt lat="44.73768" lon="2.62149">
        <ele>538.956299</ele>
        <time>2012-05-18T15:15:23Z</time>
      </trkpt>
      <trkpt lat="44.73769" lon="2.62149">
        <ele>539.43689</ele>
        <time>2012-05-18T15:15:24Z</time>
      </trkpt>
      <trkpt lat="44.73781" lon="2.6216">
        <ele>540.398315</ele>
        <time>2012-05-18T15:15:35Z</time>
      </trkpt>
      <trkpt lat="44.73829" lon="2.6218">
        <ele>539.43689</ele>
        <time>2012-05-18T15:16:22Z</time>
      </trkpt>
      <trkpt lat="44.7384" lon="2.62179">
        <ele>541.84021</ele>
        <time>2012-05-18T15:16:38Z</time>
      </trkpt>
      <trkpt lat="44.73896" lon="2.62174">
        <ele>546.646851</ele>
        <time>2012-05-18T15:17:36Z</time>
      </trkpt>
      <trkpt lat="44.73901" lon="2.62175">
        <ele>554.817871</ele>
        <time>2012-05-18T15:17:55Z</time>
      </trkpt>
      <trkpt lat="44.73903" lon="2.62178">
        <ele>552.414551</ele>
        <time>2012-05-18T15:18:08Z</time>
      </trkpt>
      <trkpt lat="44.73917" lon="2.62196">
        <ele>559.144043</ele>
        <time>2012-05-18T15:18:46Z</time>
      </trkpt>
      <trkpt lat="44.73918" lon="2.62207">
        <ele>561.547363</ele>
        <time>2012-05-18T15:18:58Z</time>
      </trkpt>
      <trkpt lat="44.73919" lon="2.62218">
        <ele>560.585938</ele>
        <time>2012-05-18T15:19:07Z</time>
      </trkpt>
      <trkpt lat="44.73933" lon="2.62245">
        <ele>561.06665</ele>
        <time>2012-05-18T15:19:27Z</time>
      </trkpt>
      <trkpt lat="44.73947" lon="2.62274">
        <ele>562.989258</ele>
        <time>2012-05-18T15:19:56Z</time>
      </trkpt>
      <trkpt lat="44.73947" lon="2.62274">
        <ele>562.989258</ele>
        <time>2012-05-18T15:19:59Z</time>
      </trkpt>
      <trkpt lat="44.73953" lon="2.6228">
        <ele>563.950439</ele>
        <time>2012-05-18T15:20:04Z</time>
      </trkpt>
      <trkpt lat="44.74058" lon="2.62578">
        <ele>563.469971</ele>
        <time>2012-05-18T15:21:42Z</time>
      </trkpt>
      <trkpt lat="44.74058" lon="2.62577">
        <ele>562.989258</ele>
        <time>2012-05-18T15:21:43Z</time>
      </trkpt>
      <trkpt lat="44.74059" lon="2.62579">
        <ele>562.028076</ele>
        <time>2012-05-18T15:22:22Z</time>
      </trkpt>
      <trkpt lat="44.74072" lon="2.62595">
        <ele>548.088867</ele>
        <time>2012-05-18T15:25:11Z</time>
      </trkpt>
      <trkpt lat="44.74075" lon="2.62601">
        <ele>548.088867</ele>
        <time>2012-05-18T15:25:15Z</time>
      </trkpt>
      <trkpt lat="44.74086" lon="2.62647">
        <ele>546.16626</ele>
        <time>2012-05-18T15:25:35Z</time>
      </trkpt>
      <trkpt lat="44.74094" lon="2.62686">
        <ele>545.204834</ele>
        <time>2012-05-18T15:25:56Z</time>
      </trkpt>
      <trkpt lat="44.74097" lon="2.62729">
        <ele>545.204834</ele>
        <time>2012-05-18T15:26:23Z</time>
      </trkpt>
      <trkpt lat="44.74096" lon="2.62759">
        <ele>545.685547</ele>
        <time>2012-05-18T15:26:38Z</time>
      </trkpt>
      <trkpt lat="44.7409" lon="2.62799">
        <ele>547.608154</ele>
        <time>2012-05-18T15:26:53Z</time>
      </trkpt>
      <trkpt lat="44.74087" lon="2.62833">
        <ele>548.569336</ele>
        <time>2012-05-18T15:27:05Z</time>
      </trkpt>
      <trkpt lat="44.74086" lon="2.6285">
        <ele>551.934082</ele>
        <time>2012-05-18T15:27:16Z</time>
      </trkpt>
      <trkpt lat="44.74074" lon="2.62867">
        <ele>567.795654</ele>
        <time>2012-05-18T15:29:10Z</time>
      </trkpt>
      <trkpt lat="44.7409" lon="2.62861">
        <ele>550.972656</ele>
        <time>2012-05-18T15:30:36Z</time>
      </trkpt>
      <trkpt lat="44.74098" lon="2.62861">
        <ele>544.724243</ele>
        <time>2012-05-18T15:33:17Z</time>
      </trkpt>
      <trkpt lat="44.74092" lon="2.62858">
        <ele>546.646851</ele>
        <time>2012-05-18T15:35:50Z</time>
      </trkpt>
      <trkpt lat="44.74088" lon="2.62859">
        <ele>549.530762</ele>
        <time>2012-05-18T15:36:06Z</time>
      </trkpt>
      <trkpt lat="44.74085" lon="2.62857">
        <ele>553.856689</ele>
        <time>2012-05-18T15:37:46Z</time>
      </trkpt>
      <trkpt lat="44.74084" lon="2.62858">
        <ele>553.375977</ele>
        <time>2012-05-18T15:37:52Z</time>
      </trkpt>
      <trkpt lat="44.74079" lon="2.62892">
        <ele>549.530762</ele>
        <time>2012-05-18T15:38:02Z</time>
      </trkpt>
      <trkpt lat="44.74098" lon="2.63132">
        <ele>543.762817</ele>
        <time>2012-05-18T15:38:54Z</time>
      </trkpt>
      <trkpt lat="44.74353" lon="2.63326">
        <ele>540.398315</ele>
        <time>2012-05-18T15:40:54Z</time>
      </trkpt>
      <trkpt lat="44.74354" lon="2.63268">
        <ele>542.801514</ele>
        <time>2012-05-18T15:41:01Z</time>
      </trkpt>
      <trkpt lat="44.74343" lon="2.63294">
        <ele>542.801514</ele>
        <time>2012-05-18T15:41:13Z</time>
      </trkpt>
      <trkpt lat="44.7434" lon="2.63319">
        <ele>532.707764</ele>
        <time>2012-05-18T15:41:24Z</time>
      </trkpt>
      <trkpt lat="44.74312" lon="2.63358">
        <ele>532.227051</ele>
        <time>2012-05-18T15:41:38Z</time>
      </trkpt>
      <trkpt lat="44.7428" lon="2.6339">
        <ele>528.862549</ele>
        <time>2012-05-18T15:41:52Z</time>
      </trkpt>
      <trkpt lat="44.74268" lon="2.63407">
        <ele>523.575195</ele>
        <time>2012-05-18T15:42:09Z</time>
      </trkpt>
      <trkpt lat="44.74266" lon="2.6341">
        <ele>522.613892</ele>
        <time>2012-05-18T15:42:13Z</time>
      </trkpt>
      <trkpt lat="44.74265" lon="2.63414">
        <ele>517.807251</ele>
        <time>2012-05-18T15:42:25Z</time>
      </trkpt>
      <trkpt lat="44.74265" lon="2.63414">
        <ele>516.845947</ele>
        <time>2012-05-18T15:42:27Z</time>
      </trkpt>
      <trkpt lat="44.74257" lon="2.63427">
        <ele>513.481445</ele>
        <time>2012-05-18T15:42:43Z</time>
      </trkpt>
      <trkpt lat="44.7425" lon="2.63437">
        <ele>511.558716</ele>
        <time>2012-05-18T15:42:57Z</time>
      </trkpt>
      <trkpt lat="44.74246" lon="2.6344">
        <ele>510.116699</ele>
        <time>2012-05-18T15:43:08Z</time>
      </trkpt>
      <trkpt lat="44.74237" lon="2.6345">
        <ele>510.59729</ele>
        <time>2012-05-18T15:43:22Z</time>
      </trkpt>
      <trkpt lat="44.74228" lon="2.63461">
        <ele>511.078003</ele>
        <time>2012-05-18T15:43:36Z</time>
      </trkpt>
      <trkpt lat="44.74222" lon="2.63469">
        <ele>510.59729</ele>
        <time>2012-05-18T15:43:48Z</time>
      </trkpt>
      <trkpt lat="44.74221" lon="2.6347">
        <ele>511.078003</ele>
        <time>2012-05-18T15:43:58Z</time>
      </trkpt>
      <trkpt lat="44.74201" lon="2.63483">
        <ele>515.404053</ele>
        <time>2012-05-18T15:44:11Z</time>
      </trkpt>
      <trkpt lat="44.74192" lon="2.6349">
        <ele>517.32666</ele>
        <time>2012-05-18T15:44:18Z</time>
      </trkpt>
      <trkpt lat="44.74184" lon="2.63493">
        <ele>516.365234</ele>
        <time>2012-05-18T15:44:24Z</time>
      </trkpt>
      <trkpt lat="44.74158" lon="2.635">
        <ele>514.92334</ele>
        <time>2012-05-18T15:44:42Z</time>
      </trkpt>
      <trkpt lat="44.74134" lon="2.63498">
        <ele>514.442627</ele>
        <time>2012-05-18T15:44:56Z</time>
      </trkpt>
      <trkpt lat="44.74119" lon="2.63502">
        <ele>515.884644</ele>
        <time>2012-05-18T15:45:08Z</time>
      </trkpt>
      <trkpt lat="44.74102" lon="2.63498">
        <ele>513.481445</ele>
        <time>2012-05-18T15:45:26Z</time>
      </trkpt>
      <trkpt lat="44.74093" lon="2.63498">
        <ele>514.92334</ele>
        <time>2012-05-18T15:45:36Z</time>
      </trkpt>
      <trkpt lat="44.74086" lon="2.63498">
        <ele>515.884644</ele>
        <time>2012-05-18T15:45:45Z</time>
      </trkpt>
      <trkpt lat="44.74064" lon="2.63494">
        <ele>518.287842</ele>
        <time>2012-05-18T15:46:02Z</time>
      </trkpt>
      <trkpt lat="44.74042" lon="2.63496">
        <ele>521.171997</ele>
        <time>2012-05-18T15:46:22Z</time>
      </trkpt>
      <trkpt lat="44.74028" lon="2.63492">
        <ele>524.055786</ele>
        <time>2012-05-18T15:46:36Z</time>
      </trkpt>
      <trkpt lat="44.74033" lon="2.63499">
        <ele>526.459106</ele>
        <time>2012-05-18T15:46:45Z</time>
      </trkpt>
      <trkpt lat="44.74032" lon="2.63505">
        <ele>525.978394</ele>
        <time>2012-05-18T15:46:55Z</time>
      </trkpt>
      <trkpt lat="44.7403" lon="2.63505">
        <ele>526.459106</ele>
        <time>2012-05-18T15:46:58Z</time>
      </trkpt>
      <trkpt lat="44.74023" lon="2.63504">
        <ele>526.939819</ele>
        <time>2012-05-18T15:47:03Z</time>
      </trkpt>
      <trkpt lat="44.74005" lon="2.63494">
        <ele>531.265747</ele>
        <time>2012-05-18T15:47:16Z</time>
      </trkpt>
      <trkpt lat="44.74004" lon="2.63493">
        <ele>531.746338</ele>
        <time>2012-05-18T15:47:17Z</time>
      </trkpt>
      <trkpt lat="44.73997" lon="2.63491">
        <ele>532.707764</ele>
        <time>2012-05-18T15:47:21Z</time>
      </trkpt>
      <trkpt lat="44.73976" lon="2.63486">
        <ele>535.591553</ele>
        <time>2012-05-18T15:47:35Z</time>
      </trkpt>
      <trkpt lat="44.7396" lon="2.63485">
        <ele>537.033691</ele>
        <time>2012-05-18T15:47:48Z</time>
      </trkpt>
      <trkpt lat="44.73938" lon="2.6348">
        <ele>540.878906</ele>
        <time>2012-05-18T15:48:04Z</time>
      </trkpt>
      <trkpt lat="44.73934" lon="2.6348">
        <ele>541.84021</ele>
        <time>2012-05-18T15:48:07Z</time>
      </trkpt>
      <trkpt lat="44.73933" lon="2.63482">
        <ele>542.320923</ele>
        <time>2012-05-18T15:48:09Z</time>
      </trkpt>
      <trkpt lat="44.73949" lon="2.63499">
        <ele>543.282104</ele>
        <time>2012-05-18T15:48:19Z</time>
      </trkpt>
      <trkpt lat="44.7396" lon="2.63505">
        <ele>543.282104</ele>
        <time>2012-05-18T15:48:28Z</time>
      </trkpt>
      <trkpt lat="44.73961" lon="2.63504">
        <ele>545.685547</ele>
        <time>2012-05-18T15:48:39Z</time>
      </trkpt>
      <trkpt lat="44.73964" lon="2.63505">
        <ele>549.530762</ele>
        <time>2012-05-18T15:57:03Z</time>
      </trkpt>
      <trkpt lat="44.73965" lon="2.63502">
        <ele>548.569336</ele>
        <time>2012-05-18T15:57:26Z</time>
      </trkpt>
      <trkpt lat="44.73965" lon="2.63502">
        <ele>547.608154</ele>
        <time>2012-05-18T15:57:43Z</time>
      </trkpt>
      <trkpt lat="44.73971" lon="2.63498">
        <ele>547.127441</ele>
        <time>2012-05-18T15:57:47Z</time>
      </trkpt>
      <trkpt lat="44.74067" lon="2.63549">
        <ele>546.16626</ele>
        <time>2012-05-18T15:58:14Z</time>
      </trkpt>
      <trkpt lat="44.74134" lon="2.63571">
        <ele>544.724243</ele>
        <time>2012-05-18T15:58:25Z</time>
      </trkpt>
      <trkpt lat="44.74196" lon="2.63562">
        <ele>543.282104</ele>
        <time>2012-05-18T15:58:36Z</time>
      </trkpt>
      <trkpt lat="44.74244" lon="2.6355">
        <ele>547.608154</ele>
        <time>2012-05-18T15:58:50Z</time>
      </trkpt>
      <trkpt lat="44.74286" lon="2.63534">
        <ele>550.492188</ele>
        <time>2012-05-18T15:59:04Z</time>
      </trkpt>
      <trkpt lat="44.74329" lon="2.63515">
        <ele>552.895264</ele>
        <time>2012-05-18T15:59:20Z</time>
      </trkpt>
      <trkpt lat="44.74368" lon="2.6349">
        <ele>555.298584</ele>
        <time>2012-05-18T15:59:37Z</time>
      </trkpt>
      <trkpt lat="44.74409" lon="2.63458">
        <ele>557.221436</ele>
        <time>2012-05-18T15:59:56Z</time>
      </trkpt>
      <trkpt lat="44.74444" lon="2.63424">
        <ele>561.06665</ele>
        <time>2012-05-18T16:00:13Z</time>
      </trkpt>
      <trkpt lat="44.74467" lon="2.63396">
        <ele>565.392578</ele>
        <time>2012-05-18T16:00:26Z</time>
      </trkpt>
      <trkpt lat="44.74491" lon="2.63376">
        <ele>566.35376</ele>
        <time>2012-05-18T16:00:39Z</time>
      </trkpt>
      <trkpt lat="44.74519" lon="2.63359">
        <ele>570.198975</ele>
        <time>2012-05-18T16:00:54Z</time>
      </trkpt>
      <trkpt lat="44.74537" lon="2.6335">
        <ele>572.121826</ele>
        <time>2012-05-18T16:01:06Z</time>
      </trkpt>
      <trkpt lat="44.74563" lon="2.63337">
        <ele>575.486328</ele>
        <time>2012-05-18T16:01:23Z</time>
      </trkpt>
      <trkpt lat="44.74591" lon="2.63327">
        <ele>579.331543</ele>
        <time>2012-05-18T16:01:41Z</time>
      </trkpt>
      <trkpt lat="44.74619" lon="2.63323">
        <ele>582.215576</ele>
        <time>2012-05-18T16:01:58Z</time>
      </trkpt>
      <trkpt lat="44.74644" lon="2.63318">
        <ele>584.138184</ele>
        <time>2012-05-18T16:02:14Z</time>
      </trkpt>
      <trkpt lat="44.74669" lon="2.63309">
        <ele>587.021973</ele>
        <time>2012-05-18T16:02:30Z</time>
      </trkpt>
      <trkpt lat="44.74692" lon="2.63295">
        <ele>590.386963</ele>
        <time>2012-05-18T16:02:46Z</time>
      </trkpt>
      <trkpt lat="44.74717" lon="2.63273">
        <ele>592.30957</ele>
        <time>2012-05-18T16:03:05Z</time>
      </trkpt>
      <trkpt lat="44.74736" lon="2.63253">
        <ele>593.751465</ele>
        <time>2012-05-18T16:03:21Z</time>
      </trkpt>
      <trkpt lat="44.74752" lon="2.63234">
        <ele>595.674072</ele>
        <time>2012-05-18T16:03:33Z</time>
      </trkpt>
      <trkpt lat="44.74772" lon="2.63207">
        <ele>597.59668</ele>
        <time>2012-05-18T16:03:49Z</time>
      </trkpt>
      <trkpt lat="44.74793" lon="2.63172">
        <ele>600</ele>
        <time>2012-05-18T16:04:06Z</time>
      </trkpt>
      <trkpt lat="44.74828" lon="2.63137">
        <ele>602.403076</ele>
        <time>2012-05-18T16:04:24Z</time>
      </trkpt>
      <trkpt lat="44.74863" lon="2.63133">
        <ele>602.883789</ele>
        <time>2012-05-18T16:04:37Z</time>
      </trkpt>
      <trkpt lat="44.74906" lon="2.63151">
        <ele>603.845215</ele>
        <time>2012-05-18T16:04:54Z</time>
      </trkpt>
      <trkpt lat="44.74971" lon="2.63158">
        <ele>604.806641</ele>
        <time>2012-05-18T16:05:15Z</time>
      </trkpt>
      <trkpt lat="44.75001" lon="2.63163">
        <ele>608.171387</ele>
        <time>2012-05-18T16:05:26Z</time>
      </trkpt>
      <trkpt lat="44.75038" lon="2.63196">
        <ele>609.613281</ele>
        <time>2012-05-18T16:05:40Z</time>
      </trkpt>
      <trkpt lat="44.75096" lon="2.63253">
        <ele>608.651855</ele>
        <time>2012-05-18T16:06:02Z</time>
      </trkpt>
      <trkpt lat="44.75157" lon="2.63319">
        <ele>607.690674</ele>
        <time>2012-05-18T16:06:25Z</time>
      </trkpt>
      <trkpt lat="44.75196" lon="2.63378">
        <ele>608.651855</ele>
        <time>2012-05-18T16:06:44Z</time>
      </trkpt>
      <trkpt lat="44.75264" lon="2.63415">
        <ele>608.171387</ele>
        <time>2012-05-18T16:07:06Z</time>
      </trkpt>
      <trkpt lat="44.75335" lon="2.63452">
        <ele>610.09375</ele>
        <time>2012-05-18T16:07:29Z</time>
      </trkpt>
      <trkpt lat="44.75389" lon="2.63491">
        <ele>611.055176</ele>
        <time>2012-05-18T16:07:48Z</time>
      </trkpt>
      <trkpt lat="44.75428" lon="2.63541">
        <ele>612.977783</ele>
        <time>2012-05-18T16:08:05Z</time>
      </trkpt>
      <trkpt lat="44.75468" lon="2.63602">
        <ele>615.861816</ele>
        <time>2012-05-18T16:08:23Z</time>
      </trkpt>
      <trkpt lat="44.75514" lon="2.63621">
        <ele>621.629639</ele>
        <time>2012-05-18T16:08:38Z</time>
      </trkpt>
      <trkpt lat="44.75569" lon="2.6362">
        <ele>626.436279</ele>
        <time>2012-05-18T16:08:55Z</time>
      </trkpt>
      <trkpt lat="44.75618" lon="2.63611">
        <ele>629.800781</ele>
        <time>2012-05-18T16:09:10Z</time>
      </trkpt>
      <trkpt lat="44.75658" lon="2.63592">
        <ele>633.645996</ele>
        <time>2012-05-18T16:09:22Z</time>
      </trkpt>
      <trkpt lat="44.75693" lon="2.63576">
        <ele>634.607422</ele>
        <time>2012-05-18T16:09:33Z</time>
      </trkpt>
      <trkpt lat="44.75764" lon="2.63541">
        <ele>636.049561</ele>
        <time>2012-05-18T16:09:53Z</time>
      </trkpt>
      <trkpt lat="44.75823" lon="2.63523">
        <ele>635.568604</ele>
        <time>2012-05-18T16:10:09Z</time>
      </trkpt>
      <trkpt lat="44.75875" lon="2.63494">
        <ele>636.049561</ele>
        <time>2012-05-18T16:10:24Z</time>
      </trkpt>
      <trkpt lat="44.75886" lon="2.63415">
        <ele>638.452881</ele>
        <time>2012-05-18T16:10:39Z</time>
      </trkpt>
      <trkpt lat="44.7591" lon="2.63343">
        <ele>640.375488</ele>
        <time>2012-05-18T16:10:56Z</time>
      </trkpt>
      <trkpt lat="44.75989" lon="2.63277">
        <ele>644.701172</ele>
        <time>2012-05-18T16:11:30Z</time>
      </trkpt>
      <trkpt lat="44.76038" lon="2.63276">
        <ele>649.988525</ele>
        <time>2012-05-18T16:11:49Z</time>
      </trkpt>
      <trkpt lat="44.76081" lon="2.63276">
        <ele>653.353271</ele>
        <time>2012-05-18T16:12:11Z</time>
      </trkpt>
      <trkpt lat="44.76121" lon="2.63269">
        <ele>656.717773</ele>
        <time>2012-05-18T16:12:33Z</time>
      </trkpt>
      <trkpt lat="44.76161" lon="2.63258">
        <ele>657.679199</ele>
        <time>2012-05-18T16:12:52Z</time>
      </trkpt>
      <trkpt lat="44.76191" lon="2.63253">
        <ele>661.043701</ele>
        <time>2012-05-18T16:13:07Z</time>
      </trkpt>
      <trkpt lat="44.76211" lon="2.63258">
        <ele>663.447021</ele>
        <time>2012-05-18T16:13:19Z</time>
      </trkpt>
      <trkpt lat="44.7623" lon="2.63266">
        <ele>665.369629</ele>
        <time>2012-05-18T16:13:31Z</time>
      </trkpt>
      <trkpt lat="44.76255" lon="2.63283">
        <ele>670.656982</ele>
        <time>2012-05-18T16:13:49Z</time>
      </trkpt>
      <trkpt lat="44.76279" lon="2.63296">
        <ele>673.060303</ele>
        <time>2012-05-18T16:14:04Z</time>
      </trkpt>
      <trkpt lat="44.76304" lon="2.63304">
        <ele>670.656982</ele>
        <time>2012-05-18T16:14:19Z</time>
      </trkpt>
      <trkpt lat="44.76326" lon="2.6332">
        <ele>674.502197</ele>
        <time>2012-05-18T16:14:36Z</time>
      </trkpt>
      <trkpt lat="44.7635" lon="2.63334">
        <ele>676.905518</ele>
        <time>2012-05-18T16:14:51Z</time>
      </trkpt>
      <trkpt lat="44.76396" lon="2.63366">
        <ele>679.789307</ele>
        <time>2012-05-18T16:15:23Z</time>
      </trkpt>
      <trkpt lat="44.76422" lon="2.63384">
        <ele>684.115479</ele>
        <time>2012-05-18T16:15:39Z</time>
      </trkpt>
      <trkpt lat="44.76446" lon="2.634">
        <ele>686.038086</ele>
        <time>2012-05-18T16:15:54Z</time>
      </trkpt>
      <trkpt lat="44.76474" lon="2.63419">
        <ele>689.402588</ele>
        <time>2012-05-18T16:16:12Z</time>
      </trkpt>
      <trkpt lat="44.76505" lon="2.63432">
        <ele>692.286621</ele>
        <time>2012-05-18T16:16:30Z</time>
      </trkpt>
      <trkpt lat="44.76531" lon="2.63438">
        <ele>698.054443</ele>
        <time>2012-05-18T16:16:46Z</time>
      </trkpt>
      <trkpt lat="44.76557" lon="2.63433">
        <ele>700.458008</ele>
        <time>2012-05-18T16:17:02Z</time>
      </trkpt>
      <trkpt lat="44.76573" lon="2.63422">
        <ele>701.899902</ele>
        <time>2012-05-18T16:17:12Z</time>
      </trkpt>
      <trkpt lat="44.76585" lon="2.63417">
        <ele>703.341797</ele>
        <time>2012-05-18T16:17:20Z</time>
      </trkpt>
      <trkpt lat="44.76603" lon="2.63407">
        <ele>706.225586</ele>
        <time>2012-05-18T16:17:33Z</time>
      </trkpt>
      <trkpt lat="44.76625" lon="2.63398">
        <ele>707.187012</ele>
        <time>2012-05-18T16:17:48Z</time>
      </trkpt>
      <trkpt lat="44.76653" lon="2.63397">
        <ele>708.148438</ele>
        <time>2012-05-18T16:18:06Z</time>
      </trkpt>
      <trkpt lat="44.76686" lon="2.634">
        <ele>711.993652</ele>
        <time>2012-05-18T16:18:25Z</time>
      </trkpt>
      <trkpt lat="44.76713" lon="2.63399">
        <ele>714.396729</ele>
        <time>2012-05-18T16:18:45Z</time>
      </trkpt>
      <trkpt lat="44.76741" lon="2.63391">
        <ele>713.916016</ele>
        <time>2012-05-18T16:19:01Z</time>
      </trkpt>
      <trkpt lat="44.76761" lon="2.63384">
        <ele>716.800293</ele>
        <time>2012-05-18T16:19:13Z</time>
      </trkpt>
      <trkpt lat="44.76786" lon="2.63372">
        <ele>718.7229</ele>
        <time>2012-05-18T16:19:28Z</time>
      </trkpt>
      <trkpt lat="44.76814" lon="2.6336">
        <ele>721.126221</ele>
        <time>2012-05-18T16:19:45Z</time>
      </trkpt>
      <trkpt lat="44.76841" lon="2.63346">
        <ele>724.01001</ele>
        <time>2012-05-18T16:20:01Z</time>
      </trkpt>
      <trkpt lat="44.76867" lon="2.63334">
        <ele>727.855225</ele>
        <time>2012-05-18T16:20:17Z</time>
      </trkpt>
      <trkpt lat="44.76895" lon="2.6332">
        <ele>732.181396</ele>
        <time>2012-05-18T16:20:35Z</time>
      </trkpt>
      <trkpt lat="44.76922" lon="2.63305">
        <ele>738.429932</ele>
        <time>2012-05-18T16:20:53Z</time>
      </trkpt>
      <trkpt lat="44.76945" lon="2.63294">
        <ele>739.871826</ele>
        <time>2012-05-18T16:21:08Z</time>
      </trkpt>
      <trkpt lat="44.7697" lon="2.63285">
        <ele>740.833008</ele>
        <time>2012-05-18T16:21:25Z</time>
      </trkpt>
      <trkpt lat="44.76995" lon="2.63271">
        <ele>741.794434</ele>
        <time>2012-05-18T16:21:42Z</time>
      </trkpt>
      <trkpt lat="44.77023" lon="2.63243">
        <ele>740.833008</ele>
        <time>2012-05-18T16:21:59Z</time>
      </trkpt>
      <trkpt lat="44.77041" lon="2.63225">
        <ele>744.678223</ele>
        <time>2012-05-18T16:22:15Z</time>
      </trkpt>
      <trkpt lat="44.77044" lon="2.63233">
        <ele>749.96582</ele>
        <time>2012-05-18T16:23:10Z</time>
      </trkpt>
      <trkpt lat="44.77042" lon="2.63232">
        <ele>748.043213</ele>
        <time>2012-05-18T16:23:35Z</time>
      </trkpt>
      <trkpt lat="44.77047" lon="2.6323">
        <ele>738.429932</ele>
        <time>2012-05-18T16:24:26Z</time>
      </trkpt>
      <trkpt lat="44.77071" lon="2.63225">
        <ele>741.794434</ele>
        <time>2012-05-18T16:24:39Z</time>
      </trkpt>
      <trkpt lat="44.7712" lon="2.63215">
        <ele>745.639648</ele>
        <time>2012-05-18T16:25:01Z</time>
      </trkpt>
      <trkpt lat="44.77159" lon="2.63226">
        <ele>747.081543</ele>
        <time>2012-05-18T16:25:19Z</time>
      </trkpt>
      <trkpt lat="44.77191" lon="2.63239">
        <ele>748.523682</ele>
        <time>2012-05-18T16:25:35Z</time>
      </trkpt>
      <trkpt lat="44.7722" lon="2.63253">
        <ele>751.888428</ele>
        <time>2012-05-18T16:25:51Z</time>
      </trkpt>
      <trkpt lat="44.7724" lon="2.63262">
        <ele>754.772217</ele>
        <time>2012-05-18T16:26:03Z</time>
      </trkpt>
      <trkpt lat="44.77261" lon="2.63276">
        <ele>757.175537</ele>
        <time>2012-05-18T16:26:16Z</time>
      </trkpt>
      <trkpt lat="44.77277" lon="2.6331">
        <ele>761.501465</ele>
        <time>2012-05-18T16:26:33Z</time>
      </trkpt>
      <trkpt lat="44.7729" lon="2.63337">
        <ele>764.385498</ele>
        <time>2012-05-18T16:26:47Z</time>
      </trkpt>
      <trkpt lat="44.77309" lon="2.63367">
        <ele>764.866211</ele>
        <time>2012-05-18T16:27:03Z</time>
      </trkpt>
      <trkpt lat="44.77333" lon="2.63395">
        <ele>765.827637</ele>
        <time>2012-05-18T16:27:19Z</time>
      </trkpt>
      <trkpt lat="44.77362" lon="2.6341">
        <ele>768.230713</ele>
        <time>2012-05-18T16:27:34Z</time>
      </trkpt>
      <trkpt lat="44.77396" lon="2.63425">
        <ele>769.672852</ele>
        <time>2012-05-18T16:27:49Z</time>
      </trkpt>
      <trkpt lat="44.77451" lon="2.63442">
        <ele>772.075928</ele>
        <time>2012-05-18T16:28:06Z</time>
      </trkpt>
      <trkpt lat="44.77494" lon="2.63426">
        <ele>773.037354</ele>
        <time>2012-05-18T16:28:17Z</time>
      </trkpt>
      <trkpt lat="44.77572" lon="2.63383">
        <ele>774.479248</ele>
        <time>2012-05-18T16:28:37Z</time>
      </trkpt>
      <trkpt lat="44.7758" lon="2.63373">
        <ele>775.44043</ele>
        <time>2012-05-18T16:28:45Z</time>
      </trkpt>
      <trkpt lat="44.77589" lon="2.63357">
        <ele>774.959961</ele>
        <time>2012-05-18T16:28:53Z</time>
      </trkpt>
      <trkpt lat="44.77603" lon="2.6334">
        <ele>773.998535</ele>
        <time>2012-05-18T16:28:57Z</time>
      </trkpt>
      <trkpt lat="44.77627" lon="2.6332">
        <ele>773.998535</ele>
        <time>2012-05-18T16:29:02Z</time>
      </trkpt>
      <trkpt lat="44.77667" lon="2.63242">
        <ele>773.998535</ele>
        <time>2012-05-18T16:29:13Z</time>
      </trkpt>
      <trkpt lat="44.77685" lon="2.63207">
        <ele>773.037354</ele>
        <time>2012-05-18T16:29:18Z</time>
      </trkpt>
      <trkpt lat="44.77716" lon="2.63192">
        <ele>773.518066</ele>
        <time>2012-05-18T16:29:24Z</time>
      </trkpt>
      <trkpt lat="44.77723" lon="2.63203">
        <ele>773.518066</ele>
        <time>2012-05-18T16:29:26Z</time>
      </trkpt>
      <trkpt lat="44.77773" lon="2.63325">
        <ele>774.959961</ele>
        <time>2012-05-18T16:29:42Z</time>
      </trkpt>
      <trkpt lat="44.77794" lon="2.63377">
        <ele>775.44043</ele>
        <time>2012-05-18T16:29:49Z</time>
      </trkpt>
      <trkpt lat="44.77832" lon="2.63434">
        <ele>777.363281</ele>
        <time>2012-05-18T16:29:59Z</time>
      </trkpt>
      <trkpt lat="44.77841" lon="2.63519">
        <ele>777.363281</ele>
        <time>2012-05-18T16:30:12Z</time>
      </trkpt>
      <trkpt lat="44.77842" lon="2.63524">
        <ele>776.882568</ele>
        <time>2012-05-18T16:30:13Z</time>
      </trkpt>
      <trkpt lat="44.7785" lon="2.63532">
        <ele>776.401855</ele>
        <time>2012-05-18T16:30:21Z</time>
      </trkpt>
      <trkpt lat="44.77851" lon="2.63529">
        <ele>775.921143</ele>
        <time>2012-05-18T16:30:23Z</time>
      </trkpt>
      <trkpt lat="44.77854" lon="2.63527">
        <ele>776.401855</ele>
        <time>2012-05-18T16:30:32Z</time>
      </trkpt>
      <trkpt lat="44.77855" lon="2.63526">
        <ele>775.921143</ele>
        <time>2012-05-18T16:30:49Z</time>
      </trkpt>
      <trkpt lat="44.77871" lon="2.63515">
        <ele>789.379639</ele>
        <time>2012-05-18T16:51:12Z</time>
      </trkpt>
      <trkpt lat="44.77847" lon="2.63527">
        <ele>790.341064</ele>
        <time>2012-05-18T16:51:30Z</time>
      </trkpt>
      <trkpt lat="44.77848" lon="2.63526">
        <ele>776.882568</ele>
        <time>2012-05-18T16:52:23Z</time>
      </trkpt>
      <trkpt lat="44.77846" lon="2.6353">
        <ele>777.363281</ele>
        <time>2012-05-18T16:52:27Z</time>
      </trkpt>
      <trkpt lat="44.77859" lon="2.63555">
        <ele>776.401855</ele>
        <time>2012-05-18T16:52:36Z</time>
      </trkpt>
      <trkpt lat="44.77882" lon="2.63599">
        <ele>775.44043</ele>
        <time>2012-05-18T16:52:46Z</time>
      </trkpt>
      <trkpt lat="44.77887" lon="2.63608">
        <ele>775.44043</ele>
        <time>2012-05-18T16:52:48Z</time>
      </trkpt>
      <trkpt lat="44.77935" lon="2.63644">
        <ele>774.479248</ele>
        <time>2012-05-18T16:53:00Z</time>
      </trkpt>
      <trkpt lat="44.77955" lon="2.63659">
        <ele>774.959961</ele>
        <time>2012-05-18T16:53:06Z</time>
      </trkpt>
      <trkpt lat="44.77953" lon="2.63697">
        <ele>775.921143</ele>
        <time>2012-05-18T16:53:14Z</time>
      </trkpt>
      <trkpt lat="44.77934" lon="2.63722">
        <ele>777.363281</ele>
        <time>2012-05-18T16:53:22Z</time>
      </trkpt>
      <trkpt lat="44.77932" lon="2.63725">
        <ele>776.882568</ele>
        <time>2012-05-18T16:53:28Z</time>
      </trkpt>
      <trkpt lat="44.77946" lon="2.63753">
        <ele>776.401855</ele>
        <time>2012-05-18T16:53:38Z</time>
      </trkpt>
      <trkpt lat="44.77982" lon="2.63804">
        <ele>774.959961</ele>
        <time>2012-05-18T16:53:47Z</time>
      </trkpt>
      <trkpt lat="44.7805" lon="2.639">
        <ele>773.998535</ele>
        <time>2012-05-18T16:53:59Z</time>
      </trkpt>
      <trkpt lat="44.78147" lon="2.64033">
        <ele>773.518066</ele>
        <time>2012-05-18T16:54:16Z</time>
      </trkpt>
      <trkpt lat="44.7826" lon="2.64187">
        <ele>773.037354</ele>
        <time>2012-05-18T16:54:37Z</time>
      </trkpt>
      <trkpt lat="44.7833" lon="2.64285">
        <ele>773.037354</ele>
        <time>2012-05-18T16:54:52Z</time>
      </trkpt>
      <trkpt lat="44.78408" lon="2.64392">
        <ele>773.037354</ele>
        <time>2012-05-18T16:55:09Z</time>
      </trkpt>
      <trkpt lat="44.78457" lon="2.64458">
        <ele>773.037354</ele>
        <time>2012-05-18T16:55:20Z</time>
      </trkpt>
      <trkpt lat="44.78538" lon="2.64569">
        <ele>775.44043</ele>
        <time>2012-05-18T16:55:41Z</time>
      </trkpt>
      <trkpt lat="44.78584" lon="2.64633">
        <ele>779.285645</ele>
        <time>2012-05-18T16:55:55Z</time>
      </trkpt>
      <trkpt lat="44.78635" lon="2.64703">
        <ele>780.247314</ele>
        <time>2012-05-18T16:56:11Z</time>
      </trkpt>
      <trkpt lat="44.78688" lon="2.64771">
        <ele>780.247314</ele>
        <time>2012-05-18T16:56:26Z</time>
      </trkpt>
      <trkpt lat="44.78737" lon="2.64837">
        <ele>780.728027</ele>
        <time>2012-05-18T16:56:39Z</time>
      </trkpt>
      <trkpt lat="44.78801" lon="2.64921">
        <ele>780.247314</ele>
        <time>2012-05-18T16:56:55Z</time>
      </trkpt>
      <trkpt lat="44.78882" lon="2.65033">
        <ele>779.766357</ele>
        <time>2012-05-18T16:57:14Z</time>
      </trkpt>
      <trkpt lat="44.78944" lon="2.65119">
        <ele>780.247314</ele>
        <time>2012-05-18T16:57:30Z</time>
      </trkpt>
      <trkpt lat="44.79005" lon="2.65205">
        <ele>781.20874</ele>
        <time>2012-05-18T16:57:47Z</time>
      </trkpt>
      <trkpt lat="44.79069" lon="2.6529">
        <ele>784.092529</ele>
        <time>2012-05-18T16:58:04Z</time>
      </trkpt>
      <trkpt lat="44.79146" lon="2.65396">
        <ele>786.49585</ele>
        <time>2012-05-18T16:58:23Z</time>
      </trkpt>
      <trkpt lat="44.79225" lon="2.65505">
        <ele>790.821533</ele>
        <time>2012-05-18T16:58:44Z</time>
      </trkpt>
      <trkpt lat="44.79304" lon="2.65605">
        <ele>791.782959</ele>
        <time>2012-05-18T16:59:04Z</time>
      </trkpt>
      <trkpt lat="44.79377" lon="2.65666">
        <ele>790.821533</ele>
        <time>2012-05-18T16:59:18Z</time>
      </trkpt>
      <trkpt lat="44.79458" lon="2.6571">
        <ele>790.821533</ele>
        <time>2012-05-18T16:59:32Z</time>
      </trkpt>
      <trkpt lat="44.7957" lon="2.65732">
        <ele>791.782959</ele>
        <time>2012-05-18T16:59:50Z</time>
      </trkpt>
      <trkpt lat="44.79715" lon="2.65746">
        <ele>792.744385</ele>
        <time>2012-05-18T17:00:10Z</time>
      </trkpt>
      <trkpt lat="44.79831" lon="2.65757">
        <ele>793.224854</ele>
        <time>2012-05-18T17:00:25Z</time>
      </trkpt>
      <trkpt lat="44.7996" lon="2.65771">
        <ele>792.744385</ele>
        <time>2012-05-18T17:00:41Z</time>
      </trkpt>
      <trkpt lat="44.80129" lon="2.65789">
        <ele>791.782959</ele>
        <time>2012-05-18T17:01:02Z</time>
      </trkpt>
      <trkpt lat="44.80293" lon="2.65807">
        <ele>790.341064</ele>
        <time>2012-05-18T17:01:21Z</time>
      </trkpt>
      <trkpt lat="44.80385" lon="2.65815">
        <ele>788.89917</ele>
        <time>2012-05-18T17:01:33Z</time>
      </trkpt>
      <trkpt lat="44.80478" lon="2.65825">
        <ele>787.457031</ele>
        <time>2012-05-18T17:01:45Z</time>
      </trkpt>
      <trkpt lat="44.806" lon="2.6584">
        <ele>786.976318</ele>
        <time>2012-05-18T17:02:02Z</time>
      </trkpt>
      <trkpt lat="44.80705" lon="2.65853">
        <ele>787.457031</ele>
        <time>2012-05-18T17:02:16Z</time>
      </trkpt>
      <trkpt lat="44.80844" lon="2.65869">
        <ele>788.89917</ele>
        <time>2012-05-18T17:02:35Z</time>
      </trkpt>
      <trkpt lat="44.80921" lon="2.65878">
        <ele>789.379639</ele>
        <time>2012-05-18T17:02:46Z</time>
      </trkpt>
      <trkpt lat="44.80934" lon="2.65916">
        <ele>789.379639</ele>
        <time>2012-05-18T17:02:51Z</time>
      </trkpt>
      <trkpt lat="44.80932" lon="2.65925">
        <ele>789.379639</ele>
        <time>2012-05-18T17:02:52Z</time>
      </trkpt>
      <trkpt lat="44.80908" lon="2.66076">
        <ele>790.821533</ele>
        <time>2012-05-18T17:03:08Z</time>
      </trkpt>
      <trkpt lat="44.80911" lon="2.66174">
        <ele>793.705566</ele>
        <time>2012-05-18T17:03:20Z</time>
      </trkpt>
      <trkpt lat="44.80921" lon="2.66253">
        <ele>791.302246</ele>
        <time>2012-05-18T17:03:29Z</time>
      </trkpt>
      <trkpt lat="44.80929" lon="2.66428">
        <ele>786.49585</ele>
        <time>2012-05-18T17:03:44Z</time>
      </trkpt>
      <trkpt lat="44.80934" lon="2.66543">
        <ele>785.053955</ele>
        <time>2012-05-18T17:03:53Z</time>
      </trkpt>
      <trkpt lat="44.80971" lon="2.66685">
        <ele>779.285645</ele>
        <time>2012-05-18T17:04:04Z</time>
      </trkpt>
      <trkpt lat="44.81004" lon="2.66803">
        <ele>784.092529</ele>
        <time>2012-05-18T17:04:14Z</time>
      </trkpt>
      <trkpt lat="44.81023" lon="2.66874">
        <ele>788.418457</ele>
        <time>2012-05-18T17:04:23Z</time>
      </trkpt>
      <trkpt lat="44.81039" lon="2.66927">
        <ele>791.782959</ele>
        <time>2012-05-18T17:04:35Z</time>
      </trkpt>
      <trkpt lat="44.8105" lon="2.66967">
        <ele>793.705566</ele>
        <time>2012-05-18T17:04:47Z</time>
      </trkpt>
      <trkpt lat="44.81067" lon="2.6702">
        <ele>796.589844</ele>
        <time>2012-05-18T17:05:04Z</time>
      </trkpt>
      <trkpt lat="44.81094" lon="2.67068">
        <ele>798.031738</ele>
        <time>2012-05-18T17:05:19Z</time>
      </trkpt>
      <trkpt lat="44.81132" lon="2.67111">
        <ele>796.109131</ele>
        <time>2012-05-18T17:05:29Z</time>
      </trkpt>
      <trkpt lat="44.81193" lon="2.6716">
        <ele>794.666748</ele>
        <time>2012-05-18T17:05:41Z</time>
      </trkpt>
      <trkpt lat="44.81264" lon="2.67188">
        <ele>794.186279</ele>
        <time>2012-05-18T17:05:55Z</time>
      </trkpt>
      <trkpt lat="44.81341" lon="2.6722">
        <ele>793.705566</ele>
        <time>2012-05-18T17:06:10Z</time>
      </trkpt>
      <trkpt lat="44.81361" lon="2.67245">
        <ele>793.705566</ele>
        <time>2012-05-18T17:06:16Z</time>
      </trkpt>
      <trkpt lat="44.81383" lon="2.67287">
        <ele>791.302246</ele>
        <time>2012-05-18T17:06:23Z</time>
      </trkpt>
      <trkpt lat="44.81392" lon="2.67336">
        <ele>788.89917</ele>
        <time>2012-05-18T17:06:28Z</time>
      </trkpt>
      <trkpt lat="44.81396" lon="2.67513">
        <ele>785.534424</ele>
        <time>2012-05-18T17:06:43Z</time>
      </trkpt>
      <trkpt lat="44.81401" lon="2.67654">
        <ele>785.053955</ele>
        <time>2012-05-18T17:06:56Z</time>
      </trkpt>
      <trkpt lat="44.81399" lon="2.67803">
        <ele>783.131104</ele>
        <time>2012-05-18T17:07:10Z</time>
      </trkpt>
      <trkpt lat="44.81397" lon="2.67834">
        <ele>782.650635</ele>
        <time>2012-05-18T17:07:13Z</time>
      </trkpt>
      <trkpt lat="44.8136" lon="2.67939">
        <ele>780.728027</ele>
        <time>2012-05-18T17:07:25Z</time>
      </trkpt>
      <trkpt lat="44.81367" lon="2.67981">
        <ele>778.805176</ele>
        <time>2012-05-18T17:07:30Z</time>
      </trkpt>
      <trkpt lat="44.81372" lon="2.67989">
        <ele>778.324463</ele>
        <time>2012-05-18T17:07:31Z</time>
      </trkpt>
      <trkpt lat="44.81389" lon="2.6804">
        <ele>774.959961</ele>
        <time>2012-05-18T17:07:37Z</time>
      </trkpt>
      <trkpt lat="44.81371" lon="2.68066">
        <ele>772.556641</ele>
        <time>2012-05-18T17:07:40Z</time>
      </trkpt>
      <trkpt lat="44.81308" lon="2.68132">
        <ele>769.192139</ele>
        <time>2012-05-18T17:07:48Z</time>
      </trkpt>
      <trkpt lat="44.81275" lon="2.68199">
        <ele>764.866211</ele>
        <time>2012-05-18T17:07:54Z</time>
      </trkpt>
      <trkpt lat="44.81282" lon="2.68233">
        <ele>761.982178</ele>
        <time>2012-05-18T17:07:59Z</time>
      </trkpt>
      <trkpt lat="44.81295" lon="2.68227">
        <ele>760.540039</ele>
        <time>2012-05-18T17:08:01Z</time>
      </trkpt>
      <trkpt lat="44.81353" lon="2.68165">
        <ele>756.694824</ele>
        <time>2012-05-18T17:08:09Z</time>
      </trkpt>
      <trkpt lat="44.81391" lon="2.6814">
        <ele>755.25293</ele>
        <time>2012-05-18T17:08:13Z</time>
      </trkpt>
      <trkpt lat="44.81461" lon="2.68134">
        <ele>753.811035</ele>
        <time>2012-05-18T17:08:19Z</time>
      </trkpt>
      <trkpt lat="44.81471" lon="2.68143">
        <ele>752.368896</ele>
        <time>2012-05-18T17:08:20Z</time>
      </trkpt>
      <trkpt lat="44.81516" lon="2.68179">
        <ele>749.004395</ele>
        <time>2012-05-18T17:08:24Z</time>
      </trkpt>
      <trkpt lat="44.81588" lon="2.68213">
        <ele>743.717041</ele>
        <time>2012-05-18T17:08:30Z</time>
      </trkpt>
      <trkpt lat="44.81631" lon="2.68251">
        <ele>740.833008</ele>
        <time>2012-05-18T17:08:34Z</time>
      </trkpt>
      <trkpt lat="44.81655" lon="2.68291">
        <ele>739.391113</ele>
        <time>2012-05-18T17:08:37Z</time>
      </trkpt>
      <trkpt lat="44.81682" lon="2.68328">
        <ele>737.468506</ele>
        <time>2012-05-18T17:08:40Z</time>
      </trkpt>
      <trkpt lat="44.8173" lon="2.68352">
        <ele>734.584717</ele>
        <time>2012-05-18T17:08:44Z</time>
      </trkpt>
      <trkpt lat="44.81756" lon="2.68356">
        <ele>733.623291</ele>
        <time>2012-05-18T17:08:46Z</time>
      </trkpt>
      <trkpt lat="44.81813" lon="2.68385">
        <ele>729.297119</ele>
        <time>2012-05-18T17:08:51Z</time>
      </trkpt>
      <trkpt lat="44.81837" lon="2.68395">
        <ele>727.855225</ele>
        <time>2012-05-18T17:08:53Z</time>
      </trkpt>
      <trkpt lat="44.8189" lon="2.68382">
        <ele>724.01001</ele>
        <time>2012-05-18T17:08:58Z</time>
      </trkpt>
      <trkpt lat="44.81899" lon="2.68349">
        <ele>721.126221</ele>
        <time>2012-05-18T17:09:01Z</time>
      </trkpt>
      <trkpt lat="44.81912" lon="2.68306">
        <ele>717.281006</ele>
        <time>2012-05-18T17:09:06Z</time>
      </trkpt>
      <trkpt lat="44.81927" lon="2.68316">
        <ele>715.838867</ele>
        <time>2012-05-18T17:09:08Z</time>
      </trkpt>
      <trkpt lat="44.81965" lon="2.68343">
        <ele>711.993652</ele>
        <time>2012-05-18T17:09:13Z</time>
      </trkpt>
      <trkpt lat="44.82002" lon="2.68345">
        <ele>709.109619</ele>
        <time>2012-05-18T17:09:17Z</time>
      </trkpt>
      <trkpt lat="44.82102" lon="2.68298">
        <ele>701.899902</ele>
        <time>2012-05-18T17:09:27Z</time>
      </trkpt>
      <trkpt lat="44.82144" lon="2.68293">
        <ele>699.496338</ele>
        <time>2012-05-18T17:09:31Z</time>
      </trkpt>
      <trkpt lat="44.82228" lon="2.68332">
        <ele>691.805908</ele>
        <time>2012-05-18T17:09:39Z</time>
      </trkpt>
      <trkpt lat="44.82239" lon="2.68337">
        <ele>691.325195</ele>
        <time>2012-05-18T17:09:40Z</time>
      </trkpt>
      <trkpt lat="44.82335" lon="2.68348">
        <ele>686.999268</ele>
        <time>2012-05-18T17:09:49Z</time>
      </trkpt>
      <trkpt lat="44.82364" lon="2.68364">
        <ele>684.596191</ele>
        <time>2012-05-18T17:09:52Z</time>
      </trkpt>
      <trkpt lat="44.82436" lon="2.68383">
        <ele>677.38623</ele>
        <time>2012-05-18T17:09:59Z</time>
      </trkpt>
      <trkpt lat="44.82523" lon="2.68387">
        <ele>672.57959</ele>
        <time>2012-05-18T17:10:07Z</time>
      </trkpt>
      <trkpt lat="44.82572" lon="2.68359">
        <ele>668.253662</ele>
        <time>2012-05-18T17:10:12Z</time>
      </trkpt>
      <trkpt lat="44.82615" lon="2.68355">
        <ele>664.888916</ele>
        <time>2012-05-18T17:10:16Z</time>
      </trkpt>
      <trkpt lat="44.82646" lon="2.68365">
        <ele>662.966309</ele>
        <time>2012-05-18T17:10:19Z</time>
      </trkpt>
      <trkpt lat="44.82667" lon="2.68365">
        <ele>662.485596</ele>
        <time>2012-05-18T17:10:21Z</time>
      </trkpt>
      <trkpt lat="44.82699" lon="2.68358">
        <ele>661.524414</ele>
        <time>2012-05-18T17:10:24Z</time>
      </trkpt>
      <trkpt lat="44.82736" lon="2.68317">
        <ele>659.121094</ele>
        <time>2012-05-18T17:10:29Z</time>
      </trkpt>
      <trkpt lat="44.82746" lon="2.68329">
        <ele>657.679199</ele>
        <time>2012-05-18T17:10:34Z</time>
      </trkpt>
      <trkpt lat="44.82745" lon="2.68334">
        <ele>657.198486</ele>
        <time>2012-05-18T17:10:35Z</time>
      </trkpt>
      <trkpt lat="44.82742" lon="2.68371">
        <ele>654.795166</ele>
        <time>2012-05-18T17:10:41Z</time>
      </trkpt>
      <trkpt lat="44.82742" lon="2.6841">
        <ele>652.391846</ele>
        <time>2012-05-18T17:10:46Z</time>
      </trkpt>
      <trkpt lat="44.8273" lon="2.68448">
        <ele>650.949707</ele>
        <time>2012-05-18T17:10:52Z</time>
      </trkpt>
      <trkpt lat="44.82741" lon="2.68454">
        <ele>649.0271</ele>
        <time>2012-05-18T17:10:58Z</time>
      </trkpt>
      <trkpt lat="44.82746" lon="2.68454">
        <ele>646.624023</ele>
        <time>2012-05-18T17:11:07Z</time>
      </trkpt>
    </trkseg>
  </trk>
</gpx>